<?xml version="1.0" encoding="UTF-8" standalone="no" ?>
<gpx xmlns="http://www.topografix.com/GPX/1/1" xmlns:xsi="http://www.w3.org/2001/XMLSchema-instance" xsi:schemaLocation="http://www.topografix.com/GPX/1/1 http://www.topografix.com/GPX/1/1/gpx.xsd" version="1.1" creator="VisuGPX - https://www.visugpx.com">
  <metadata>
    <name>Monédières depuis Clergoux</name>
    <desc><![CDATA[En partant du Mas direct Chaumeil par Barbazange]]></desc>
  </metadata>
  <trk>
    <name><![CDATA[Monédières depuis Clergoux_1]]></name>
    <trkseg>
      <trkpt lat="45.2827" lon="1.9697">
        <ele>606</ele>
        <time>2011-03-19T13:03:31.000Z</time>
      </trkpt>
      <trkpt lat="45.2827" lon="1.96969">
        <ele>607</ele>
        <time>2011-03-19T13:03:36.000Z</time>
      </trkpt>
      <trkpt lat="45.2827" lon="1.96969">
        <ele>608</ele>
        <time>2011-03-19T13:03:41.000Z</time>
      </trkpt>
      <trkpt lat="45.2827" lon="1.9697">
        <ele>606</ele>
        <time>2011-03-19T13:03:46.000Z</time>
      </trkpt>
      <trkpt lat="45.2827" lon="1.96971">
        <ele>606</ele>
        <time>2011-03-19T13:03:51.000Z</time>
      </trkpt>
      <trkpt lat="45.2827" lon="1.9697">
        <ele>607</ele>
        <time>2011-03-19T13:03:56.000Z</time>
      </trkpt>
      <trkpt lat="45.2827" lon="1.96969">
        <ele>606</ele>
        <time>2011-03-19T13:04:01.000Z</time>
      </trkpt>
      <trkpt lat="45.2827" lon="1.96969">
        <ele>606</ele>
        <time>2011-03-19T13:04:06.000Z</time>
      </trkpt>
      <trkpt lat="45.2827" lon="1.96969">
        <ele>606</ele>
        <time>2011-03-19T13:04:11.000Z</time>
      </trkpt>
      <trkpt lat="45.2827" lon="1.96969">
        <ele>606</ele>
        <time>2011-03-19T13:04:16.000Z</time>
      </trkpt>
      <trkpt lat="45.2827" lon="1.96966">
        <ele>607</ele>
        <time>2011-03-19T13:04:22.000Z</time>
      </trkpt>
      <trkpt lat="45.2827" lon="1.96961">
        <ele>608</ele>
        <time>2011-03-19T13:04:27.000Z</time>
      </trkpt>
      <trkpt lat="45.2826" lon="1.96956">
        <ele>608</ele>
        <time>2011-03-19T13:04:32.000Z</time>
      </trkpt>
      <trkpt lat="45.2826" lon="1.96953">
        <ele>606</ele>
        <time>2011-03-19T13:04:37.000Z</time>
      </trkpt>
      <trkpt lat="45.2826" lon="1.96952">
        <ele>606</ele>
        <time>2011-03-19T13:04:42.000Z</time>
      </trkpt>
      <trkpt lat="45.2827" lon="1.96955">
        <ele>605</ele>
        <time>2011-03-19T13:04:47.000Z</time>
      </trkpt>
      <trkpt lat="45.2826" lon="1.96959">
        <ele>607</ele>
        <time>2011-03-19T13:04:52.000Z</time>
      </trkpt>
      <trkpt lat="45.2826" lon="1.96972">
        <ele>605</ele>
        <time>2011-03-19T13:04:57.000Z</time>
      </trkpt>
      <trkpt lat="45.2827" lon="1.96991">
        <ele>605</ele>
        <time>2011-03-19T13:05:02.000Z</time>
      </trkpt>
      <trkpt lat="45.2828" lon="1.97015">
        <ele>607</ele>
        <time>2011-03-19T13:05:08.000Z</time>
      </trkpt>
      <trkpt lat="45.2829" lon="1.9703">
        <ele>608</ele>
        <time>2011-03-19T13:05:13.000Z</time>
      </trkpt>
      <trkpt lat="45.2831" lon="1.9703">
        <ele>611</ele>
        <time>2011-03-19T13:05:18.000Z</time>
      </trkpt>
      <trkpt lat="45.2833" lon="1.97013">
        <ele>613</ele>
        <time>2011-03-19T13:05:24.000Z</time>
      </trkpt>
      <trkpt lat="45.2836" lon="1.97006">
        <ele>614</ele>
        <time>2011-03-19T13:05:29.000Z</time>
      </trkpt>
      <trkpt lat="45.2838" lon="1.97002">
        <ele>614</ele>
        <time>2011-03-19T13:05:34.000Z</time>
      </trkpt>
      <trkpt lat="45.2842" lon="1.96998">
        <ele>614</ele>
        <time>2011-03-19T13:05:40.000Z</time>
      </trkpt>
      <trkpt lat="45.2844" lon="1.96972">
        <ele>616</ele>
        <time>2011-03-19T13:05:45.000Z</time>
      </trkpt>
      <trkpt lat="45.2846" lon="1.96954">
        <ele>618</ele>
        <time>2011-03-19T13:05:50.000Z</time>
      </trkpt>
      <trkpt lat="45.2849" lon="1.96931">
        <ele>619</ele>
        <time>2011-03-19T13:05:56.000Z</time>
      </trkpt>
      <trkpt lat="45.2852" lon="1.96913">
        <ele>618</ele>
        <time>2011-03-19T13:06:01.000Z</time>
      </trkpt>
      <trkpt lat="45.2854" lon="1.96894">
        <ele>618</ele>
        <time>2011-03-19T13:06:06.000Z</time>
      </trkpt>
      <trkpt lat="45.2857" lon="1.96876">
        <ele>617</ele>
        <time>2011-03-19T13:06:12.000Z</time>
      </trkpt>
      <trkpt lat="45.2859" lon="1.96871">
        <ele>616</ele>
        <time>2011-03-19T13:06:17.000Z</time>
      </trkpt>
      <trkpt lat="45.2862" lon="1.96882">
        <ele>615</ele>
        <time>2011-03-19T13:06:22.000Z</time>
      </trkpt>
      <trkpt lat="45.2864" lon="1.96885">
        <ele>614</ele>
        <time>2011-03-19T13:06:27.000Z</time>
      </trkpt>
      <trkpt lat="45.2867" lon="1.96879">
        <ele>613</ele>
        <time>2011-03-19T13:06:33.000Z</time>
      </trkpt>
      <trkpt lat="45.2869" lon="1.9688">
        <ele>613</ele>
        <time>2011-03-19T13:06:38.000Z</time>
      </trkpt>
      <trkpt lat="45.2872" lon="1.96873">
        <ele>612</ele>
        <time>2011-03-19T13:06:43.000Z</time>
      </trkpt>
      <trkpt lat="45.2875" lon="1.96851">
        <ele>610</ele>
        <time>2011-03-19T13:06:49.000Z</time>
      </trkpt>
      <trkpt lat="45.2878" lon="1.96833">
        <ele>608</ele>
        <time>2011-03-19T13:06:54.000Z</time>
      </trkpt>
      <trkpt lat="45.288" lon="1.96808">
        <ele>611</ele>
        <time>2011-03-19T13:06:59.000Z</time>
      </trkpt>
      <trkpt lat="45.2881" lon="1.9679">
        <ele>614</ele>
        <time>2011-03-19T13:07:05.000Z</time>
      </trkpt>
      <trkpt lat="45.2883" lon="1.96774">
        <ele>615</ele>
        <time>2011-03-19T13:07:10.000Z</time>
      </trkpt>
      <trkpt lat="45.2886" lon="1.96757">
        <ele>617</ele>
        <time>2011-03-19T13:07:15.000Z</time>
      </trkpt>
      <trkpt lat="45.2891" lon="1.96726">
        <ele>616</ele>
        <time>2011-03-19T13:07:21.000Z</time>
      </trkpt>
      <trkpt lat="45.2894" lon="1.96697">
        <ele>615</ele>
        <time>2011-03-19T13:07:26.000Z</time>
      </trkpt>
      <trkpt lat="45.2897" lon="1.96663">
        <ele>615</ele>
        <time>2011-03-19T13:07:31.000Z</time>
      </trkpt>
      <trkpt lat="45.2899" lon="1.96617">
        <ele>614</ele>
        <time>2011-03-19T13:07:37.000Z</time>
      </trkpt>
      <trkpt lat="45.2901" lon="1.96575">
        <ele>614</ele>
        <time>2011-03-19T13:07:42.000Z</time>
      </trkpt>
      <trkpt lat="45.2903" lon="1.96544">
        <ele>614</ele>
        <time>2011-03-19T13:07:47.000Z</time>
      </trkpt>
      <trkpt lat="45.2905" lon="1.96514">
        <ele>617</ele>
        <time>2011-03-19T13:07:53.000Z</time>
      </trkpt>
      <trkpt lat="45.2908" lon="1.96486">
        <ele>617</ele>
        <time>2011-03-19T13:07:58.000Z</time>
      </trkpt>
      <trkpt lat="45.291" lon="1.96457">
        <ele>617</ele>
        <time>2011-03-19T13:08:03.000Z</time>
      </trkpt>
      <trkpt lat="45.2912" lon="1.96439">
        <ele>618</ele>
        <time>2011-03-19T13:08:08.000Z</time>
      </trkpt>
      <trkpt lat="45.2914" lon="1.96424">
        <ele>619</ele>
        <time>2011-03-19T13:08:13.000Z</time>
      </trkpt>
      <trkpt lat="45.2916" lon="1.96414">
        <ele>621</ele>
        <time>2011-03-19T13:08:18.000Z</time>
      </trkpt>
      <trkpt lat="45.2918" lon="1.96403">
        <ele>624</ele>
        <time>2011-03-19T13:08:23.000Z</time>
      </trkpt>
      <trkpt lat="45.292" lon="1.96385">
        <ele>630</ele>
        <time>2011-03-19T13:08:28.000Z</time>
      </trkpt>
      <trkpt lat="45.2921" lon="1.96366">
        <ele>634</ele>
        <time>2011-03-19T13:08:34.000Z</time>
      </trkpt>
      <trkpt lat="45.2923" lon="1.96356">
        <ele>639</ele>
        <time>2011-03-19T13:08:39.000Z</time>
      </trkpt>
      <trkpt lat="45.2925" lon="1.96352">
        <ele>640</ele>
        <time>2011-03-19T13:08:44.000Z</time>
      </trkpt>
      <trkpt lat="45.2927" lon="1.96344">
        <ele>642</ele>
        <time>2011-03-19T13:08:49.000Z</time>
      </trkpt>
      <trkpt lat="45.2929" lon="1.96343">
        <ele>647</ele>
        <time>2011-03-19T13:08:54.000Z</time>
      </trkpt>
      <trkpt lat="45.293" lon="1.96337">
        <ele>648</ele>
        <time>2011-03-19T13:08:59.000Z</time>
      </trkpt>
      <trkpt lat="45.2933" lon="1.96318">
        <ele>648</ele>
        <time>2011-03-19T13:09:05.000Z</time>
      </trkpt>
      <trkpt lat="45.2934" lon="1.96304">
        <ele>649</ele>
        <time>2011-03-19T13:09:10.000Z</time>
      </trkpt>
      <trkpt lat="45.2935" lon="1.96284">
        <ele>649</ele>
        <time>2011-03-19T13:09:15.000Z</time>
      </trkpt>
      <trkpt lat="45.2937" lon="1.9627">
        <ele>649</ele>
        <time>2011-03-19T13:09:21.000Z</time>
      </trkpt>
      <trkpt lat="45.2938" lon="1.96253">
        <ele>653</ele>
        <time>2011-03-19T13:09:26.000Z</time>
      </trkpt>
      <trkpt lat="45.2941" lon="1.96243">
        <ele>653</ele>
        <time>2011-03-19T13:09:31.000Z</time>
      </trkpt>
      <trkpt lat="45.2943" lon="1.96238">
        <ele>650</ele>
        <time>2011-03-19T13:09:37.000Z</time>
      </trkpt>
      <trkpt lat="45.2945" lon="1.9624">
        <ele>652</ele>
        <time>2011-03-19T13:09:42.000Z</time>
      </trkpt>
      <trkpt lat="45.2947" lon="1.96243">
        <ele>655</ele>
        <time>2011-03-19T13:09:47.000Z</time>
      </trkpt>
      <trkpt lat="45.295" lon="1.96255">
        <ele>658</ele>
        <time>2011-03-19T13:09:53.000Z</time>
      </trkpt>
      <trkpt lat="45.2953" lon="1.96269">
        <ele>661</ele>
        <time>2011-03-19T13:09:58.000Z</time>
      </trkpt>
      <trkpt lat="45.2956" lon="1.96274">
        <ele>662</ele>
        <time>2011-03-19T13:10:03.000Z</time>
      </trkpt>
      <trkpt lat="45.2959" lon="1.96281">
        <ele>662</ele>
        <time>2011-03-19T13:10:09.000Z</time>
      </trkpt>
      <trkpt lat="45.2963" lon="1.96277">
        <ele>658</ele>
        <time>2011-03-19T13:10:14.000Z</time>
      </trkpt>
      <trkpt lat="45.2966" lon="1.96266">
        <ele>656</ele>
        <time>2011-03-19T13:10:19.000Z</time>
      </trkpt>
      <trkpt lat="45.297" lon="1.96261">
        <ele>654</ele>
        <time>2011-03-19T13:10:25.000Z</time>
      </trkpt>
      <trkpt lat="45.2973" lon="1.9625">
        <ele>652</ele>
        <time>2011-03-19T13:10:30.000Z</time>
      </trkpt>
      <trkpt lat="45.2976" lon="1.96248">
        <ele>649</ele>
        <time>2011-03-19T13:10:35.000Z</time>
      </trkpt>
      <trkpt lat="45.2979" lon="1.96248">
        <ele>648</ele>
        <time>2011-03-19T13:10:41.000Z</time>
      </trkpt>
      <trkpt lat="45.2981" lon="1.96236">
        <ele>645</ele>
        <time>2011-03-19T13:10:46.000Z</time>
      </trkpt>
      <trkpt lat="45.2984" lon="1.96212">
        <ele>647</ele>
        <time>2011-03-19T13:10:51.000Z</time>
      </trkpt>
      <trkpt lat="45.2987" lon="1.96211">
        <ele>655</ele>
        <time>2011-03-19T13:10:57.000Z</time>
      </trkpt>
      <trkpt lat="45.299" lon="1.96196">
        <ele>658</ele>
        <time>2011-03-19T13:11:02.000Z</time>
      </trkpt>
      <trkpt lat="45.2994" lon="1.96209">
        <ele>661</ele>
        <time>2011-03-19T13:11:07.000Z</time>
      </trkpt>
      <trkpt lat="45.2998" lon="1.96241">
        <ele>664</ele>
        <time>2011-03-19T13:11:13.000Z</time>
      </trkpt>
      <trkpt lat="45.3001" lon="1.96259">
        <ele>667</ele>
        <time>2011-03-19T13:11:18.000Z</time>
      </trkpt>
      <trkpt lat="45.3005" lon="1.96262">
        <ele>673</ele>
        <time>2011-03-19T13:11:23.000Z</time>
      </trkpt>
      <trkpt lat="45.3009" lon="1.96242">
        <ele>669</ele>
        <time>2011-03-19T13:11:29.000Z</time>
      </trkpt>
      <trkpt lat="45.3012" lon="1.96207">
        <ele>667</ele>
        <time>2011-03-19T13:11:34.000Z</time>
      </trkpt>
      <trkpt lat="45.3016" lon="1.96161">
        <ele>663</ele>
        <time>2011-03-19T13:11:39.000Z</time>
      </trkpt>
      <trkpt lat="45.302" lon="1.96122">
        <ele>656</ele>
        <time>2011-03-19T13:11:45.000Z</time>
      </trkpt>
      <trkpt lat="45.3023" lon="1.96106">
        <ele>651</ele>
        <time>2011-03-19T13:11:50.000Z</time>
      </trkpt>
      <trkpt lat="45.3025" lon="1.96112">
        <ele>653</ele>
        <time>2011-03-19T13:11:55.000Z</time>
      </trkpt>
      <trkpt lat="45.3029" lon="1.96134">
        <ele>657</ele>
        <time>2011-03-19T13:12:01.000Z</time>
      </trkpt>
      <trkpt lat="45.3031" lon="1.96131">
        <ele>656</ele>
        <time>2011-03-19T13:12:06.000Z</time>
      </trkpt>
      <trkpt lat="45.3034" lon="1.96122">
        <ele>653</ele>
        <time>2011-03-19T13:12:11.000Z</time>
      </trkpt>
      <trkpt lat="45.3036" lon="1.961">
        <ele>653</ele>
        <time>2011-03-19T13:12:17.000Z</time>
      </trkpt>
      <trkpt lat="45.3038" lon="1.96063">
        <ele>652</ele>
        <time>2011-03-19T13:12:22.000Z</time>
      </trkpt>
      <trkpt lat="45.304" lon="1.96035">
        <ele>649</ele>
        <time>2011-03-19T13:12:27.000Z</time>
      </trkpt>
      <trkpt lat="45.3044" lon="1.95969">
        <ele>645</ele>
        <time>2011-03-19T13:12:33.000Z</time>
      </trkpt>
      <trkpt lat="45.3046" lon="1.95936">
        <ele>647</ele>
        <time>2011-03-19T13:12:38.000Z</time>
      </trkpt>
      <trkpt lat="45.3049" lon="1.95916">
        <ele>646</ele>
        <time>2011-03-19T13:12:43.000Z</time>
      </trkpt>
      <trkpt lat="45.3053" lon="1.95897">
        <ele>644</ele>
        <time>2011-03-19T13:12:49.000Z</time>
      </trkpt>
      <trkpt lat="45.3054" lon="1.9589">
        <ele>643</ele>
        <time>2011-03-19T13:12:54.000Z</time>
      </trkpt>
      <trkpt lat="45.3056" lon="1.95889">
        <ele>643</ele>
        <time>2011-03-19T13:12:59.000Z</time>
      </trkpt>
      <trkpt lat="45.3059" lon="1.95881">
        <ele>644</ele>
        <time>2011-03-19T13:13:05.000Z</time>
      </trkpt>
      <trkpt lat="45.3061" lon="1.95878">
        <ele>649</ele>
        <time>2011-03-19T13:13:10.000Z</time>
      </trkpt>
      <trkpt lat="45.3063" lon="1.95872">
        <ele>650</ele>
        <time>2011-03-19T13:13:15.000Z</time>
      </trkpt>
      <trkpt lat="45.3066" lon="1.95855">
        <ele>647</ele>
        <time>2011-03-19T13:13:21.000Z</time>
      </trkpt>
      <trkpt lat="45.3068" lon="1.9583">
        <ele>644</ele>
        <time>2011-03-19T13:13:26.000Z</time>
      </trkpt>
      <trkpt lat="45.3069" lon="1.95799">
        <ele>642</ele>
        <time>2011-03-19T13:13:31.000Z</time>
      </trkpt>
      <trkpt lat="45.3069" lon="1.95749">
        <ele>640</ele>
        <time>2011-03-19T13:13:37.000Z</time>
      </trkpt>
      <trkpt lat="45.3069" lon="1.95711">
        <ele>638</ele>
        <time>2011-03-19T13:13:42.000Z</time>
      </trkpt>
      <trkpt lat="45.307" lon="1.9567">
        <ele>637</ele>
        <time>2011-03-19T13:13:47.000Z</time>
      </trkpt>
      <trkpt lat="45.307" lon="1.95633">
        <ele>636</ele>
        <time>2011-03-19T13:13:53.000Z</time>
      </trkpt>
      <trkpt lat="45.3072" lon="1.95612">
        <ele>636</ele>
        <time>2011-03-19T13:13:58.000Z</time>
      </trkpt>
      <trkpt lat="45.3075" lon="1.95602">
        <ele>638</ele>
        <time>2011-03-19T13:14:03.000Z</time>
      </trkpt>
      <trkpt lat="45.3078" lon="1.95589">
        <ele>640</ele>
        <time>2011-03-19T13:14:09.000Z</time>
      </trkpt>
      <trkpt lat="45.3081" lon="1.95572">
        <ele>638</ele>
        <time>2011-03-19T13:14:14.000Z</time>
      </trkpt>
      <trkpt lat="45.3083" lon="1.95561">
        <ele>638</ele>
        <time>2011-03-19T13:14:19.000Z</time>
      </trkpt>
      <trkpt lat="45.3086" lon="1.95556">
        <ele>639</ele>
        <time>2011-03-19T13:14:25.000Z</time>
      </trkpt>
      <trkpt lat="45.3087" lon="1.95564">
        <ele>641</ele>
        <time>2011-03-19T13:14:30.000Z</time>
      </trkpt>
      <trkpt lat="45.3089" lon="1.95567">
        <ele>643</ele>
        <time>2011-03-19T13:14:35.000Z</time>
      </trkpt>
      <trkpt lat="45.3092" lon="1.95562">
        <ele>650</ele>
        <time>2011-03-19T13:14:41.000Z</time>
      </trkpt>
      <trkpt lat="45.3095" lon="1.95545">
        <ele>653</ele>
        <time>2011-03-19T13:14:46.000Z</time>
      </trkpt>
      <trkpt lat="45.3097" lon="1.95533">
        <ele>656</ele>
        <time>2011-03-19T13:14:51.000Z</time>
      </trkpt>
      <trkpt lat="45.31" lon="1.95514">
        <ele>657</ele>
        <time>2011-03-19T13:14:56.000Z</time>
      </trkpt>
      <trkpt lat="45.3103" lon="1.95478">
        <ele>656</ele>
        <time>2011-03-19T13:15:01.000Z</time>
      </trkpt>
      <trkpt lat="45.3105" lon="1.95445">
        <ele>654</ele>
        <time>2011-03-19T13:15:06.000Z</time>
      </trkpt>
      <trkpt lat="45.3107" lon="1.95419">
        <ele>650</ele>
        <time>2011-03-19T13:15:11.000Z</time>
      </trkpt>
      <trkpt lat="45.3109" lon="1.95376">
        <ele>646</ele>
        <time>2011-03-19T13:15:16.000Z</time>
      </trkpt>
      <trkpt lat="45.3111" lon="1.95338">
        <ele>645</ele>
        <time>2011-03-19T13:15:21.000Z</time>
      </trkpt>
      <trkpt lat="45.3113" lon="1.95316">
        <ele>644</ele>
        <time>2011-03-19T13:15:26.000Z</time>
      </trkpt>
      <trkpt lat="45.3117" lon="1.95312">
        <ele>645</ele>
        <time>2011-03-19T13:15:31.000Z</time>
      </trkpt>
      <trkpt lat="45.312" lon="1.95316">
        <ele>644</ele>
        <time>2011-03-19T13:15:37.000Z</time>
      </trkpt>
      <trkpt lat="45.3123" lon="1.95312">
        <ele>646</ele>
        <time>2011-03-19T13:15:42.000Z</time>
      </trkpt>
      <trkpt lat="45.3126" lon="1.95303">
        <ele>645</ele>
        <time>2011-03-19T13:15:47.000Z</time>
      </trkpt>
      <trkpt lat="45.3129" lon="1.95289">
        <ele>645</ele>
        <time>2011-03-19T13:15:52.000Z</time>
      </trkpt>
      <trkpt lat="45.3131" lon="1.9528">
        <ele>644</ele>
        <time>2011-03-19T13:15:57.000Z</time>
      </trkpt>
      <trkpt lat="45.3133" lon="1.95279">
        <ele>645</ele>
        <time>2011-03-19T13:16:02.000Z</time>
      </trkpt>
      <trkpt lat="45.3135" lon="1.95258">
        <ele>649</ele>
        <time>2011-03-19T13:16:07.000Z</time>
      </trkpt>
      <trkpt lat="45.3138" lon="1.95243">
        <ele>656</ele>
        <time>2011-03-19T13:16:13.000Z</time>
      </trkpt>
      <trkpt lat="45.314" lon="1.95231">
        <ele>660</ele>
        <time>2011-03-19T13:16:18.000Z</time>
      </trkpt>
      <trkpt lat="45.3142" lon="1.95215">
        <ele>660</ele>
        <time>2011-03-19T13:16:23.000Z</time>
      </trkpt>
      <trkpt lat="45.3148" lon="1.95196">
        <ele>645</ele>
        <time>2011-03-19T13:16:29.000Z</time>
      </trkpt>
      <trkpt lat="45.315" lon="1.95207">
        <ele>642</ele>
        <time>2011-03-19T13:16:34.000Z</time>
      </trkpt>
      <trkpt lat="45.3152" lon="1.95208">
        <ele>640</ele>
        <time>2011-03-19T13:16:39.000Z</time>
      </trkpt>
      <trkpt lat="45.3154" lon="1.9524">
        <ele>642</ele>
        <time>2011-03-19T13:16:45.000Z</time>
      </trkpt>
      <trkpt lat="45.3155" lon="1.9526">
        <ele>645</ele>
        <time>2011-03-19T13:16:50.000Z</time>
      </trkpt>
      <trkpt lat="45.3156" lon="1.95274">
        <ele>650</ele>
        <time>2011-03-19T13:16:55.000Z</time>
      </trkpt>
      <trkpt lat="45.3158" lon="1.9528">
        <ele>657</ele>
        <time>2011-03-19T13:17:01.000Z</time>
      </trkpt>
      <trkpt lat="45.3161" lon="1.9529">
        <ele>659</ele>
        <time>2011-03-19T13:17:06.000Z</time>
      </trkpt>
      <trkpt lat="45.3163" lon="1.95288">
        <ele>661</ele>
        <time>2011-03-19T13:17:11.000Z</time>
      </trkpt>
      <trkpt lat="45.3166" lon="1.95284">
        <ele>660</ele>
        <time>2011-03-19T13:17:17.000Z</time>
      </trkpt>
      <trkpt lat="45.3168" lon="1.95294">
        <ele>660</ele>
        <time>2011-03-19T13:17:22.000Z</time>
      </trkpt>
      <trkpt lat="45.317" lon="1.95302">
        <ele>661</ele>
        <time>2011-03-19T13:17:27.000Z</time>
      </trkpt>
      <trkpt lat="45.3172" lon="1.95325">
        <ele>663</ele>
        <time>2011-03-19T13:17:33.000Z</time>
      </trkpt>
      <trkpt lat="45.3174" lon="1.95356">
        <ele>666</ele>
        <time>2011-03-19T13:17:38.000Z</time>
      </trkpt>
      <trkpt lat="45.3176" lon="1.95376">
        <ele>664</ele>
        <time>2011-03-19T13:17:43.000Z</time>
      </trkpt>
      <trkpt lat="45.3178" lon="1.95386">
        <ele>663</ele>
        <time>2011-03-19T13:17:48.000Z</time>
      </trkpt>
      <trkpt lat="45.3179" lon="1.95395">
        <ele>662</ele>
        <time>2011-03-19T13:17:53.000Z</time>
      </trkpt>
      <trkpt lat="45.3181" lon="1.954">
        <ele>661</ele>
        <time>2011-03-19T13:17:58.000Z</time>
      </trkpt>
      <trkpt lat="45.3184" lon="1.95405">
        <ele>663</ele>
        <time>2011-03-19T13:18:03.000Z</time>
      </trkpt>
      <trkpt lat="45.3185" lon="1.95406">
        <ele>664</ele>
        <time>2011-03-19T13:18:08.000Z</time>
      </trkpt>
      <trkpt lat="45.3187" lon="1.95406">
        <ele>665</ele>
        <time>2011-03-19T13:18:13.000Z</time>
      </trkpt>
      <trkpt lat="45.3189" lon="1.9541">
        <ele>666</ele>
        <time>2011-03-19T13:18:18.000Z</time>
      </trkpt>
      <trkpt lat="45.3192" lon="1.95427">
        <ele>673</ele>
        <time>2011-03-19T13:18:24.000Z</time>
      </trkpt>
      <trkpt lat="45.3194" lon="1.95436">
        <ele>678</ele>
        <time>2011-03-19T13:18:29.000Z</time>
      </trkpt>
      <trkpt lat="45.3196" lon="1.95432">
        <ele>679</ele>
        <time>2011-03-19T13:18:34.000Z</time>
      </trkpt>
      <trkpt lat="45.32" lon="1.95447">
        <ele>683</ele>
        <time>2011-03-19T13:18:40.000Z</time>
      </trkpt>
      <trkpt lat="45.3203" lon="1.95449">
        <ele>684</ele>
        <time>2011-03-19T13:18:45.000Z</time>
      </trkpt>
      <trkpt lat="45.3206" lon="1.95444">
        <ele>682</ele>
        <time>2011-03-19T13:18:50.000Z</time>
      </trkpt>
      <trkpt lat="45.3209" lon="1.95446">
        <ele>677</ele>
        <time>2011-03-19T13:18:56.000Z</time>
      </trkpt>
      <trkpt lat="45.3212" lon="1.95456">
        <ele>679</ele>
        <time>2011-03-19T13:19:01.000Z</time>
      </trkpt>
      <trkpt lat="45.3214" lon="1.95469">
        <ele>683</ele>
        <time>2011-03-19T13:19:06.000Z</time>
      </trkpt>
      <trkpt lat="45.3216" lon="1.95466">
        <ele>687</ele>
        <time>2011-03-19T13:19:12.000Z</time>
      </trkpt>
      <trkpt lat="45.3218" lon="1.95458">
        <ele>690</ele>
        <time>2011-03-19T13:19:17.000Z</time>
      </trkpt>
      <trkpt lat="45.322" lon="1.95456">
        <ele>692</ele>
        <time>2011-03-19T13:19:22.000Z</time>
      </trkpt>
      <trkpt lat="45.3223" lon="1.95447">
        <ele>694</ele>
        <time>2011-03-19T13:19:28.000Z</time>
      </trkpt>
      <trkpt lat="45.3225" lon="1.95446">
        <ele>699</ele>
        <time>2011-03-19T13:19:33.000Z</time>
      </trkpt>
      <trkpt lat="45.3228" lon="1.95442">
        <ele>703</ele>
        <time>2011-03-19T13:19:38.000Z</time>
      </trkpt>
      <trkpt lat="45.3233" lon="1.95449">
        <ele>691</ele>
        <time>2011-03-19T13:19:44.000Z</time>
      </trkpt>
      <trkpt lat="45.3236" lon="1.95455">
        <ele>692</ele>
        <time>2011-03-19T13:19:49.000Z</time>
      </trkpt>
      <trkpt lat="45.3237" lon="1.95454">
        <ele>696</ele>
        <time>2011-03-19T13:19:54.000Z</time>
      </trkpt>
      <trkpt lat="45.324" lon="1.95457">
        <ele>693</ele>
        <time>2011-03-19T13:20:00.000Z</time>
      </trkpt>
      <trkpt lat="45.3243" lon="1.95459">
        <ele>696</ele>
        <time>2011-03-19T13:20:05.000Z</time>
      </trkpt>
      <trkpt lat="45.3245" lon="1.95457">
        <ele>697</ele>
        <time>2011-03-19T13:20:10.000Z</time>
      </trkpt>
      <trkpt lat="45.3248" lon="1.95457">
        <ele>699</ele>
        <time>2011-03-19T13:20:16.000Z</time>
      </trkpt>
      <trkpt lat="45.3251" lon="1.95461">
        <ele>699</ele>
        <time>2011-03-19T13:20:21.000Z</time>
      </trkpt>
      <trkpt lat="45.3253" lon="1.9546">
        <ele>698</ele>
        <time>2011-03-19T13:20:26.000Z</time>
      </trkpt>
      <trkpt lat="45.3256" lon="1.9546">
        <ele>701</ele>
        <time>2011-03-19T13:20:32.000Z</time>
      </trkpt>
      <trkpt lat="45.3259" lon="1.95454">
        <ele>699</ele>
        <time>2011-03-19T13:20:37.000Z</time>
      </trkpt>
      <trkpt lat="45.3261" lon="1.95445">
        <ele>704</ele>
        <time>2011-03-19T13:20:42.000Z</time>
      </trkpt>
      <trkpt lat="45.3265" lon="1.95438">
        <ele>708</ele>
        <time>2011-03-19T13:20:48.000Z</time>
      </trkpt>
      <trkpt lat="45.3268" lon="1.95434">
        <ele>709</ele>
        <time>2011-03-19T13:20:53.000Z</time>
      </trkpt>
      <trkpt lat="45.327" lon="1.95427">
        <ele>705</ele>
        <time>2011-03-19T13:20:58.000Z</time>
      </trkpt>
      <trkpt lat="45.3272" lon="1.95408">
        <ele>701</ele>
        <time>2011-03-19T13:21:04.000Z</time>
      </trkpt>
      <trkpt lat="45.3274" lon="1.95393">
        <ele>703</ele>
        <time>2011-03-19T13:21:09.000Z</time>
      </trkpt>
      <trkpt lat="45.3278" lon="1.95392">
        <ele>708</ele>
        <time>2011-03-19T13:21:14.000Z</time>
      </trkpt>
      <trkpt lat="45.3282" lon="1.9538">
        <ele>707</ele>
        <time>2011-03-19T13:21:20.000Z</time>
      </trkpt>
      <trkpt lat="45.3286" lon="1.95363">
        <ele>691</ele>
        <time>2011-03-19T13:21:25.000Z</time>
      </trkpt>
      <trkpt lat="45.3288" lon="1.95329">
        <ele>688</ele>
        <time>2011-03-19T13:21:30.000Z</time>
      </trkpt>
      <trkpt lat="45.329" lon="1.95315">
        <ele>687</ele>
        <time>2011-03-19T13:21:35.000Z</time>
      </trkpt>
      <trkpt lat="45.3293" lon="1.95303">
        <ele>687</ele>
        <time>2011-03-19T13:21:40.000Z</time>
      </trkpt>
      <trkpt lat="45.3296" lon="1.9531">
        <ele>687</ele>
        <time>2011-03-19T13:21:45.000Z</time>
      </trkpt>
      <trkpt lat="45.33" lon="1.95313">
        <ele>685</ele>
        <time>2011-03-19T13:21:50.000Z</time>
      </trkpt>
      <trkpt lat="45.3303" lon="1.95335">
        <ele>684</ele>
        <time>2011-03-19T13:21:55.000Z</time>
      </trkpt>
      <trkpt lat="45.3308" lon="1.95332">
        <ele>684</ele>
        <time>2011-03-19T13:22:01.000Z</time>
      </trkpt>
      <trkpt lat="45.3311" lon="1.95318">
        <ele>684</ele>
        <time>2011-03-19T13:22:06.000Z</time>
      </trkpt>
      <trkpt lat="45.3315" lon="1.95306">
        <ele>684</ele>
        <time>2011-03-19T13:22:11.000Z</time>
      </trkpt>
      <trkpt lat="45.3319" lon="1.9526">
        <ele>673</ele>
        <time>2011-03-19T13:22:17.000Z</time>
      </trkpt>
      <trkpt lat="45.3321" lon="1.95209">
        <ele>664</ele>
        <time>2011-03-19T13:22:22.000Z</time>
      </trkpt>
      <trkpt lat="45.3322" lon="1.95161">
        <ele>660</ele>
        <time>2011-03-19T13:22:27.000Z</time>
      </trkpt>
      <trkpt lat="45.3327" lon="1.95149">
        <ele>664</ele>
        <time>2011-03-19T13:22:33.000Z</time>
      </trkpt>
      <trkpt lat="45.3331" lon="1.95148">
        <ele>665</ele>
        <time>2011-03-19T13:22:38.000Z</time>
      </trkpt>
      <trkpt lat="45.3335" lon="1.95102">
        <ele>665</ele>
        <time>2011-03-19T13:22:43.000Z</time>
      </trkpt>
      <trkpt lat="45.3338" lon="1.95028">
        <ele>662</ele>
        <time>2011-03-19T13:22:49.000Z</time>
      </trkpt>
      <trkpt lat="45.3341" lon="1.94956">
        <ele>659</ele>
        <time>2011-03-19T13:22:54.000Z</time>
      </trkpt>
      <trkpt lat="45.3344" lon="1.94901">
        <ele>656</ele>
        <time>2011-03-19T13:22:59.000Z</time>
      </trkpt>
      <trkpt lat="45.3348" lon="1.94834">
        <ele>655</ele>
        <time>2011-03-19T13:23:05.000Z</time>
      </trkpt>
      <trkpt lat="45.3351" lon="1.94813">
        <ele>640</ele>
        <time>2011-03-19T13:23:10.000Z</time>
      </trkpt>
      <trkpt lat="45.3352" lon="1.94771">
        <ele>634</ele>
        <time>2011-03-19T13:23:15.000Z</time>
      </trkpt>
      <trkpt lat="45.3347" lon="1.94758">
        <ele>633</ele>
        <time>2011-03-19T13:23:21.000Z</time>
      </trkpt>
      <trkpt lat="45.3346" lon="1.94737">
        <ele>631</ele>
        <time>2011-03-19T13:23:26.000Z</time>
      </trkpt>
      <trkpt lat="45.3346" lon="1.94716">
        <ele>630</ele>
        <time>2011-03-19T13:23:31.000Z</time>
      </trkpt>
      <trkpt lat="45.3347" lon="1.94682">
        <ele>629</ele>
        <time>2011-03-19T13:23:37.000Z</time>
      </trkpt>
      <trkpt lat="45.3347" lon="1.94658">
        <ele>628</ele>
        <time>2011-03-19T13:23:42.000Z</time>
      </trkpt>
      <trkpt lat="45.3347" lon="1.94634">
        <ele>628</ele>
        <time>2011-03-19T13:23:47.000Z</time>
      </trkpt>
      <trkpt lat="45.3348" lon="1.94604">
        <ele>629</ele>
        <time>2011-03-19T13:23:53.000Z</time>
      </trkpt>
      <trkpt lat="45.3348" lon="1.94576">
        <ele>631</ele>
        <time>2011-03-19T13:23:58.000Z</time>
      </trkpt>
      <trkpt lat="45.3349" lon="1.94534">
        <ele>633</ele>
        <time>2011-03-19T13:24:03.000Z</time>
      </trkpt>
      <trkpt lat="45.3351" lon="1.94493">
        <ele>632</ele>
        <time>2011-03-19T13:24:09.000Z</time>
      </trkpt>
      <trkpt lat="45.3352" lon="1.94452">
        <ele>629</ele>
        <time>2011-03-19T13:24:14.000Z</time>
      </trkpt>
      <trkpt lat="45.3354" lon="1.94408">
        <ele>626</ele>
        <time>2011-03-19T13:24:19.000Z</time>
      </trkpt>
      <trkpt lat="45.3355" lon="1.94349">
        <ele>624</ele>
        <time>2011-03-19T13:24:25.000Z</time>
      </trkpt>
      <trkpt lat="45.3357" lon="1.94292">
        <ele>619</ele>
        <time>2011-03-19T13:24:30.000Z</time>
      </trkpt>
      <trkpt lat="45.3358" lon="1.94227">
        <ele>617</ele>
        <time>2011-03-19T13:24:35.000Z</time>
      </trkpt>
      <trkpt lat="45.3357" lon="1.94157">
        <ele>614</ele>
        <time>2011-03-19T13:24:41.000Z</time>
      </trkpt>
      <trkpt lat="45.3355" lon="1.94113">
        <ele>612</ele>
        <time>2011-03-19T13:24:46.000Z</time>
      </trkpt>
      <trkpt lat="45.3352" lon="1.94078">
        <ele>613</ele>
        <time>2011-03-19T13:24:51.000Z</time>
      </trkpt>
      <trkpt lat="45.3353" lon="1.94025">
        <ele>613</ele>
        <time>2011-03-19T13:24:57.000Z</time>
      </trkpt>
      <trkpt lat="45.3354" lon="1.93985">
        <ele>612</ele>
        <time>2011-03-19T13:25:02.000Z</time>
      </trkpt>
      <trkpt lat="45.3356" lon="1.93947">
        <ele>612</ele>
        <time>2011-03-19T13:25:07.000Z</time>
      </trkpt>
      <trkpt lat="45.3357" lon="1.93909">
        <ele>613</ele>
        <time>2011-03-19T13:25:13.000Z</time>
      </trkpt>
      <trkpt lat="45.336" lon="1.93872">
        <ele>613</ele>
        <time>2011-03-19T13:25:18.000Z</time>
      </trkpt>
      <trkpt lat="45.3361" lon="1.93825">
        <ele>612</ele>
        <time>2011-03-19T13:25:23.000Z</time>
      </trkpt>
      <trkpt lat="45.3362" lon="1.93756">
        <ele>611</ele>
        <time>2011-03-19T13:25:29.000Z</time>
      </trkpt>
      <trkpt lat="45.3363" lon="1.93701">
        <ele>611</ele>
        <time>2011-03-19T13:25:34.000Z</time>
      </trkpt>
      <trkpt lat="45.3366" lon="1.9366">
        <ele>611</ele>
        <time>2011-03-19T13:25:39.000Z</time>
      </trkpt>
      <trkpt lat="45.3371" lon="1.9363">
        <ele>613</ele>
        <time>2011-03-19T13:25:45.000Z</time>
      </trkpt>
      <trkpt lat="45.3375" lon="1.93565">
        <ele>615</ele>
        <time>2011-03-19T13:25:50.000Z</time>
      </trkpt>
      <trkpt lat="45.3379" lon="1.93518">
        <ele>613</ele>
        <time>2011-03-19T13:25:55.000Z</time>
      </trkpt>
      <trkpt lat="45.3382" lon="1.93471">
        <ele>615</ele>
        <time>2011-03-19T13:26:01.000Z</time>
      </trkpt>
      <trkpt lat="45.3384" lon="1.93443">
        <ele>611</ele>
        <time>2011-03-19T13:26:06.000Z</time>
      </trkpt>
      <trkpt lat="45.3386" lon="1.93409">
        <ele>609</ele>
        <time>2011-03-19T13:26:11.000Z</time>
      </trkpt>
      <trkpt lat="45.3388" lon="1.93379">
        <ele>608</ele>
        <time>2011-03-19T13:26:17.000Z</time>
      </trkpt>
      <trkpt lat="45.3389" lon="1.93342">
        <ele>606</ele>
        <time>2011-03-19T13:26:22.000Z</time>
      </trkpt>
      <trkpt lat="45.3389" lon="1.93306">
        <ele>604</ele>
        <time>2011-03-19T13:26:27.000Z</time>
      </trkpt>
      <trkpt lat="45.339" lon="1.93266">
        <ele>604</ele>
        <time>2011-03-19T13:26:33.000Z</time>
      </trkpt>
      <trkpt lat="45.3391" lon="1.93237">
        <ele>603</ele>
        <time>2011-03-19T13:26:38.000Z</time>
      </trkpt>
      <trkpt lat="45.3392" lon="1.93224">
        <ele>604</ele>
        <time>2011-03-19T13:26:43.000Z</time>
      </trkpt>
      <trkpt lat="45.3394" lon="1.93218">
        <ele>607</ele>
        <time>2011-03-19T13:26:49.000Z</time>
      </trkpt>
      <trkpt lat="45.3396" lon="1.932">
        <ele>608</ele>
        <time>2011-03-19T13:26:54.000Z</time>
      </trkpt>
      <trkpt lat="45.3398" lon="1.93181">
        <ele>610</ele>
        <time>2011-03-19T13:26:59.000Z</time>
      </trkpt>
      <trkpt lat="45.3401" lon="1.93153">
        <ele>613</ele>
        <time>2011-03-19T13:27:05.000Z</time>
      </trkpt>
      <trkpt lat="45.3403" lon="1.93128">
        <ele>613</ele>
        <time>2011-03-19T13:27:10.000Z</time>
      </trkpt>
      <trkpt lat="45.3405" lon="1.93106">
        <ele>614</ele>
        <time>2011-03-19T13:27:15.000Z</time>
      </trkpt>
      <trkpt lat="45.3408" lon="1.93084">
        <ele>615</ele>
        <time>2011-03-19T13:27:21.000Z</time>
      </trkpt>
      <trkpt lat="45.341" lon="1.93066">
        <ele>617</ele>
        <time>2011-03-19T13:27:26.000Z</time>
      </trkpt>
      <trkpt lat="45.3411" lon="1.93058">
        <ele>618</ele>
        <time>2011-03-19T13:27:31.000Z</time>
      </trkpt>
      <trkpt lat="45.3411" lon="1.93059">
        <ele>617</ele>
        <time>2011-03-19T13:27:37.000Z</time>
      </trkpt>
      <trkpt lat="45.3411" lon="1.93059">
        <ele>616</ele>
        <time>2011-03-19T13:27:42.000Z</time>
      </trkpt>
      <trkpt lat="45.3412" lon="1.93051">
        <ele>615</ele>
        <time>2011-03-19T13:27:47.000Z</time>
      </trkpt>
      <trkpt lat="45.3414" lon="1.9303">
        <ele>611</ele>
        <time>2011-03-19T13:27:53.000Z</time>
      </trkpt>
      <trkpt lat="45.3415" lon="1.93007">
        <ele>610</ele>
        <time>2011-03-19T13:27:58.000Z</time>
      </trkpt>
      <trkpt lat="45.3416" lon="1.92988">
        <ele>611</ele>
        <time>2011-03-19T13:28:03.000Z</time>
      </trkpt>
      <trkpt lat="45.3419" lon="1.92966">
        <ele>612</ele>
        <time>2011-03-19T13:28:09.000Z</time>
      </trkpt>
      <trkpt lat="45.3421" lon="1.92947">
        <ele>613</ele>
        <time>2011-03-19T13:28:14.000Z</time>
      </trkpt>
      <trkpt lat="45.3423" lon="1.92931">
        <ele>615</ele>
        <time>2011-03-19T13:28:19.000Z</time>
      </trkpt>
      <trkpt lat="45.3426" lon="1.9293">
        <ele>620</ele>
        <time>2011-03-19T13:28:25.000Z</time>
      </trkpt>
      <trkpt lat="45.3428" lon="1.92927">
        <ele>625</ele>
        <time>2011-03-19T13:28:30.000Z</time>
      </trkpt>
      <trkpt lat="45.343" lon="1.92927">
        <ele>631</ele>
        <time>2011-03-19T13:28:35.000Z</time>
      </trkpt>
      <trkpt lat="45.3432" lon="1.92939">
        <ele>634</ele>
        <time>2011-03-19T13:28:41.000Z</time>
      </trkpt>
      <trkpt lat="45.3434" lon="1.92937">
        <ele>636</ele>
        <time>2011-03-19T13:28:46.000Z</time>
      </trkpt>
      <trkpt lat="45.3436" lon="1.92933">
        <ele>641</ele>
        <time>2011-03-19T13:28:51.000Z</time>
      </trkpt>
      <trkpt lat="45.3439" lon="1.92923">
        <ele>646</ele>
        <time>2011-03-19T13:28:57.000Z</time>
      </trkpt>
      <trkpt lat="45.3441" lon="1.92914">
        <ele>650</ele>
        <time>2011-03-19T13:29:02.000Z</time>
      </trkpt>
      <trkpt lat="45.3443" lon="1.92906">
        <ele>652</ele>
        <time>2011-03-19T13:29:07.000Z</time>
      </trkpt>
      <trkpt lat="45.3446" lon="1.9288">
        <ele>651</ele>
        <time>2011-03-19T13:29:13.000Z</time>
      </trkpt>
      <trkpt lat="45.3448" lon="1.92856">
        <ele>652</ele>
        <time>2011-03-19T13:29:18.000Z</time>
      </trkpt>
      <trkpt lat="45.345" lon="1.92854">
        <ele>657</ele>
        <time>2011-03-19T13:29:23.000Z</time>
      </trkpt>
      <trkpt lat="45.3453" lon="1.92855">
        <ele>663</ele>
        <time>2011-03-19T13:29:29.000Z</time>
      </trkpt>
      <trkpt lat="45.3455" lon="1.92854">
        <ele>668</ele>
        <time>2011-03-19T13:29:34.000Z</time>
      </trkpt>
      <trkpt lat="45.3457" lon="1.92859">
        <ele>670</ele>
        <time>2011-03-19T13:29:39.000Z</time>
      </trkpt>
      <trkpt lat="45.346" lon="1.92844">
        <ele>671</ele>
        <time>2011-03-19T13:29:45.000Z</time>
      </trkpt>
      <trkpt lat="45.3463" lon="1.9283">
        <ele>674</ele>
        <time>2011-03-19T13:29:50.000Z</time>
      </trkpt>
      <trkpt lat="45.3466" lon="1.92823">
        <ele>675</ele>
        <time>2011-03-19T13:29:55.000Z</time>
      </trkpt>
      <trkpt lat="45.3469" lon="1.92821">
        <ele>678</ele>
        <time>2011-03-19T13:30:01.000Z</time>
      </trkpt>
      <trkpt lat="45.3472" lon="1.92833">
        <ele>679</ele>
        <time>2011-03-19T13:30:06.000Z</time>
      </trkpt>
      <trkpt lat="45.3475" lon="1.92845">
        <ele>677</ele>
        <time>2011-03-19T13:30:11.000Z</time>
      </trkpt>
      <trkpt lat="45.3478" lon="1.92857">
        <ele>674</ele>
        <time>2011-03-19T13:30:17.000Z</time>
      </trkpt>
      <trkpt lat="45.3481" lon="1.92866">
        <ele>673</ele>
        <time>2011-03-19T13:30:22.000Z</time>
      </trkpt>
      <trkpt lat="45.3483" lon="1.92881">
        <ele>670</ele>
        <time>2011-03-19T13:30:27.000Z</time>
      </trkpt>
      <trkpt lat="45.3485" lon="1.92908">
        <ele>672</ele>
        <time>2011-03-19T13:30:33.000Z</time>
      </trkpt>
      <trkpt lat="45.3487" lon="1.92926">
        <ele>672</ele>
        <time>2011-03-19T13:30:38.000Z</time>
      </trkpt>
      <trkpt lat="45.349" lon="1.92944">
        <ele>668</ele>
        <time>2011-03-19T13:30:43.000Z</time>
      </trkpt>
      <trkpt lat="45.3493" lon="1.92953">
        <ele>662</ele>
        <time>2011-03-19T13:30:49.000Z</time>
      </trkpt>
      <trkpt lat="45.3495" lon="1.92969">
        <ele>660</ele>
        <time>2011-03-19T13:30:54.000Z</time>
      </trkpt>
      <trkpt lat="45.3497" lon="1.92989">
        <ele>656</ele>
        <time>2011-03-19T13:30:59.000Z</time>
      </trkpt>
      <trkpt lat="45.3499" lon="1.93003">
        <ele>656</ele>
        <time>2011-03-19T13:31:05.000Z</time>
      </trkpt>
      <trkpt lat="45.35" lon="1.93011">
        <ele>657</ele>
        <time>2011-03-19T13:31:10.000Z</time>
      </trkpt>
      <trkpt lat="45.3502" lon="1.93014">
        <ele>657</ele>
        <time>2011-03-19T13:31:15.000Z</time>
      </trkpt>
      <trkpt lat="45.3503" lon="1.93014">
        <ele>658</ele>
        <time>2011-03-19T13:31:21.000Z</time>
      </trkpt>
      <trkpt lat="45.3505" lon="1.93018">
        <ele>657</ele>
        <time>2011-03-19T13:31:26.000Z</time>
      </trkpt>
      <trkpt lat="45.3507" lon="1.93029">
        <ele>658</ele>
        <time>2011-03-19T13:31:31.000Z</time>
      </trkpt>
      <trkpt lat="45.3509" lon="1.93038">
        <ele>658</ele>
        <time>2011-03-19T13:31:37.000Z</time>
      </trkpt>
      <trkpt lat="45.3511" lon="1.93047">
        <ele>660</ele>
        <time>2011-03-19T13:31:42.000Z</time>
      </trkpt>
      <trkpt lat="45.3513" lon="1.93057">
        <ele>661</ele>
        <time>2011-03-19T13:31:47.000Z</time>
      </trkpt>
      <trkpt lat="45.3516" lon="1.93065">
        <ele>661</ele>
        <time>2011-03-19T13:31:53.000Z</time>
      </trkpt>
      <trkpt lat="45.3519" lon="1.93068">
        <ele>660</ele>
        <time>2011-03-19T13:31:58.000Z</time>
      </trkpt>
      <trkpt lat="45.3522" lon="1.93066">
        <ele>660</ele>
        <time>2011-03-19T13:32:03.000Z</time>
      </trkpt>
      <trkpt lat="45.3525" lon="1.93053">
        <ele>663</ele>
        <time>2011-03-19T13:32:09.000Z</time>
      </trkpt>
      <trkpt lat="45.3527" lon="1.93037">
        <ele>665</ele>
        <time>2011-03-19T13:32:14.000Z</time>
      </trkpt>
      <trkpt lat="45.3529" lon="1.93027">
        <ele>667</ele>
        <time>2011-03-19T13:32:19.000Z</time>
      </trkpt>
      <trkpt lat="45.3533" lon="1.92987">
        <ele>660</ele>
        <time>2011-03-19T13:32:25.000Z</time>
      </trkpt>
      <trkpt lat="45.3535" lon="1.92945">
        <ele>658</ele>
        <time>2011-03-19T13:32:30.000Z</time>
      </trkpt>
      <trkpt lat="45.3538" lon="1.92901">
        <ele>658</ele>
        <time>2011-03-19T13:32:35.000Z</time>
      </trkpt>
      <trkpt lat="45.3541" lon="1.92853">
        <ele>658</ele>
        <time>2011-03-19T13:32:41.000Z</time>
      </trkpt>
      <trkpt lat="45.3543" lon="1.9281">
        <ele>660</ele>
        <time>2011-03-19T13:32:46.000Z</time>
      </trkpt>
      <trkpt lat="45.3546" lon="1.92756">
        <ele>659</ele>
        <time>2011-03-19T13:32:51.000Z</time>
      </trkpt>
      <trkpt lat="45.3549" lon="1.92707">
        <ele>650</ele>
        <time>2011-03-19T13:32:57.000Z</time>
      </trkpt>
      <trkpt lat="45.3551" lon="1.92681">
        <ele>649</ele>
        <time>2011-03-19T13:33:02.000Z</time>
      </trkpt>
      <trkpt lat="45.3553" lon="1.92672">
        <ele>651</ele>
        <time>2011-03-19T13:33:07.000Z</time>
      </trkpt>
      <trkpt lat="45.3555" lon="1.92666">
        <ele>651</ele>
        <time>2011-03-19T13:33:13.000Z</time>
      </trkpt>
      <trkpt lat="45.3557" lon="1.92658">
        <ele>652</ele>
        <time>2011-03-19T13:33:18.000Z</time>
      </trkpt>
      <trkpt lat="45.3559" lon="1.92652">
        <ele>653</ele>
        <time>2011-03-19T13:33:23.000Z</time>
      </trkpt>
      <trkpt lat="45.3561" lon="1.92658">
        <ele>654</ele>
        <time>2011-03-19T13:33:30.000Z</time>
      </trkpt>
      <trkpt lat="45.3564" lon="1.92664">
        <ele>655</ele>
        <time>2011-03-19T13:33:35.000Z</time>
      </trkpt>
      <trkpt lat="45.3566" lon="1.92671">
        <ele>656</ele>
        <time>2011-03-19T13:33:41.000Z</time>
      </trkpt>
      <trkpt lat="45.3567" lon="1.92671">
        <ele>658</ele>
        <time>2011-03-19T13:33:46.000Z</time>
      </trkpt>
      <trkpt lat="45.3569" lon="1.92675">
        <ele>661</ele>
        <time>2011-03-19T13:33:51.000Z</time>
      </trkpt>
      <trkpt lat="45.3571" lon="1.92674">
        <ele>664</ele>
        <time>2011-03-19T13:33:57.000Z</time>
      </trkpt>
      <trkpt lat="45.3572" lon="1.92673">
        <ele>668</ele>
        <time>2011-03-19T13:34:02.000Z</time>
      </trkpt>
      <trkpt lat="45.3574" lon="1.92675">
        <ele>674</ele>
        <time>2011-03-19T13:34:07.000Z</time>
      </trkpt>
      <trkpt lat="45.3576" lon="1.92682">
        <ele>675</ele>
        <time>2011-03-19T13:34:13.000Z</time>
      </trkpt>
      <trkpt lat="45.3578" lon="1.92681">
        <ele>675</ele>
        <time>2011-03-19T13:34:18.000Z</time>
      </trkpt>
      <trkpt lat="45.3579" lon="1.92683">
        <ele>678</ele>
        <time>2011-03-19T13:34:23.000Z</time>
      </trkpt>
      <trkpt lat="45.3581" lon="1.92685">
        <ele>680</ele>
        <time>2011-03-19T13:34:29.000Z</time>
      </trkpt>
      <trkpt lat="45.3582" lon="1.92699">
        <ele>682</ele>
        <time>2011-03-19T13:34:34.000Z</time>
      </trkpt>
      <trkpt lat="45.3585" lon="1.92709">
        <ele>680</ele>
        <time>2011-03-19T13:34:39.000Z</time>
      </trkpt>
      <trkpt lat="45.3587" lon="1.92713">
        <ele>682</ele>
        <time>2011-03-19T13:34:45.000Z</time>
      </trkpt>
      <trkpt lat="45.3588" lon="1.92715">
        <ele>683</ele>
        <time>2011-03-19T13:34:50.000Z</time>
      </trkpt>
      <trkpt lat="45.359" lon="1.92712">
        <ele>684</ele>
        <time>2011-03-19T13:34:55.000Z</time>
      </trkpt>
      <trkpt lat="45.3593" lon="1.92703">
        <ele>688</ele>
        <time>2011-03-19T13:35:01.000Z</time>
      </trkpt>
      <trkpt lat="45.3595" lon="1.92699">
        <ele>687</ele>
        <time>2011-03-19T13:35:06.000Z</time>
      </trkpt>
      <trkpt lat="45.3598" lon="1.92698">
        <ele>681</ele>
        <time>2011-03-19T13:35:11.000Z</time>
      </trkpt>
      <trkpt lat="45.36" lon="1.92703">
        <ele>680</ele>
        <time>2011-03-19T13:35:17.000Z</time>
      </trkpt>
      <trkpt lat="45.3603" lon="1.92704">
        <ele>680</ele>
        <time>2011-03-19T13:35:22.000Z</time>
      </trkpt>
      <trkpt lat="45.3605" lon="1.92709">
        <ele>681</ele>
        <time>2011-03-19T13:35:27.000Z</time>
      </trkpt>
      <trkpt lat="45.3607" lon="1.92714">
        <ele>680</ele>
        <time>2011-03-19T13:35:33.000Z</time>
      </trkpt>
      <trkpt lat="45.3609" lon="1.92715">
        <ele>683</ele>
        <time>2011-03-19T13:35:38.000Z</time>
      </trkpt>
      <trkpt lat="45.361" lon="1.92723">
        <ele>686</ele>
        <time>2011-03-19T13:35:43.000Z</time>
      </trkpt>
      <trkpt lat="45.3613" lon="1.92725">
        <ele>687</ele>
        <time>2011-03-19T13:35:49.000Z</time>
      </trkpt>
      <trkpt lat="45.3615" lon="1.92736">
        <ele>691</ele>
        <time>2011-03-19T13:35:54.000Z</time>
      </trkpt>
      <trkpt lat="45.3617" lon="1.92741">
        <ele>692</ele>
        <time>2011-03-19T13:35:59.000Z</time>
      </trkpt>
      <trkpt lat="45.3619" lon="1.92747">
        <ele>698</ele>
        <time>2011-03-19T13:36:05.000Z</time>
      </trkpt>
      <trkpt lat="45.3621" lon="1.92752">
        <ele>701</ele>
        <time>2011-03-19T13:36:10.000Z</time>
      </trkpt>
      <trkpt lat="45.3624" lon="1.92756">
        <ele>701</ele>
        <time>2011-03-19T13:36:15.000Z</time>
      </trkpt>
      <trkpt lat="45.3626" lon="1.92764">
        <ele>702</ele>
        <time>2011-03-19T13:36:21.000Z</time>
      </trkpt>
      <trkpt lat="45.3631" lon="1.92767">
        <ele>702</ele>
        <time>2011-03-19T13:36:26.000Z</time>
      </trkpt>
      <trkpt lat="45.3636" lon="1.92763">
        <ele>698</ele>
        <time>2011-03-19T13:36:31.000Z</time>
      </trkpt>
      <trkpt lat="45.364" lon="1.92773">
        <ele>691</ele>
        <time>2011-03-19T13:36:37.000Z</time>
      </trkpt>
      <trkpt lat="45.3642" lon="1.92799">
        <ele>684</ele>
        <time>2011-03-19T13:36:42.000Z</time>
      </trkpt>
      <trkpt lat="45.3644" lon="1.92827">
        <ele>683</ele>
        <time>2011-03-19T13:36:47.000Z</time>
      </trkpt>
      <trkpt lat="45.3645" lon="1.92862">
        <ele>681</ele>
        <time>2011-03-19T13:36:53.000Z</time>
      </trkpt>
      <trkpt lat="45.3646" lon="1.92886">
        <ele>677</ele>
        <time>2011-03-19T13:36:58.000Z</time>
      </trkpt>
      <trkpt lat="45.3648" lon="1.92905">
        <ele>677</ele>
        <time>2011-03-19T13:37:03.000Z</time>
      </trkpt>
      <trkpt lat="45.3649" lon="1.92924">
        <ele>676</ele>
        <time>2011-03-19T13:37:09.000Z</time>
      </trkpt>
      <trkpt lat="45.365" lon="1.92941">
        <ele>677</ele>
        <time>2011-03-19T13:37:14.000Z</time>
      </trkpt>
      <trkpt lat="45.3652" lon="1.92938">
        <ele>683</ele>
        <time>2011-03-19T13:37:19.000Z</time>
      </trkpt>
      <trkpt lat="45.3655" lon="1.92951">
        <ele>687</ele>
        <time>2011-03-19T13:37:25.000Z</time>
      </trkpt>
      <trkpt lat="45.3657" lon="1.92968">
        <ele>691</ele>
        <time>2011-03-19T13:37:30.000Z</time>
      </trkpt>
      <trkpt lat="45.366" lon="1.92985">
        <ele>692</ele>
        <time>2011-03-19T13:37:35.000Z</time>
      </trkpt>
      <trkpt lat="45.3664" lon="1.93004">
        <ele>693</ele>
        <time>2011-03-19T13:37:41.000Z</time>
      </trkpt>
      <trkpt lat="45.3669" lon="1.93019">
        <ele>693</ele>
        <time>2011-03-19T13:37:46.000Z</time>
      </trkpt>
      <trkpt lat="45.3673" lon="1.93062">
        <ele>687</ele>
        <time>2011-03-19T13:37:51.000Z</time>
      </trkpt>
      <trkpt lat="45.3678" lon="1.93067">
        <ele>684</ele>
        <time>2011-03-19T13:37:57.000Z</time>
      </trkpt>
      <trkpt lat="45.3681" lon="1.93054">
        <ele>683</ele>
        <time>2011-03-19T13:38:02.000Z</time>
      </trkpt>
      <trkpt lat="45.3686" lon="1.93072">
        <ele>681</ele>
        <time>2011-03-19T13:38:07.000Z</time>
      </trkpt>
      <trkpt lat="45.3689" lon="1.93117">
        <ele>677</ele>
        <time>2011-03-19T13:38:13.000Z</time>
      </trkpt>
      <trkpt lat="45.3692" lon="1.93142">
        <ele>678</ele>
        <time>2011-03-19T13:38:18.000Z</time>
      </trkpt>
      <trkpt lat="45.3696" lon="1.93149">
        <ele>676</ele>
        <time>2011-03-19T13:38:23.000Z</time>
      </trkpt>
      <trkpt lat="45.3699" lon="1.9316">
        <ele>675</ele>
        <time>2011-03-19T13:38:29.000Z</time>
      </trkpt>
      <trkpt lat="45.3701" lon="1.93172">
        <ele>677</ele>
        <time>2011-03-19T13:38:34.000Z</time>
      </trkpt>
      <trkpt lat="45.3704" lon="1.93185">
        <ele>679</ele>
        <time>2011-03-19T13:38:39.000Z</time>
      </trkpt>
      <trkpt lat="45.3707" lon="1.93205">
        <ele>676</ele>
        <time>2011-03-19T13:38:45.000Z</time>
      </trkpt>
      <trkpt lat="45.3709" lon="1.93217">
        <ele>660</ele>
        <time>2011-03-19T13:38:50.000Z</time>
      </trkpt>
      <trkpt lat="45.3711" lon="1.93242">
        <ele>653</ele>
        <time>2011-03-19T13:38:55.000Z</time>
      </trkpt>
      <trkpt lat="45.3713" lon="1.93271">
        <ele>651</ele>
        <time>2011-03-19T13:39:01.000Z</time>
      </trkpt>
      <trkpt lat="45.3714" lon="1.93293">
        <ele>651</ele>
        <time>2011-03-19T13:39:06.000Z</time>
      </trkpt>
      <trkpt lat="45.3716" lon="1.93315">
        <ele>650</ele>
        <time>2011-03-19T13:39:11.000Z</time>
      </trkpt>
      <trkpt lat="45.3717" lon="1.93345">
        <ele>650</ele>
        <time>2011-03-19T13:39:17.000Z</time>
      </trkpt>
      <trkpt lat="45.3718" lon="1.93367">
        <ele>647</ele>
        <time>2011-03-19T13:39:22.000Z</time>
      </trkpt>
      <trkpt lat="45.3719" lon="1.93388">
        <ele>649</ele>
        <time>2011-03-19T13:39:27.000Z</time>
      </trkpt>
      <trkpt lat="45.3721" lon="1.93411">
        <ele>650</ele>
        <time>2011-03-19T13:39:33.000Z</time>
      </trkpt>
      <trkpt lat="45.3722" lon="1.93432">
        <ele>650</ele>
        <time>2011-03-19T13:39:38.000Z</time>
      </trkpt>
      <trkpt lat="45.3723" lon="1.93457">
        <ele>650</ele>
        <time>2011-03-19T13:39:43.000Z</time>
      </trkpt>
      <trkpt lat="45.3724" lon="1.93478">
        <ele>652</ele>
        <time>2011-03-19T13:39:49.000Z</time>
      </trkpt>
      <trkpt lat="45.3725" lon="1.93489">
        <ele>654</ele>
        <time>2011-03-19T13:39:54.000Z</time>
      </trkpt>
      <trkpt lat="45.3726" lon="1.93495">
        <ele>656</ele>
        <time>2011-03-19T13:39:59.000Z</time>
      </trkpt>
      <trkpt lat="45.3728" lon="1.93509">
        <ele>658</ele>
        <time>2011-03-19T13:40:04.000Z</time>
      </trkpt>
      <trkpt lat="45.373" lon="1.93519">
        <ele>663</ele>
        <time>2011-03-19T13:40:10.000Z</time>
      </trkpt>
      <trkpt lat="45.3732" lon="1.93527">
        <ele>669</ele>
        <time>2011-03-19T13:40:15.000Z</time>
      </trkpt>
      <trkpt lat="45.3734" lon="1.93527">
        <ele>675</ele>
        <time>2011-03-19T13:40:21.000Z</time>
      </trkpt>
      <trkpt lat="45.3737" lon="1.9354">
        <ele>678</ele>
        <time>2011-03-19T13:40:26.000Z</time>
      </trkpt>
      <trkpt lat="45.3741" lon="1.93558">
        <ele>679</ele>
        <time>2011-03-19T13:40:32.000Z</time>
      </trkpt>
      <trkpt lat="45.3745" lon="1.93577">
        <ele>681</ele>
        <time>2011-03-19T13:40:37.000Z</time>
      </trkpt>
      <trkpt lat="45.375" lon="1.93608">
        <ele>677</ele>
        <time>2011-03-19T13:40:42.000Z</time>
      </trkpt>
      <trkpt lat="45.3752" lon="1.93633">
        <ele>677</ele>
        <time>2011-03-19T13:40:47.000Z</time>
      </trkpt>
      <trkpt lat="45.3753" lon="1.93659">
        <ele>676</ele>
        <time>2011-03-19T13:40:52.000Z</time>
      </trkpt>
      <trkpt lat="45.3755" lon="1.9366">
        <ele>679</ele>
        <time>2011-03-19T13:40:57.000Z</time>
      </trkpt>
      <trkpt lat="45.3759" lon="1.93625">
        <ele>678</ele>
        <time>2011-03-19T13:41:02.000Z</time>
      </trkpt>
      <trkpt lat="45.3762" lon="1.93607">
        <ele>680</ele>
        <time>2011-03-19T13:41:08.000Z</time>
      </trkpt>
      <trkpt lat="45.3765" lon="1.93598">
        <ele>682</ele>
        <time>2011-03-19T13:41:13.000Z</time>
      </trkpt>
      <trkpt lat="45.3769" lon="1.93573">
        <ele>677</ele>
        <time>2011-03-19T13:41:18.000Z</time>
      </trkpt>
      <trkpt lat="45.3773" lon="1.93526">
        <ele>676</ele>
        <time>2011-03-19T13:41:24.000Z</time>
      </trkpt>
      <trkpt lat="45.3776" lon="1.93488">
        <ele>674</ele>
        <time>2011-03-19T13:41:29.000Z</time>
      </trkpt>
      <trkpt lat="45.3779" lon="1.93485">
        <ele>673</ele>
        <time>2011-03-19T13:41:34.000Z</time>
      </trkpt>
      <trkpt lat="45.3783" lon="1.9347">
        <ele>668</ele>
        <time>2011-03-19T13:41:40.000Z</time>
      </trkpt>
      <trkpt lat="45.3786" lon="1.93459">
        <ele>668</ele>
        <time>2011-03-19T13:41:45.000Z</time>
      </trkpt>
      <trkpt lat="45.3788" lon="1.93444">
        <ele>667</ele>
        <time>2011-03-19T13:41:50.000Z</time>
      </trkpt>
      <trkpt lat="45.3791" lon="1.93424">
        <ele>662</ele>
        <time>2011-03-19T13:41:56.000Z</time>
      </trkpt>
      <trkpt lat="45.3793" lon="1.93402">
        <ele>657</ele>
        <time>2011-03-19T13:42:01.000Z</time>
      </trkpt>
      <trkpt lat="45.3794" lon="1.93383">
        <ele>650</ele>
        <time>2011-03-19T13:42:06.000Z</time>
      </trkpt>
      <trkpt lat="45.3795" lon="1.93351">
        <ele>645</ele>
        <time>2011-03-19T13:42:12.000Z</time>
      </trkpt>
      <trkpt lat="45.3796" lon="1.93319">
        <ele>644</ele>
        <time>2011-03-19T13:42:17.000Z</time>
      </trkpt>
      <trkpt lat="45.3797" lon="1.93287">
        <ele>643</ele>
        <time>2011-03-19T13:42:22.000Z</time>
      </trkpt>
      <trkpt lat="45.3797" lon="1.9326">
        <ele>643</ele>
        <time>2011-03-19T13:42:28.000Z</time>
      </trkpt>
      <trkpt lat="45.3798" lon="1.93232">
        <ele>643</ele>
        <time>2011-03-19T13:42:33.000Z</time>
      </trkpt>
      <trkpt lat="45.3798" lon="1.932">
        <ele>644</ele>
        <time>2011-03-19T13:42:38.000Z</time>
      </trkpt>
      <trkpt lat="45.3798" lon="1.93166">
        <ele>645</ele>
        <time>2011-03-19T13:42:44.000Z</time>
      </trkpt>
      <trkpt lat="45.3798" lon="1.93142">
        <ele>646</ele>
        <time>2011-03-19T13:42:49.000Z</time>
      </trkpt>
      <trkpt lat="45.3798" lon="1.93124">
        <ele>646</ele>
        <time>2011-03-19T13:42:54.000Z</time>
      </trkpt>
      <trkpt lat="45.3799" lon="1.93097">
        <ele>647</ele>
        <time>2011-03-19T13:43:00.000Z</time>
      </trkpt>
      <trkpt lat="45.3799" lon="1.9307">
        <ele>650</ele>
        <time>2011-03-19T13:43:05.000Z</time>
      </trkpt>
      <trkpt lat="45.38" lon="1.93048">
        <ele>653</ele>
        <time>2011-03-19T13:43:10.000Z</time>
      </trkpt>
      <trkpt lat="45.3802" lon="1.93019">
        <ele>655</ele>
        <time>2011-03-19T13:43:16.000Z</time>
      </trkpt>
      <trkpt lat="45.3803" lon="1.92993">
        <ele>658</ele>
        <time>2011-03-19T13:43:21.000Z</time>
      </trkpt>
      <trkpt lat="45.3804" lon="1.92965">
        <ele>658</ele>
        <time>2011-03-19T13:43:26.000Z</time>
      </trkpt>
      <trkpt lat="45.3804" lon="1.92947">
        <ele>659</ele>
        <time>2011-03-19T13:43:32.000Z</time>
      </trkpt>
      <trkpt lat="45.3804" lon="1.9293">
        <ele>657</ele>
        <time>2011-03-19T13:43:37.000Z</time>
      </trkpt>
      <trkpt lat="45.3805" lon="1.92926">
        <ele>660</ele>
        <time>2011-03-19T13:43:42.000Z</time>
      </trkpt>
      <trkpt lat="45.3806" lon="1.92919">
        <ele>665</ele>
        <time>2011-03-19T13:43:48.000Z</time>
      </trkpt>
      <trkpt lat="45.3808" lon="1.92909">
        <ele>672</ele>
        <time>2011-03-19T13:43:53.000Z</time>
      </trkpt>
      <trkpt lat="45.381" lon="1.92884">
        <ele>671</ele>
        <time>2011-03-19T13:43:58.000Z</time>
      </trkpt>
      <trkpt lat="45.3812" lon="1.92838">
        <ele>671</ele>
        <time>2011-03-19T13:44:04.000Z</time>
      </trkpt>
      <trkpt lat="45.3815" lon="1.9281">
        <ele>672</ele>
        <time>2011-03-19T13:44:09.000Z</time>
      </trkpt>
      <trkpt lat="45.3818" lon="1.92771">
        <ele>671</ele>
        <time>2011-03-19T13:44:14.000Z</time>
      </trkpt>
      <trkpt lat="45.3818" lon="1.92737">
        <ele>663</ele>
        <time>2011-03-19T13:44:20.000Z</time>
      </trkpt>
      <trkpt lat="45.382" lon="1.92729">
        <ele>661</ele>
        <time>2011-03-19T13:44:25.000Z</time>
      </trkpt>
      <trkpt lat="45.3822" lon="1.92727">
        <ele>660</ele>
        <time>2011-03-19T13:44:30.000Z</time>
      </trkpt>
      <trkpt lat="45.3824" lon="1.92716">
        <ele>664</ele>
        <time>2011-03-19T13:44:36.000Z</time>
      </trkpt>
      <trkpt lat="45.3825" lon="1.92707">
        <ele>667</ele>
        <time>2011-03-19T13:44:41.000Z</time>
      </trkpt>
      <trkpt lat="45.3828" lon="1.92666">
        <ele>669</ele>
        <time>2011-03-19T13:44:46.000Z</time>
      </trkpt>
      <trkpt lat="45.3831" lon="1.92634">
        <ele>673</ele>
        <time>2011-03-19T13:44:52.000Z</time>
      </trkpt>
      <trkpt lat="45.3833" lon="1.92616">
        <ele>676</ele>
        <time>2011-03-19T13:44:57.000Z</time>
      </trkpt>
      <trkpt lat="45.3836" lon="1.926">
        <ele>667</ele>
        <time>2011-03-19T13:45:02.000Z</time>
      </trkpt>
      <trkpt lat="45.3839" lon="1.92585">
        <ele>663</ele>
        <time>2011-03-19T13:45:08.000Z</time>
      </trkpt>
      <trkpt lat="45.3841" lon="1.92582">
        <ele>664</ele>
        <time>2011-03-19T13:45:13.000Z</time>
      </trkpt>
      <trkpt lat="45.3843" lon="1.92577">
        <ele>668</ele>
        <time>2011-03-19T13:45:18.000Z</time>
      </trkpt>
      <trkpt lat="45.3845" lon="1.92569">
        <ele>675</ele>
        <time>2011-03-19T13:45:24.000Z</time>
      </trkpt>
      <trkpt lat="45.3847" lon="1.92547">
        <ele>679</ele>
        <time>2011-03-19T13:45:29.000Z</time>
      </trkpt>
      <trkpt lat="45.385" lon="1.92523">
        <ele>679</ele>
        <time>2011-03-19T13:45:34.000Z</time>
      </trkpt>
      <trkpt lat="45.3852" lon="1.92509">
        <ele>681</ele>
        <time>2011-03-19T13:45:40.000Z</time>
      </trkpt>
      <trkpt lat="45.3855" lon="1.92523">
        <ele>678</ele>
        <time>2011-03-19T13:45:45.000Z</time>
      </trkpt>
      <trkpt lat="45.3858" lon="1.92521">
        <ele>677</ele>
        <time>2011-03-19T13:45:50.000Z</time>
      </trkpt>
      <trkpt lat="45.3861" lon="1.92542">
        <ele>678</ele>
        <time>2011-03-19T13:45:56.000Z</time>
      </trkpt>
      <trkpt lat="45.3864" lon="1.92562">
        <ele>677</ele>
        <time>2011-03-19T13:46:01.000Z</time>
      </trkpt>
      <trkpt lat="45.3867" lon="1.92578">
        <ele>671</ele>
        <time>2011-03-19T13:46:06.000Z</time>
      </trkpt>
      <trkpt lat="45.3871" lon="1.92598">
        <ele>667</ele>
        <time>2011-03-19T13:46:12.000Z</time>
      </trkpt>
      <trkpt lat="45.3874" lon="1.9261">
        <ele>666</ele>
        <time>2011-03-19T13:46:17.000Z</time>
      </trkpt>
      <trkpt lat="45.3878" lon="1.92611">
        <ele>655</ele>
        <time>2011-03-19T13:46:22.000Z</time>
      </trkpt>
      <trkpt lat="45.3882" lon="1.92636">
        <ele>649</ele>
        <time>2011-03-19T13:46:28.000Z</time>
      </trkpt>
      <trkpt lat="45.3885" lon="1.92666">
        <ele>646</ele>
        <time>2011-03-19T13:46:33.000Z</time>
      </trkpt>
      <trkpt lat="45.3887" lon="1.92687">
        <ele>646</ele>
        <time>2011-03-19T13:46:38.000Z</time>
      </trkpt>
      <trkpt lat="45.389" lon="1.92721">
        <ele>644</ele>
        <time>2011-03-19T13:46:44.000Z</time>
      </trkpt>
      <trkpt lat="45.3892" lon="1.92756">
        <ele>643</ele>
        <time>2011-03-19T13:46:49.000Z</time>
      </trkpt>
      <trkpt lat="45.3895" lon="1.92785">
        <ele>641</ele>
        <time>2011-03-19T13:46:54.000Z</time>
      </trkpt>
      <trkpt lat="45.3897" lon="1.92823">
        <ele>639</ele>
        <time>2011-03-19T13:47:00.000Z</time>
      </trkpt>
      <trkpt lat="45.39" lon="1.92854">
        <ele>640</ele>
        <time>2011-03-19T13:47:05.000Z</time>
      </trkpt>
      <trkpt lat="45.3902" lon="1.92887">
        <ele>640</ele>
        <time>2011-03-19T13:47:10.000Z</time>
      </trkpt>
      <trkpt lat="45.3904" lon="1.92929">
        <ele>639</ele>
        <time>2011-03-19T13:47:16.000Z</time>
      </trkpt>
      <trkpt lat="45.3906" lon="1.92962">
        <ele>638</ele>
        <time>2011-03-19T13:47:21.000Z</time>
      </trkpt>
      <trkpt lat="45.3909" lon="1.92991">
        <ele>639</ele>
        <time>2011-03-19T13:47:26.000Z</time>
      </trkpt>
      <trkpt lat="45.3912" lon="1.9301">
        <ele>639</ele>
        <time>2011-03-19T13:47:32.000Z</time>
      </trkpt>
      <trkpt lat="45.3915" lon="1.93019">
        <ele>640</ele>
        <time>2011-03-19T13:47:37.000Z</time>
      </trkpt>
      <trkpt lat="45.3918" lon="1.93027">
        <ele>640</ele>
        <time>2011-03-19T13:47:42.000Z</time>
      </trkpt>
      <trkpt lat="45.3922" lon="1.93038">
        <ele>639</ele>
        <time>2011-03-19T13:47:48.000Z</time>
      </trkpt>
      <trkpt lat="45.3925" lon="1.93048">
        <ele>641</ele>
        <time>2011-03-19T13:47:53.000Z</time>
      </trkpt>
      <trkpt lat="45.3927" lon="1.93058">
        <ele>640</ele>
        <time>2011-03-19T13:47:58.000Z</time>
      </trkpt>
      <trkpt lat="45.3931" lon="1.93067">
        <ele>640</ele>
        <time>2011-03-19T13:48:04.000Z</time>
      </trkpt>
      <trkpt lat="45.3934" lon="1.9308">
        <ele>639</ele>
        <time>2011-03-19T13:48:09.000Z</time>
      </trkpt>
      <trkpt lat="45.3936" lon="1.93094">
        <ele>639</ele>
        <time>2011-03-19T13:48:14.000Z</time>
      </trkpt>
      <trkpt lat="45.3939" lon="1.93108">
        <ele>640</ele>
        <time>2011-03-19T13:48:20.000Z</time>
      </trkpt>
      <trkpt lat="45.3943" lon="1.93123">
        <ele>640</ele>
        <time>2011-03-19T13:48:25.000Z</time>
      </trkpt>
      <trkpt lat="45.3944" lon="1.93163">
        <ele>638</ele>
        <time>2011-03-19T13:48:30.000Z</time>
      </trkpt>
      <trkpt lat="45.3945" lon="1.93226">
        <ele>638</ele>
        <time>2011-03-19T13:48:36.000Z</time>
      </trkpt>
      <trkpt lat="45.3947" lon="1.93266">
        <ele>639</ele>
        <time>2011-03-19T13:48:41.000Z</time>
      </trkpt>
      <trkpt lat="45.3951" lon="1.93293">
        <ele>639</ele>
        <time>2011-03-19T13:48:46.000Z</time>
      </trkpt>
      <trkpt lat="45.3956" lon="1.9329">
        <ele>640</ele>
        <time>2011-03-19T13:48:52.000Z</time>
      </trkpt>
      <trkpt lat="45.3961" lon="1.93286">
        <ele>641</ele>
        <time>2011-03-19T13:48:57.000Z</time>
      </trkpt>
      <trkpt lat="45.3965" lon="1.93307">
        <ele>640</ele>
        <time>2011-03-19T13:49:02.000Z</time>
      </trkpt>
      <trkpt lat="45.3969" lon="1.93314">
        <ele>638</ele>
        <time>2011-03-19T13:49:08.000Z</time>
      </trkpt>
      <trkpt lat="45.3971" lon="1.93303">
        <ele>640</ele>
        <time>2011-03-19T13:49:13.000Z</time>
      </trkpt>
      <trkpt lat="45.3971" lon="1.93298">
        <ele>644</ele>
        <time>2011-03-19T13:49:18.000Z</time>
      </trkpt>
      <trkpt lat="45.3972" lon="1.93268">
        <ele>645</ele>
        <time>2011-03-19T13:49:24.000Z</time>
      </trkpt>
      <trkpt lat="45.3975" lon="1.9323">
        <ele>641</ele>
        <time>2011-03-19T13:49:29.000Z</time>
      </trkpt>
      <trkpt lat="45.3978" lon="1.93209">
        <ele>641</ele>
        <time>2011-03-19T13:49:34.000Z</time>
      </trkpt>
      <trkpt lat="45.3981" lon="1.93204">
        <ele>640</ele>
        <time>2011-03-19T13:49:40.000Z</time>
      </trkpt>
      <trkpt lat="45.3983" lon="1.93211">
        <ele>643</ele>
        <time>2011-03-19T13:49:45.000Z</time>
      </trkpt>
      <trkpt lat="45.3986" lon="1.93208">
        <ele>648</ele>
        <time>2011-03-19T13:49:50.000Z</time>
      </trkpt>
      <trkpt lat="45.3989" lon="1.93222">
        <ele>647</ele>
        <time>2011-03-19T13:49:56.000Z</time>
      </trkpt>
      <trkpt lat="45.399" lon="1.93247">
        <ele>648</ele>
        <time>2011-03-19T13:50:01.000Z</time>
      </trkpt>
      <trkpt lat="45.3992" lon="1.93288">
        <ele>647</ele>
        <time>2011-03-19T13:50:06.000Z</time>
      </trkpt>
      <trkpt lat="45.3994" lon="1.93341">
        <ele>649</ele>
        <time>2011-03-19T13:50:12.000Z</time>
      </trkpt>
      <trkpt lat="45.3996" lon="1.9335">
        <ele>652</ele>
        <time>2011-03-19T13:50:17.000Z</time>
      </trkpt>
      <trkpt lat="45.3998" lon="1.93342">
        <ele>655</ele>
        <time>2011-03-19T13:50:22.000Z</time>
      </trkpt>
      <trkpt lat="45.4001" lon="1.93315">
        <ele>657</ele>
        <time>2011-03-19T13:50:28.000Z</time>
      </trkpt>
      <trkpt lat="45.4003" lon="1.93288">
        <ele>659</ele>
        <time>2011-03-19T13:50:33.000Z</time>
      </trkpt>
      <trkpt lat="45.4004" lon="1.93258">
        <ele>661</ele>
        <time>2011-03-19T13:50:38.000Z</time>
      </trkpt>
      <trkpt lat="45.4006" lon="1.93215">
        <ele>661</ele>
        <time>2011-03-19T13:50:44.000Z</time>
      </trkpt>
      <trkpt lat="45.4008" lon="1.93175">
        <ele>661</ele>
        <time>2011-03-19T13:50:49.000Z</time>
      </trkpt>
      <trkpt lat="45.401" lon="1.93136">
        <ele>664</ele>
        <time>2011-03-19T13:50:54.000Z</time>
      </trkpt>
      <trkpt lat="45.4012" lon="1.93086">
        <ele>664</ele>
        <time>2011-03-19T13:51:00.000Z</time>
      </trkpt>
      <trkpt lat="45.4014" lon="1.93056">
        <ele>659</ele>
        <time>2011-03-19T13:51:05.000Z</time>
      </trkpt>
      <trkpt lat="45.4015" lon="1.9301">
        <ele>657</ele>
        <time>2011-03-19T13:51:10.000Z</time>
      </trkpt>
      <trkpt lat="45.4016" lon="1.92951">
        <ele>653</ele>
        <time>2011-03-19T13:51:16.000Z</time>
      </trkpt>
      <trkpt lat="45.4016" lon="1.92908">
        <ele>648</ele>
        <time>2011-03-19T13:51:21.000Z</time>
      </trkpt>
      <trkpt lat="45.4015" lon="1.92855">
        <ele>644</ele>
        <time>2011-03-19T13:51:26.000Z</time>
      </trkpt>
      <trkpt lat="45.401" lon="1.9281">
        <ele>642</ele>
        <time>2011-03-19T13:51:32.000Z</time>
      </trkpt>
      <trkpt lat="45.4009" lon="1.92778">
        <ele>642</ele>
        <time>2011-03-19T13:51:37.000Z</time>
      </trkpt>
      <trkpt lat="45.4008" lon="1.92735">
        <ele>642</ele>
        <time>2011-03-19T13:51:42.000Z</time>
      </trkpt>
      <trkpt lat="45.4008" lon="1.92683">
        <ele>641</ele>
        <time>2011-03-19T13:51:48.000Z</time>
      </trkpt>
      <trkpt lat="45.4009" lon="1.92635">
        <ele>643</ele>
        <time>2011-03-19T13:51:53.000Z</time>
      </trkpt>
      <trkpt lat="45.401" lon="1.92576">
        <ele>640</ele>
        <time>2011-03-19T13:51:58.000Z</time>
      </trkpt>
      <trkpt lat="45.4011" lon="1.92506">
        <ele>636</ele>
        <time>2011-03-19T13:52:04.000Z</time>
      </trkpt>
      <trkpt lat="45.4014" lon="1.92459">
        <ele>637</ele>
        <time>2011-03-19T13:52:09.000Z</time>
      </trkpt>
      <trkpt lat="45.4017" lon="1.92415">
        <ele>638</ele>
        <time>2011-03-19T13:52:14.000Z</time>
      </trkpt>
      <trkpt lat="45.402" lon="1.92377">
        <ele>630</ele>
        <time>2011-03-19T13:52:20.000Z</time>
      </trkpt>
      <trkpt lat="45.4023" lon="1.92334">
        <ele>630</ele>
        <time>2011-03-19T13:52:25.000Z</time>
      </trkpt>
      <trkpt lat="45.4025" lon="1.92293">
        <ele>628</ele>
        <time>2011-03-19T13:52:30.000Z</time>
      </trkpt>
      <trkpt lat="45.4027" lon="1.92238">
        <ele>623</ele>
        <time>2011-03-19T13:52:36.000Z</time>
      </trkpt>
      <trkpt lat="45.4029" lon="1.92212">
        <ele>623</ele>
        <time>2011-03-19T13:52:41.000Z</time>
      </trkpt>
      <trkpt lat="45.4031" lon="1.92185">
        <ele>624</ele>
        <time>2011-03-19T13:52:46.000Z</time>
      </trkpt>
      <trkpt lat="45.4035" lon="1.92153">
        <ele>625</ele>
        <time>2011-03-19T13:52:52.000Z</time>
      </trkpt>
      <trkpt lat="45.4038" lon="1.92131">
        <ele>627</ele>
        <time>2011-03-19T13:52:57.000Z</time>
      </trkpt>
      <trkpt lat="45.4041" lon="1.92107">
        <ele>626</ele>
        <time>2011-03-19T13:53:02.000Z</time>
      </trkpt>
      <trkpt lat="45.4045" lon="1.92057">
        <ele>623</ele>
        <time>2011-03-19T13:53:08.000Z</time>
      </trkpt>
      <trkpt lat="45.4048" lon="1.92021">
        <ele>621</ele>
        <time>2011-03-19T13:53:13.000Z</time>
      </trkpt>
      <trkpt lat="45.4052" lon="1.92001">
        <ele>622</ele>
        <time>2011-03-19T13:53:18.000Z</time>
      </trkpt>
      <trkpt lat="45.4055" lon="1.91987">
        <ele>623</ele>
        <time>2011-03-19T13:53:24.000Z</time>
      </trkpt>
      <trkpt lat="45.4058" lon="1.91973">
        <ele>621</ele>
        <time>2011-03-19T13:53:29.000Z</time>
      </trkpt>
      <trkpt lat="45.4058" lon="1.9198">
        <ele>621</ele>
        <time>2011-03-19T13:53:34.000Z</time>
      </trkpt>
      <trkpt lat="45.4062" lon="1.91948">
        <ele>619</ele>
        <time>2011-03-19T13:53:40.000Z</time>
      </trkpt>
      <trkpt lat="45.4067" lon="1.91875">
        <ele>618</ele>
        <time>2011-03-19T13:53:45.000Z</time>
      </trkpt>
      <trkpt lat="45.4071" lon="1.91806">
        <ele>616</ele>
        <time>2011-03-19T13:53:50.000Z</time>
      </trkpt>
      <trkpt lat="45.4073" lon="1.91758">
        <ele>614</ele>
        <time>2011-03-19T13:53:56.000Z</time>
      </trkpt>
      <trkpt lat="45.4077" lon="1.91758">
        <ele>612</ele>
        <time>2011-03-19T13:54:01.000Z</time>
      </trkpt>
      <trkpt lat="45.4082" lon="1.91746">
        <ele>609</ele>
        <time>2011-03-19T13:54:06.000Z</time>
      </trkpt>
      <trkpt lat="45.4087" lon="1.91738">
        <ele>612</ele>
        <time>2011-03-19T13:54:12.000Z</time>
      </trkpt>
      <trkpt lat="45.4091" lon="1.91726">
        <ele>612</ele>
        <time>2011-03-19T13:54:17.000Z</time>
      </trkpt>
      <trkpt lat="45.4094" lon="1.91747">
        <ele>607</ele>
        <time>2011-03-19T13:54:22.000Z</time>
      </trkpt>
      <trkpt lat="45.4099" lon="1.91746">
        <ele>607</ele>
        <time>2011-03-19T13:54:28.000Z</time>
      </trkpt>
      <trkpt lat="45.4104" lon="1.91752">
        <ele>601</ele>
        <time>2011-03-19T13:54:33.000Z</time>
      </trkpt>
      <trkpt lat="45.4106" lon="1.91767">
        <ele>601</ele>
        <time>2011-03-19T13:54:38.000Z</time>
      </trkpt>
      <trkpt lat="45.4108" lon="1.91776">
        <ele>602</ele>
        <time>2011-03-19T13:54:44.000Z</time>
      </trkpt>
      <trkpt lat="45.411" lon="1.91768">
        <ele>604</ele>
        <time>2011-03-19T13:54:49.000Z</time>
      </trkpt>
      <trkpt lat="45.4111" lon="1.91753">
        <ele>606</ele>
        <time>2011-03-19T13:54:54.000Z</time>
      </trkpt>
      <trkpt lat="45.4112" lon="1.91747">
        <ele>605</ele>
        <time>2011-03-19T13:55:00.000Z</time>
      </trkpt>
      <trkpt lat="45.4114" lon="1.91717">
        <ele>601</ele>
        <time>2011-03-19T13:55:05.000Z</time>
      </trkpt>
      <trkpt lat="45.4116" lon="1.91688">
        <ele>600</ele>
        <time>2011-03-19T13:55:10.000Z</time>
      </trkpt>
      <trkpt lat="45.4116" lon="1.91663">
        <ele>601</ele>
        <time>2011-03-19T13:55:16.000Z</time>
      </trkpt>
      <trkpt lat="45.4117" lon="1.91636">
        <ele>602</ele>
        <time>2011-03-19T13:55:21.000Z</time>
      </trkpt>
      <trkpt lat="45.4117" lon="1.91611">
        <ele>602</ele>
        <time>2011-03-19T13:55:26.000Z</time>
      </trkpt>
      <trkpt lat="45.4118" lon="1.91591">
        <ele>604</ele>
        <time>2011-03-19T13:55:32.000Z</time>
      </trkpt>
      <trkpt lat="45.4118" lon="1.91567">
        <ele>603</ele>
        <time>2011-03-19T13:55:37.000Z</time>
      </trkpt>
      <trkpt lat="45.4119" lon="1.91547">
        <ele>603</ele>
        <time>2011-03-19T13:55:42.000Z</time>
      </trkpt>
      <trkpt lat="45.412" lon="1.91519">
        <ele>604</ele>
        <time>2011-03-19T13:55:48.000Z</time>
      </trkpt>
      <trkpt lat="45.4121" lon="1.91497">
        <ele>606</ele>
        <time>2011-03-19T13:55:53.000Z</time>
      </trkpt>
      <trkpt lat="45.4122" lon="1.91479">
        <ele>607</ele>
        <time>2011-03-19T13:55:58.000Z</time>
      </trkpt>
      <trkpt lat="45.4124" lon="1.91457">
        <ele>608</ele>
        <time>2011-03-19T13:56:04.000Z</time>
      </trkpt>
      <trkpt lat="45.4125" lon="1.91442">
        <ele>609</ele>
        <time>2011-03-19T13:56:09.000Z</time>
      </trkpt>
      <trkpt lat="45.4126" lon="1.91426">
        <ele>608</ele>
        <time>2011-03-19T13:56:14.000Z</time>
      </trkpt>
      <trkpt lat="45.4127" lon="1.91408">
        <ele>609</ele>
        <time>2011-03-19T13:56:20.000Z</time>
      </trkpt>
      <trkpt lat="45.4128" lon="1.91401">
        <ele>609</ele>
        <time>2011-03-19T13:56:25.000Z</time>
      </trkpt>
      <trkpt lat="45.4128" lon="1.91387">
        <ele>608</ele>
        <time>2011-03-19T13:56:30.000Z</time>
      </trkpt>
      <trkpt lat="45.413" lon="1.91369">
        <ele>608</ele>
        <time>2011-03-19T13:56:36.000Z</time>
      </trkpt>
      <trkpt lat="45.4131" lon="1.91353">
        <ele>607</ele>
        <time>2011-03-19T13:56:41.000Z</time>
      </trkpt>
      <trkpt lat="45.4133" lon="1.91338">
        <ele>607</ele>
        <time>2011-03-19T13:56:46.000Z</time>
      </trkpt>
      <trkpt lat="45.4134" lon="1.91329">
        <ele>609</ele>
        <time>2011-03-19T13:56:52.000Z</time>
      </trkpt>
      <trkpt lat="45.4135" lon="1.91312">
        <ele>612</ele>
        <time>2011-03-19T13:56:57.000Z</time>
      </trkpt>
      <trkpt lat="45.4136" lon="1.9129">
        <ele>614</ele>
        <time>2011-03-19T13:57:02.000Z</time>
      </trkpt>
      <trkpt lat="45.4137" lon="1.91264">
        <ele>612</ele>
        <time>2011-03-19T13:57:08.000Z</time>
      </trkpt>
      <trkpt lat="45.4138" lon="1.9124">
        <ele>612</ele>
        <time>2011-03-19T13:57:13.000Z</time>
      </trkpt>
      <trkpt lat="45.4138" lon="1.91222">
        <ele>613</ele>
        <time>2011-03-19T13:57:18.000Z</time>
      </trkpt>
      <trkpt lat="45.4138" lon="1.91198">
        <ele>612</ele>
        <time>2011-03-19T13:57:24.000Z</time>
      </trkpt>
      <trkpt lat="45.4138" lon="1.91178">
        <ele>611</ele>
        <time>2011-03-19T13:57:29.000Z</time>
      </trkpt>
      <trkpt lat="45.4138" lon="1.91165">
        <ele>614</ele>
        <time>2011-03-19T13:57:34.000Z</time>
      </trkpt>
      <trkpt lat="45.4139" lon="1.91144">
        <ele>617</ele>
        <time>2011-03-19T13:57:40.000Z</time>
      </trkpt>
      <trkpt lat="45.4139" lon="1.91129">
        <ele>622</ele>
        <time>2011-03-19T13:57:45.000Z</time>
      </trkpt>
      <trkpt lat="45.4139" lon="1.91112">
        <ele>623</ele>
        <time>2011-03-19T13:57:50.000Z</time>
      </trkpt>
      <trkpt lat="45.414" lon="1.91088">
        <ele>628</ele>
        <time>2011-03-19T13:57:56.000Z</time>
      </trkpt>
      <trkpt lat="45.4141" lon="1.91061">
        <ele>630</ele>
        <time>2011-03-19T13:58:01.000Z</time>
      </trkpt>
      <trkpt lat="45.4142" lon="1.91037">
        <ele>627</ele>
        <time>2011-03-19T13:58:06.000Z</time>
      </trkpt>
      <trkpt lat="45.4142" lon="1.91014">
        <ele>627</ele>
        <time>2011-03-19T13:58:12.000Z</time>
      </trkpt>
      <trkpt lat="45.4141" lon="1.91002">
        <ele>627</ele>
        <time>2011-03-19T13:58:17.000Z</time>
      </trkpt>
      <trkpt lat="45.4141" lon="1.9098">
        <ele>624</ele>
        <time>2011-03-19T13:58:22.000Z</time>
      </trkpt>
      <trkpt lat="45.4142" lon="1.90963">
        <ele>624</ele>
        <time>2011-03-19T13:58:28.000Z</time>
      </trkpt>
      <trkpt lat="45.4142" lon="1.90952">
        <ele>624</ele>
        <time>2011-03-19T13:58:33.000Z</time>
      </trkpt>
      <trkpt lat="45.4143" lon="1.90932">
        <ele>624</ele>
        <time>2011-03-19T13:58:38.000Z</time>
      </trkpt>
      <trkpt lat="45.4145" lon="1.90899">
        <ele>628</ele>
        <time>2011-03-19T13:58:44.000Z</time>
      </trkpt>
      <trkpt lat="45.4145" lon="1.90877">
        <ele>631</ele>
        <time>2011-03-19T13:58:49.000Z</time>
      </trkpt>
      <trkpt lat="45.4145" lon="1.90862">
        <ele>631</ele>
        <time>2011-03-19T13:58:54.000Z</time>
      </trkpt>
      <trkpt lat="45.4146" lon="1.90845">
        <ele>629</ele>
        <time>2011-03-19T13:59:00.000Z</time>
      </trkpt>
      <trkpt lat="45.4147" lon="1.90833">
        <ele>630</ele>
        <time>2011-03-19T13:59:05.000Z</time>
      </trkpt>
      <trkpt lat="45.4149" lon="1.90826">
        <ele>628</ele>
        <time>2011-03-19T13:59:10.000Z</time>
      </trkpt>
      <trkpt lat="45.4151" lon="1.90824">
        <ele>629</ele>
        <time>2011-03-19T13:59:16.000Z</time>
      </trkpt>
      <trkpt lat="45.4152" lon="1.90832">
        <ele>632</ele>
        <time>2011-03-19T13:59:21.000Z</time>
      </trkpt>
      <trkpt lat="45.4153" lon="1.90841">
        <ele>635</ele>
        <time>2011-03-19T13:59:26.000Z</time>
      </trkpt>
      <trkpt lat="45.4154" lon="1.90847">
        <ele>641</ele>
        <time>2011-03-19T13:59:32.000Z</time>
      </trkpt>
      <trkpt lat="45.4155" lon="1.90851">
        <ele>645</ele>
        <time>2011-03-19T13:59:37.000Z</time>
      </trkpt>
      <trkpt lat="45.4156" lon="1.90852">
        <ele>642</ele>
        <time>2011-03-19T13:59:42.000Z</time>
      </trkpt>
      <trkpt lat="45.4157" lon="1.90834">
        <ele>642</ele>
        <time>2011-03-19T13:59:48.000Z</time>
      </trkpt>
      <trkpt lat="45.4158" lon="1.90813">
        <ele>646</ele>
        <time>2011-03-19T13:59:53.000Z</time>
      </trkpt>
      <trkpt lat="45.4159" lon="1.90794">
        <ele>647</ele>
        <time>2011-03-19T13:59:58.000Z</time>
      </trkpt>
      <trkpt lat="45.4159" lon="1.90766">
        <ele>646</ele>
        <time>2011-03-19T14:00:04.000Z</time>
      </trkpt>
      <trkpt lat="45.4159" lon="1.90746">
        <ele>648</ele>
        <time>2011-03-19T14:00:09.000Z</time>
      </trkpt>
      <trkpt lat="45.416" lon="1.90722">
        <ele>650</ele>
        <time>2011-03-19T14:00:14.000Z</time>
      </trkpt>
      <trkpt lat="45.4159" lon="1.90698">
        <ele>653</ele>
        <time>2011-03-19T14:00:20.000Z</time>
      </trkpt>
      <trkpt lat="45.4159" lon="1.90688">
        <ele>656</ele>
        <time>2011-03-19T14:00:25.000Z</time>
      </trkpt>
      <trkpt lat="45.4159" lon="1.90678">
        <ele>657</ele>
        <time>2011-03-19T14:00:30.000Z</time>
      </trkpt>
      <trkpt lat="45.4158" lon="1.90654">
        <ele>662</ele>
        <time>2011-03-19T14:00:36.000Z</time>
      </trkpt>
      <trkpt lat="45.4158" lon="1.90636">
        <ele>664</ele>
        <time>2011-03-19T14:00:41.000Z</time>
      </trkpt>
      <trkpt lat="45.4158" lon="1.90619">
        <ele>664</ele>
        <time>2011-03-19T14:00:46.000Z</time>
      </trkpt>
      <trkpt lat="45.4158" lon="1.90601">
        <ele>664</ele>
        <time>2011-03-19T14:00:52.000Z</time>
      </trkpt>
      <trkpt lat="45.4158" lon="1.90585">
        <ele>665</ele>
        <time>2011-03-19T14:00:57.000Z</time>
      </trkpt>
      <trkpt lat="45.4158" lon="1.90571">
        <ele>667</ele>
        <time>2011-03-19T14:01:02.000Z</time>
      </trkpt>
      <trkpt lat="45.4158" lon="1.90541">
        <ele>668</ele>
        <time>2011-03-19T14:01:08.000Z</time>
      </trkpt>
      <trkpt lat="45.4158" lon="1.90522">
        <ele>669</ele>
        <time>2011-03-19T14:01:13.000Z</time>
      </trkpt>
      <trkpt lat="45.4158" lon="1.90498">
        <ele>670</ele>
        <time>2011-03-19T14:01:18.000Z</time>
      </trkpt>
      <trkpt lat="45.4159" lon="1.90472">
        <ele>671</ele>
        <time>2011-03-19T14:01:24.000Z</time>
      </trkpt>
      <trkpt lat="45.4159" lon="1.90449">
        <ele>672</ele>
        <time>2011-03-19T14:01:29.000Z</time>
      </trkpt>
      <trkpt lat="45.4159" lon="1.90431">
        <ele>673</ele>
        <time>2011-03-19T14:01:34.000Z</time>
      </trkpt>
      <trkpt lat="45.4159" lon="1.90405">
        <ele>674</ele>
        <time>2011-03-19T14:01:40.000Z</time>
      </trkpt>
      <trkpt lat="45.4159" lon="1.90386">
        <ele>673</ele>
        <time>2011-03-19T14:01:45.000Z</time>
      </trkpt>
      <trkpt lat="45.416" lon="1.90363">
        <ele>673</ele>
        <time>2011-03-19T14:01:50.000Z</time>
      </trkpt>
      <trkpt lat="45.416" lon="1.90344">
        <ele>672</ele>
        <time>2011-03-19T14:01:56.000Z</time>
      </trkpt>
      <trkpt lat="45.4161" lon="1.90324">
        <ele>672</ele>
        <time>2011-03-19T14:02:01.000Z</time>
      </trkpt>
      <trkpt lat="45.4162" lon="1.90308">
        <ele>675</ele>
        <time>2011-03-19T14:02:06.000Z</time>
      </trkpt>
      <trkpt lat="45.4162" lon="1.90288">
        <ele>677</ele>
        <time>2011-03-19T14:02:12.000Z</time>
      </trkpt>
      <trkpt lat="45.4162" lon="1.90278">
        <ele>679</ele>
        <time>2011-03-19T14:02:17.000Z</time>
      </trkpt>
      <trkpt lat="45.4162" lon="1.90265">
        <ele>678</ele>
        <time>2011-03-19T14:02:22.000Z</time>
      </trkpt>
      <trkpt lat="45.4163" lon="1.90237">
        <ele>677</ele>
        <time>2011-03-19T14:02:28.000Z</time>
      </trkpt>
      <trkpt lat="45.4163" lon="1.90222">
        <ele>676</ele>
        <time>2011-03-19T14:02:33.000Z</time>
      </trkpt>
      <trkpt lat="45.4163" lon="1.90206">
        <ele>678</ele>
        <time>2011-03-19T14:02:38.000Z</time>
      </trkpt>
      <trkpt lat="45.4164" lon="1.90179">
        <ele>685</ele>
        <time>2011-03-19T14:02:44.000Z</time>
      </trkpt>
      <trkpt lat="45.4165" lon="1.90156">
        <ele>687</ele>
        <time>2011-03-19T14:02:49.000Z</time>
      </trkpt>
      <trkpt lat="45.4166" lon="1.90131">
        <ele>694</ele>
        <time>2011-03-19T14:02:54.000Z</time>
      </trkpt>
      <trkpt lat="45.4167" lon="1.90109">
        <ele>697</ele>
        <time>2011-03-19T14:02:59.000Z</time>
      </trkpt>
      <trkpt lat="45.4167" lon="1.90087">
        <ele>699</ele>
        <time>2011-03-19T14:03:04.000Z</time>
      </trkpt>
      <trkpt lat="45.4167" lon="1.90073">
        <ele>703</ele>
        <time>2011-03-19T14:03:09.000Z</time>
      </trkpt>
      <trkpt lat="45.4167" lon="1.90059">
        <ele>706</ele>
        <time>2011-03-19T14:03:14.000Z</time>
      </trkpt>
      <trkpt lat="45.4167" lon="1.90035">
        <ele>703</ele>
        <time>2011-03-19T14:03:20.000Z</time>
      </trkpt>
      <trkpt lat="45.4167" lon="1.90004">
        <ele>701</ele>
        <time>2011-03-19T14:03:25.000Z</time>
      </trkpt>
      <trkpt lat="45.4168" lon="1.89981">
        <ele>703</ele>
        <time>2011-03-19T14:03:30.000Z</time>
      </trkpt>
      <trkpt lat="45.4168" lon="1.89953">
        <ele>697</ele>
        <time>2011-03-19T14:03:36.000Z</time>
      </trkpt>
      <trkpt lat="45.4168" lon="1.89936">
        <ele>691</ele>
        <time>2011-03-19T14:03:41.000Z</time>
      </trkpt>
      <trkpt lat="45.4169" lon="1.89923">
        <ele>691</ele>
        <time>2011-03-19T14:03:46.000Z</time>
      </trkpt>
      <trkpt lat="45.4171" lon="1.89894">
        <ele>692</ele>
        <time>2011-03-19T14:03:51.000Z</time>
      </trkpt>
      <trkpt lat="45.4174" lon="1.89878">
        <ele>696</ele>
        <time>2011-03-19T14:03:57.000Z</time>
      </trkpt>
      <trkpt lat="45.4177" lon="1.89871">
        <ele>697</ele>
        <time>2011-03-19T14:04:02.000Z</time>
      </trkpt>
      <trkpt lat="45.4183" lon="1.8984">
        <ele>699</ele>
        <time>2011-03-19T14:04:07.000Z</time>
      </trkpt>
      <trkpt lat="45.4193" lon="1.89761">
        <ele>690</ele>
        <time>2011-03-19T14:04:13.000Z</time>
      </trkpt>
      <trkpt lat="45.4197" lon="1.89689">
        <ele>680</ele>
        <time>2011-03-19T14:04:18.000Z</time>
      </trkpt>
      <trkpt lat="45.4199" lon="1.89645">
        <ele>678</ele>
        <time>2011-03-19T14:04:23.000Z</time>
      </trkpt>
      <trkpt lat="45.4202" lon="1.89624">
        <ele>678</ele>
        <time>2011-03-19T14:04:29.000Z</time>
      </trkpt>
      <trkpt lat="45.4204" lon="1.89597">
        <ele>678</ele>
        <time>2011-03-19T14:04:34.000Z</time>
      </trkpt>
      <trkpt lat="45.4206" lon="1.89577">
        <ele>675</ele>
        <time>2011-03-19T14:04:39.000Z</time>
      </trkpt>
      <trkpt lat="45.4205" lon="1.89551">
        <ele>679</ele>
        <time>2011-03-19T14:04:45.000Z</time>
      </trkpt>
      <trkpt lat="45.4205" lon="1.89528">
        <ele>682</ele>
        <time>2011-03-19T14:04:50.000Z</time>
      </trkpt>
      <trkpt lat="45.4204" lon="1.89518">
        <ele>685</ele>
        <time>2011-03-19T14:04:55.000Z</time>
      </trkpt>
      <trkpt lat="45.4201" lon="1.8951">
        <ele>685</ele>
        <time>2011-03-19T14:05:01.000Z</time>
      </trkpt>
      <trkpt lat="45.4199" lon="1.89496">
        <ele>688</ele>
        <time>2011-03-19T14:05:06.000Z</time>
      </trkpt>
      <trkpt lat="45.4198" lon="1.89469">
        <ele>687</ele>
        <time>2011-03-19T14:05:11.000Z</time>
      </trkpt>
      <trkpt lat="45.4198" lon="1.89436">
        <ele>685</ele>
        <time>2011-03-19T14:05:17.000Z</time>
      </trkpt>
      <trkpt lat="45.4196" lon="1.89419">
        <ele>685</ele>
        <time>2011-03-19T14:05:22.000Z</time>
      </trkpt>
      <trkpt lat="45.4194" lon="1.89414">
        <ele>684</ele>
        <time>2011-03-19T14:05:27.000Z</time>
      </trkpt>
      <trkpt lat="45.4192" lon="1.89411">
        <ele>682</ele>
        <time>2011-03-19T14:05:33.000Z</time>
      </trkpt>
      <trkpt lat="45.419" lon="1.89406">
        <ele>681</ele>
        <time>2011-03-19T14:05:38.000Z</time>
      </trkpt>
      <trkpt lat="45.4188" lon="1.89406">
        <ele>683</ele>
        <time>2011-03-19T14:05:43.000Z</time>
      </trkpt>
      <trkpt lat="45.4186" lon="1.89398">
        <ele>683</ele>
        <time>2011-03-19T14:05:49.000Z</time>
      </trkpt>
      <trkpt lat="45.4184" lon="1.89391">
        <ele>686</ele>
        <time>2011-03-19T14:05:54.000Z</time>
      </trkpt>
      <trkpt lat="45.4183" lon="1.8938">
        <ele>689</ele>
        <time>2011-03-19T14:05:59.000Z</time>
      </trkpt>
      <trkpt lat="45.4182" lon="1.89361">
        <ele>690</ele>
        <time>2011-03-19T14:06:05.000Z</time>
      </trkpt>
      <trkpt lat="45.418" lon="1.89347">
        <ele>692</ele>
        <time>2011-03-19T14:06:10.000Z</time>
      </trkpt>
      <trkpt lat="45.4179" lon="1.89334">
        <ele>695</ele>
        <time>2011-03-19T14:06:15.000Z</time>
      </trkpt>
      <trkpt lat="45.4177" lon="1.89317">
        <ele>696</ele>
        <time>2011-03-19T14:06:21.000Z</time>
      </trkpt>
      <trkpt lat="45.4176" lon="1.89307">
        <ele>698</ele>
        <time>2011-03-19T14:06:26.000Z</time>
      </trkpt>
      <trkpt lat="45.4174" lon="1.89296">
        <ele>703</ele>
        <time>2011-03-19T14:06:31.000Z</time>
      </trkpt>
      <trkpt lat="45.4173" lon="1.89263">
        <ele>702</ele>
        <time>2011-03-19T14:06:37.000Z</time>
      </trkpt>
      <trkpt lat="45.4172" lon="1.89235">
        <ele>703</ele>
        <time>2011-03-19T14:06:42.000Z</time>
      </trkpt>
      <trkpt lat="45.4172" lon="1.8921">
        <ele>703</ele>
        <time>2011-03-19T14:06:47.000Z</time>
      </trkpt>
      <trkpt lat="45.4172" lon="1.89179">
        <ele>704</ele>
        <time>2011-03-19T14:06:53.000Z</time>
      </trkpt>
      <trkpt lat="45.4172" lon="1.8915">
        <ele>701</ele>
        <time>2011-03-19T14:06:58.000Z</time>
      </trkpt>
      <trkpt lat="45.4171" lon="1.89125">
        <ele>694</ele>
        <time>2011-03-19T14:07:03.000Z</time>
      </trkpt>
      <trkpt lat="45.4171" lon="1.89116">
        <ele>691</ele>
        <time>2011-03-19T14:07:09.000Z</time>
      </trkpt>
      <trkpt lat="45.4172" lon="1.89112">
        <ele>691</ele>
        <time>2011-03-19T14:07:14.000Z</time>
      </trkpt>
      <trkpt lat="45.4175" lon="1.89092">
        <ele>692</ele>
        <time>2011-03-19T14:07:19.000Z</time>
      </trkpt>
      <trkpt lat="45.4178" lon="1.89066">
        <ele>693</ele>
        <time>2011-03-19T14:07:25.000Z</time>
      </trkpt>
      <trkpt lat="45.4183" lon="1.89038">
        <ele>691</ele>
        <time>2011-03-19T14:07:30.000Z</time>
      </trkpt>
      <trkpt lat="45.4186" lon="1.88982">
        <ele>691</ele>
        <time>2011-03-19T14:07:35.000Z</time>
      </trkpt>
      <trkpt lat="45.4191" lon="1.88897">
        <ele>696</ele>
        <time>2011-03-19T14:07:41.000Z</time>
      </trkpt>
      <trkpt lat="45.419" lon="1.8883">
        <ele>694</ele>
        <time>2011-03-19T14:07:46.000Z</time>
      </trkpt>
      <trkpt lat="45.4191" lon="1.88782">
        <ele>687</ele>
        <time>2011-03-19T14:07:51.000Z</time>
      </trkpt>
      <trkpt lat="45.4195" lon="1.88769">
        <ele>683</ele>
        <time>2011-03-19T14:07:57.000Z</time>
      </trkpt>
      <trkpt lat="45.4198" lon="1.88751">
        <ele>682</ele>
        <time>2011-03-19T14:08:02.000Z</time>
      </trkpt>
      <trkpt lat="45.42" lon="1.88734">
        <ele>682</ele>
        <time>2011-03-19T14:08:07.000Z</time>
      </trkpt>
      <trkpt lat="45.4204" lon="1.88677">
        <ele>680</ele>
        <time>2011-03-19T14:08:13.000Z</time>
      </trkpt>
      <trkpt lat="45.4207" lon="1.8862">
        <ele>683</ele>
        <time>2011-03-19T14:08:18.000Z</time>
      </trkpt>
      <trkpt lat="45.4209" lon="1.88571">
        <ele>686</ele>
        <time>2011-03-19T14:08:23.000Z</time>
      </trkpt>
      <trkpt lat="45.4209" lon="1.88499">
        <ele>680</ele>
        <time>2011-03-19T14:08:29.000Z</time>
      </trkpt>
      <trkpt lat="45.4209" lon="1.88464">
        <ele>680</ele>
        <time>2011-03-19T14:08:34.000Z</time>
      </trkpt>
      <trkpt lat="45.4207" lon="1.88439">
        <ele>685</ele>
        <time>2011-03-19T14:08:39.000Z</time>
      </trkpt>
      <trkpt lat="45.4202" lon="1.8839">
        <ele>685</ele>
        <time>2011-03-19T14:08:45.000Z</time>
      </trkpt>
      <trkpt lat="45.4201" lon="1.88324">
        <ele>685</ele>
        <time>2011-03-19T14:08:50.000Z</time>
      </trkpt>
      <trkpt lat="45.4202" lon="1.88262">
        <ele>682</ele>
        <time>2011-03-19T14:08:55.000Z</time>
      </trkpt>
      <trkpt lat="45.4201" lon="1.88204">
        <ele>678</ele>
        <time>2011-03-19T14:09:01.000Z</time>
      </trkpt>
      <trkpt lat="45.4201" lon="1.88168">
        <ele>677</ele>
        <time>2011-03-19T14:09:06.000Z</time>
      </trkpt>
      <trkpt lat="45.4202" lon="1.88151">
        <ele>673</ele>
        <time>2011-03-19T14:09:11.000Z</time>
      </trkpt>
      <trkpt lat="45.4203" lon="1.8814">
        <ele>672</ele>
        <time>2011-03-19T14:09:17.000Z</time>
      </trkpt>
      <trkpt lat="45.4202" lon="1.8813">
        <ele>666</ele>
        <time>2011-03-19T14:09:22.000Z</time>
      </trkpt>
      <trkpt lat="45.4202" lon="1.88134">
        <ele>668</ele>
        <time>2011-03-19T14:09:27.000Z</time>
      </trkpt>
      <trkpt lat="45.4201" lon="1.8815">
        <ele>670</ele>
        <time>2011-03-19T14:09:33.000Z</time>
      </trkpt>
      <trkpt lat="45.4201" lon="1.88164">
        <ele>672</ele>
        <time>2011-03-19T14:09:38.000Z</time>
      </trkpt>
      <trkpt lat="45.4201" lon="1.88183">
        <ele>676</ele>
        <time>2011-03-19T14:09:43.000Z</time>
      </trkpt>
      <trkpt lat="45.4201" lon="1.88199">
        <ele>675</ele>
        <time>2011-03-19T14:09:49.000Z</time>
      </trkpt>
      <trkpt lat="45.4201" lon="1.88218">
        <ele>671</ele>
        <time>2011-03-19T14:09:54.000Z</time>
      </trkpt>
      <trkpt lat="45.4201" lon="1.88242">
        <ele>668</ele>
        <time>2011-03-19T14:09:59.000Z</time>
      </trkpt>
      <trkpt lat="45.4202" lon="1.88271">
        <ele>669</ele>
        <time>2011-03-19T14:10:05.000Z</time>
      </trkpt>
      <trkpt lat="45.4202" lon="1.88292">
        <ele>665</ele>
        <time>2011-03-19T14:10:10.000Z</time>
      </trkpt>
      <trkpt lat="45.4202" lon="1.88311">
        <ele>665</ele>
        <time>2011-03-19T14:10:15.000Z</time>
      </trkpt>
      <trkpt lat="45.4203" lon="1.88329">
        <ele>664</ele>
        <time>2011-03-19T14:10:21.000Z</time>
      </trkpt>
      <trkpt lat="45.4203" lon="1.8834">
        <ele>666</ele>
        <time>2011-03-19T14:10:26.000Z</time>
      </trkpt>
      <trkpt lat="45.4204" lon="1.8835">
        <ele>668</ele>
        <time>2011-03-19T14:10:31.000Z</time>
      </trkpt>
      <trkpt lat="45.4205" lon="1.88358">
        <ele>673</ele>
        <time>2011-03-19T14:10:37.000Z</time>
      </trkpt>
      <trkpt lat="45.4207" lon="1.88359">
        <ele>677</ele>
        <time>2011-03-19T14:10:42.000Z</time>
      </trkpt>
      <trkpt lat="45.4207" lon="1.88366">
        <ele>679</ele>
        <time>2011-03-19T14:10:47.000Z</time>
      </trkpt>
      <trkpt lat="45.4209" lon="1.88371">
        <ele>678</ele>
        <time>2011-03-19T14:10:53.000Z</time>
      </trkpt>
      <trkpt lat="45.421" lon="1.88368">
        <ele>675</ele>
        <time>2011-03-19T14:10:58.000Z</time>
      </trkpt>
      <trkpt lat="45.4212" lon="1.88367">
        <ele>677</ele>
        <time>2011-03-19T14:11:03.000Z</time>
      </trkpt>
      <trkpt lat="45.4214" lon="1.88365">
        <ele>679</ele>
        <time>2011-03-19T14:11:09.000Z</time>
      </trkpt>
      <trkpt lat="45.4215" lon="1.88358">
        <ele>679</ele>
        <time>2011-03-19T14:11:14.000Z</time>
      </trkpt>
      <trkpt lat="45.4216" lon="1.88353">
        <ele>680</ele>
        <time>2011-03-19T14:11:19.000Z</time>
      </trkpt>
      <trkpt lat="45.4218" lon="1.88359">
        <ele>681</ele>
        <time>2011-03-19T14:11:25.000Z</time>
      </trkpt>
      <trkpt lat="45.422" lon="1.88368">
        <ele>680</ele>
        <time>2011-03-19T14:11:30.000Z</time>
      </trkpt>
      <trkpt lat="45.4221" lon="1.88382">
        <ele>680</ele>
        <time>2011-03-19T14:11:35.000Z</time>
      </trkpt>
      <trkpt lat="45.4222" lon="1.88397">
        <ele>680</ele>
        <time>2011-03-19T14:11:41.000Z</time>
      </trkpt>
      <trkpt lat="45.4223" lon="1.88417">
        <ele>682</ele>
        <time>2011-03-19T14:11:46.000Z</time>
      </trkpt>
      <trkpt lat="45.4224" lon="1.8843">
        <ele>685</ele>
        <time>2011-03-19T14:11:51.000Z</time>
      </trkpt>
      <trkpt lat="45.4226" lon="1.8844">
        <ele>689</ele>
        <time>2011-03-19T14:11:57.000Z</time>
      </trkpt>
      <trkpt lat="45.4227" lon="1.8844">
        <ele>690</ele>
        <time>2011-03-19T14:12:02.000Z</time>
      </trkpt>
      <trkpt lat="45.4228" lon="1.88442">
        <ele>695</ele>
        <time>2011-03-19T14:12:07.000Z</time>
      </trkpt>
      <trkpt lat="45.423" lon="1.8844">
        <ele>697</ele>
        <time>2011-03-19T14:12:13.000Z</time>
      </trkpt>
      <trkpt lat="45.4232" lon="1.88441">
        <ele>701</ele>
        <time>2011-03-19T14:12:18.000Z</time>
      </trkpt>
      <trkpt lat="45.4233" lon="1.88439">
        <ele>703</ele>
        <time>2011-03-19T14:12:23.000Z</time>
      </trkpt>
      <trkpt lat="45.4236" lon="1.88442">
        <ele>701</ele>
        <time>2011-03-19T14:12:29.000Z</time>
      </trkpt>
      <trkpt lat="45.4237" lon="1.88436">
        <ele>701</ele>
        <time>2011-03-19T14:12:34.000Z</time>
      </trkpt>
      <trkpt lat="45.424" lon="1.88423">
        <ele>703</ele>
        <time>2011-03-19T14:12:39.000Z</time>
      </trkpt>
      <trkpt lat="45.4242" lon="1.88413">
        <ele>701</ele>
        <time>2011-03-19T14:12:45.000Z</time>
      </trkpt>
      <trkpt lat="45.4244" lon="1.88412">
        <ele>699</ele>
        <time>2011-03-19T14:12:50.000Z</time>
      </trkpt>
      <trkpt lat="45.4246" lon="1.88411">
        <ele>698</ele>
        <time>2011-03-19T14:12:55.000Z</time>
      </trkpt>
      <trkpt lat="45.4249" lon="1.88422">
        <ele>696</ele>
        <time>2011-03-19T14:13:01.000Z</time>
      </trkpt>
      <trkpt lat="45.4252" lon="1.88428">
        <ele>695</ele>
        <time>2011-03-19T14:13:06.000Z</time>
      </trkpt>
      <trkpt lat="45.4255" lon="1.88451">
        <ele>691</ele>
        <time>2011-03-19T14:13:11.000Z</time>
      </trkpt>
      <trkpt lat="45.4258" lon="1.8846">
        <ele>691</ele>
        <time>2011-03-19T14:13:17.000Z</time>
      </trkpt>
      <trkpt lat="45.4261" lon="1.88451">
        <ele>694</ele>
        <time>2011-03-19T14:13:22.000Z</time>
      </trkpt>
      <trkpt lat="45.4264" lon="1.88448">
        <ele>694</ele>
        <time>2011-03-19T14:13:27.000Z</time>
      </trkpt>
      <trkpt lat="45.4267" lon="1.88448">
        <ele>693</ele>
        <time>2011-03-19T14:13:33.000Z</time>
      </trkpt>
      <trkpt lat="45.4269" lon="1.88447">
        <ele>696</ele>
        <time>2011-03-19T14:13:38.000Z</time>
      </trkpt>
      <trkpt lat="45.4272" lon="1.88429">
        <ele>695</ele>
        <time>2011-03-19T14:13:43.000Z</time>
      </trkpt>
      <trkpt lat="45.4275" lon="1.88423">
        <ele>696</ele>
        <time>2011-03-19T14:13:48.000Z</time>
      </trkpt>
      <trkpt lat="45.4278" lon="1.88403">
        <ele>698</ele>
        <time>2011-03-19T14:13:53.000Z</time>
      </trkpt>
      <trkpt lat="45.4282" lon="1.88381">
        <ele>689</ele>
        <time>2011-03-19T14:13:59.000Z</time>
      </trkpt>
      <trkpt lat="45.4283" lon="1.88353">
        <ele>686</ele>
        <time>2011-03-19T14:14:04.000Z</time>
      </trkpt>
      <trkpt lat="45.4284" lon="1.8833">
        <ele>686</ele>
        <time>2011-03-19T14:14:09.000Z</time>
      </trkpt>
      <trkpt lat="45.4286" lon="1.88302">
        <ele>682</ele>
        <time>2011-03-19T14:14:15.000Z</time>
      </trkpt>
      <trkpt lat="45.4289" lon="1.8828">
        <ele>681</ele>
        <time>2011-03-19T14:14:20.000Z</time>
      </trkpt>
      <trkpt lat="45.429" lon="1.88266">
        <ele>682</ele>
        <time>2011-03-19T14:14:25.000Z</time>
      </trkpt>
      <trkpt lat="45.4292" lon="1.8825">
        <ele>685</ele>
        <time>2011-03-19T14:14:31.000Z</time>
      </trkpt>
      <trkpt lat="45.4293" lon="1.88219">
        <ele>688</ele>
        <time>2011-03-19T14:14:36.000Z</time>
      </trkpt>
      <trkpt lat="45.4294" lon="1.88176">
        <ele>697</ele>
        <time>2011-03-19T14:14:41.000Z</time>
      </trkpt>
      <trkpt lat="45.4293" lon="1.88123">
        <ele>705</ele>
        <time>2011-03-19T14:14:47.000Z</time>
      </trkpt>
      <trkpt lat="45.4292" lon="1.88053">
        <ele>704</ele>
        <time>2011-03-19T14:14:52.000Z</time>
      </trkpt>
      <trkpt lat="45.4292" lon="1.87997">
        <ele>709</ele>
        <time>2011-03-19T14:14:57.000Z</time>
      </trkpt>
      <trkpt lat="45.4291" lon="1.87945">
        <ele>711</ele>
        <time>2011-03-19T14:15:03.000Z</time>
      </trkpt>
      <trkpt lat="45.4291" lon="1.87911">
        <ele>706</ele>
        <time>2011-03-19T14:15:08.000Z</time>
      </trkpt>
      <trkpt lat="45.4293" lon="1.87872">
        <ele>698</ele>
        <time>2011-03-19T14:15:13.000Z</time>
      </trkpt>
      <trkpt lat="45.4299" lon="1.87852">
        <ele>701</ele>
        <time>2011-03-19T14:15:19.000Z</time>
      </trkpt>
      <trkpt lat="45.4301" lon="1.87843">
        <ele>699</ele>
        <time>2011-03-19T14:15:24.000Z</time>
      </trkpt>
      <trkpt lat="45.4303" lon="1.87852">
        <ele>694</ele>
        <time>2011-03-19T14:15:29.000Z</time>
      </trkpt>
      <trkpt lat="45.4306" lon="1.87843">
        <ele>690</ele>
        <time>2011-03-19T14:15:35.000Z</time>
      </trkpt>
      <trkpt lat="45.4309" lon="1.87827">
        <ele>684</ele>
        <time>2011-03-19T14:15:40.000Z</time>
      </trkpt>
      <trkpt lat="45.4314" lon="1.87826">
        <ele>683</ele>
        <time>2011-03-19T14:15:45.000Z</time>
      </trkpt>
      <trkpt lat="45.4321" lon="1.8782">
        <ele>679</ele>
        <time>2011-03-19T14:15:51.000Z</time>
      </trkpt>
      <trkpt lat="45.4329" lon="1.87809">
        <ele>678</ele>
        <time>2011-03-19T14:15:56.000Z</time>
      </trkpt>
      <trkpt lat="45.4336" lon="1.87814">
        <ele>676</ele>
        <time>2011-03-19T14:16:01.000Z</time>
      </trkpt>
      <trkpt lat="45.4341" lon="1.87809">
        <ele>668</ele>
        <time>2011-03-19T14:16:07.000Z</time>
      </trkpt>
      <trkpt lat="45.4345" lon="1.87821">
        <ele>662</ele>
        <time>2011-03-19T14:16:12.000Z</time>
      </trkpt>
      <trkpt lat="45.4347" lon="1.87837">
        <ele>658</ele>
        <time>2011-03-19T14:16:17.000Z</time>
      </trkpt>
      <trkpt lat="45.4349" lon="1.87857">
        <ele>654</ele>
        <time>2011-03-19T14:16:23.000Z</time>
      </trkpt>
      <trkpt lat="45.4351" lon="1.87886">
        <ele>647</ele>
        <time>2011-03-19T14:16:28.000Z</time>
      </trkpt>
      <trkpt lat="45.4353" lon="1.87916">
        <ele>645</ele>
        <time>2011-03-19T14:16:33.000Z</time>
      </trkpt>
      <trkpt lat="45.4357" lon="1.87941">
        <ele>643</ele>
        <time>2011-03-19T14:16:39.000Z</time>
      </trkpt>
      <trkpt lat="45.4359" lon="1.87951">
        <ele>641</ele>
        <time>2011-03-19T14:16:44.000Z</time>
      </trkpt>
      <trkpt lat="45.4362" lon="1.87956">
        <ele>638</ele>
        <time>2011-03-19T14:16:49.000Z</time>
      </trkpt>
      <trkpt lat="45.4365" lon="1.87949">
        <ele>638</ele>
        <time>2011-03-19T14:16:55.000Z</time>
      </trkpt>
      <trkpt lat="45.4367" lon="1.8794">
        <ele>639</ele>
        <time>2011-03-19T14:17:00.000Z</time>
      </trkpt>
      <trkpt lat="45.437" lon="1.87932">
        <ele>639</ele>
        <time>2011-03-19T14:17:05.000Z</time>
      </trkpt>
      <trkpt lat="45.4372" lon="1.87933">
        <ele>638</ele>
        <time>2011-03-19T14:17:11.000Z</time>
      </trkpt>
      <trkpt lat="45.4373" lon="1.87934">
        <ele>639</ele>
        <time>2011-03-19T14:17:16.000Z</time>
      </trkpt>
      <trkpt lat="45.4375" lon="1.87936">
        <ele>637</ele>
        <time>2011-03-19T14:17:21.000Z</time>
      </trkpt>
      <trkpt lat="45.4377" lon="1.8793">
        <ele>637</ele>
        <time>2011-03-19T14:17:27.000Z</time>
      </trkpt>
      <trkpt lat="45.4379" lon="1.87917">
        <ele>639</ele>
        <time>2011-03-19T14:17:32.000Z</time>
      </trkpt>
      <trkpt lat="45.4382" lon="1.87883">
        <ele>640</ele>
        <time>2011-03-19T14:17:37.000Z</time>
      </trkpt>
      <trkpt lat="45.4385" lon="1.87854">
        <ele>639</ele>
        <time>2011-03-19T14:17:43.000Z</time>
      </trkpt>
      <trkpt lat="45.4388" lon="1.87846">
        <ele>638</ele>
        <time>2011-03-19T14:17:48.000Z</time>
      </trkpt>
      <trkpt lat="45.4391" lon="1.87847">
        <ele>639</ele>
        <time>2011-03-19T14:17:53.000Z</time>
      </trkpt>
      <trkpt lat="45.4394" lon="1.87837">
        <ele>639</ele>
        <time>2011-03-19T14:17:59.000Z</time>
      </trkpt>
      <trkpt lat="45.4396" lon="1.87829">
        <ele>640</ele>
        <time>2011-03-19T14:18:04.000Z</time>
      </trkpt>
      <trkpt lat="45.4398" lon="1.87822">
        <ele>641</ele>
        <time>2011-03-19T14:18:09.000Z</time>
      </trkpt>
      <trkpt lat="45.44" lon="1.87812">
        <ele>641</ele>
        <time>2011-03-19T14:18:15.000Z</time>
      </trkpt>
      <trkpt lat="45.4402" lon="1.87809">
        <ele>640</ele>
        <time>2011-03-19T14:18:20.000Z</time>
      </trkpt>
      <trkpt lat="45.4404" lon="1.87799">
        <ele>638</ele>
        <time>2011-03-19T14:18:25.000Z</time>
      </trkpt>
      <trkpt lat="45.4405" lon="1.87785">
        <ele>637</ele>
        <time>2011-03-19T14:18:31.000Z</time>
      </trkpt>
      <trkpt lat="45.4406" lon="1.87768">
        <ele>636</ele>
        <time>2011-03-19T14:18:36.000Z</time>
      </trkpt>
      <trkpt lat="45.4409" lon="1.87748">
        <ele>638</ele>
        <time>2011-03-19T14:18:41.000Z</time>
      </trkpt>
      <trkpt lat="45.4412" lon="1.87734">
        <ele>637</ele>
        <time>2011-03-19T14:18:47.000Z</time>
      </trkpt>
      <trkpt lat="45.4414" lon="1.8773">
        <ele>632</ele>
        <time>2011-03-19T14:18:52.000Z</time>
      </trkpt>
      <trkpt lat="45.4416" lon="1.87737">
        <ele>628</ele>
        <time>2011-03-19T14:18:57.000Z</time>
      </trkpt>
      <trkpt lat="45.4418" lon="1.87742">
        <ele>628</ele>
        <time>2011-03-19T14:19:03.000Z</time>
      </trkpt>
      <trkpt lat="45.4419" lon="1.8774">
        <ele>629</ele>
        <time>2011-03-19T14:19:08.000Z</time>
      </trkpt>
      <trkpt lat="45.442" lon="1.87743">
        <ele>632</ele>
        <time>2011-03-19T14:19:13.000Z</time>
      </trkpt>
      <trkpt lat="45.4421" lon="1.87743">
        <ele>636</ele>
        <time>2011-03-19T14:19:19.000Z</time>
      </trkpt>
      <trkpt lat="45.4422" lon="1.87737">
        <ele>638</ele>
        <time>2011-03-19T14:19:24.000Z</time>
      </trkpt>
      <trkpt lat="45.4423" lon="1.87726">
        <ele>640</ele>
        <time>2011-03-19T14:19:29.000Z</time>
      </trkpt>
      <trkpt lat="45.4425" lon="1.87705">
        <ele>644</ele>
        <time>2011-03-19T14:19:35.000Z</time>
      </trkpt>
      <trkpt lat="45.4426" lon="1.87708">
        <ele>645</ele>
        <time>2011-03-19T14:19:40.000Z</time>
      </trkpt>
      <trkpt lat="45.4428" lon="1.87712">
        <ele>644</ele>
        <time>2011-03-19T14:19:45.000Z</time>
      </trkpt>
      <trkpt lat="45.443" lon="1.87719">
        <ele>643</ele>
        <time>2011-03-19T14:19:51.000Z</time>
      </trkpt>
      <trkpt lat="45.443" lon="1.87727">
        <ele>643</ele>
        <time>2011-03-19T14:19:56.000Z</time>
      </trkpt>
      <trkpt lat="45.4432" lon="1.87736">
        <ele>643</ele>
        <time>2011-03-19T14:20:01.000Z</time>
      </trkpt>
      <trkpt lat="45.4434" lon="1.87736">
        <ele>643</ele>
        <time>2011-03-19T14:20:07.000Z</time>
      </trkpt>
      <trkpt lat="45.4437" lon="1.87732">
        <ele>641</ele>
        <time>2011-03-19T14:20:12.000Z</time>
      </trkpt>
      <trkpt lat="45.4438" lon="1.87736">
        <ele>641</ele>
        <time>2011-03-19T14:20:17.000Z</time>
      </trkpt>
      <trkpt lat="45.4441" lon="1.87743">
        <ele>641</ele>
        <time>2011-03-19T14:20:23.000Z</time>
      </trkpt>
      <trkpt lat="45.4443" lon="1.8775">
        <ele>644</ele>
        <time>2011-03-19T14:20:28.000Z</time>
      </trkpt>
      <trkpt lat="45.4445" lon="1.87755">
        <ele>644</ele>
        <time>2011-03-19T14:20:33.000Z</time>
      </trkpt>
      <trkpt lat="45.4448" lon="1.87756">
        <ele>642</ele>
        <time>2011-03-19T14:20:39.000Z</time>
      </trkpt>
      <trkpt lat="45.445" lon="1.87763">
        <ele>642</ele>
        <time>2011-03-19T14:20:44.000Z</time>
      </trkpt>
      <trkpt lat="45.4453" lon="1.8777">
        <ele>641</ele>
        <time>2011-03-19T14:20:49.000Z</time>
      </trkpt>
      <trkpt lat="45.4455" lon="1.87776">
        <ele>642</ele>
        <time>2011-03-19T14:20:55.000Z</time>
      </trkpt>
      <trkpt lat="45.4457" lon="1.87781">
        <ele>642</ele>
        <time>2011-03-19T14:21:00.000Z</time>
      </trkpt>
      <trkpt lat="45.4459" lon="1.87788">
        <ele>642</ele>
        <time>2011-03-19T14:21:05.000Z</time>
      </trkpt>
      <trkpt lat="45.4461" lon="1.87796">
        <ele>642</ele>
        <time>2011-03-19T14:21:11.000Z</time>
      </trkpt>
      <trkpt lat="45.4463" lon="1.87799">
        <ele>641</ele>
        <time>2011-03-19T14:21:16.000Z</time>
      </trkpt>
      <trkpt lat="45.4465" lon="1.87806">
        <ele>635</ele>
        <time>2011-03-19T14:21:21.000Z</time>
      </trkpt>
      <trkpt lat="45.4468" lon="1.87815">
        <ele>635</ele>
        <time>2011-03-19T14:21:27.000Z</time>
      </trkpt>
      <trkpt lat="45.447" lon="1.87823">
        <ele>635</ele>
        <time>2011-03-19T14:21:32.000Z</time>
      </trkpt>
      <trkpt lat="45.4472" lon="1.87823">
        <ele>634</ele>
        <time>2011-03-19T14:21:37.000Z</time>
      </trkpt>
      <trkpt lat="45.4475" lon="1.87828">
        <ele>635</ele>
        <time>2011-03-19T14:21:43.000Z</time>
      </trkpt>
      <trkpt lat="45.4476" lon="1.87832">
        <ele>634</ele>
        <time>2011-03-19T14:21:48.000Z</time>
      </trkpt>
      <trkpt lat="45.4478" lon="1.8784">
        <ele>634</ele>
        <time>2011-03-19T14:21:53.000Z</time>
      </trkpt>
      <trkpt lat="45.448" lon="1.87847">
        <ele>638</ele>
        <time>2011-03-19T14:21:59.000Z</time>
      </trkpt>
      <trkpt lat="45.4482" lon="1.87853">
        <ele>639</ele>
        <time>2011-03-19T14:22:04.000Z</time>
      </trkpt>
      <trkpt lat="45.4483" lon="1.8786">
        <ele>639</ele>
        <time>2011-03-19T14:22:09.000Z</time>
      </trkpt>
      <trkpt lat="45.4487" lon="1.8786">
        <ele>637</ele>
        <time>2011-03-19T14:22:15.000Z</time>
      </trkpt>
      <trkpt lat="45.4489" lon="1.87865">
        <ele>636</ele>
        <time>2011-03-19T14:22:20.000Z</time>
      </trkpt>
      <trkpt lat="45.4491" lon="1.87872">
        <ele>634</ele>
        <time>2011-03-19T14:22:25.000Z</time>
      </trkpt>
      <trkpt lat="45.4493" lon="1.87885">
        <ele>632</ele>
        <time>2011-03-19T14:22:31.000Z</time>
      </trkpt>
      <trkpt lat="45.4495" lon="1.87892">
        <ele>631</ele>
        <time>2011-03-19T14:22:36.000Z</time>
      </trkpt>
      <trkpt lat="45.4497" lon="1.87906">
        <ele>640</ele>
        <time>2011-03-19T14:22:41.000Z</time>
      </trkpt>
      <trkpt lat="45.4499" lon="1.87922">
        <ele>644</ele>
        <time>2011-03-19T14:22:47.000Z</time>
      </trkpt>
      <trkpt lat="45.4501" lon="1.8794">
        <ele>648</ele>
        <time>2011-03-19T14:22:52.000Z</time>
      </trkpt>
      <trkpt lat="45.4502" lon="1.87958">
        <ele>651</ele>
        <time>2011-03-19T14:22:57.000Z</time>
      </trkpt>
      <trkpt lat="45.4504" lon="1.8798">
        <ele>652</ele>
        <time>2011-03-19T14:23:03.000Z</time>
      </trkpt>
      <trkpt lat="45.4505" lon="1.87992">
        <ele>654</ele>
        <time>2011-03-19T14:23:08.000Z</time>
      </trkpt>
      <trkpt lat="45.4507" lon="1.88">
        <ele>655</ele>
        <time>2011-03-19T14:23:13.000Z</time>
      </trkpt>
      <trkpt lat="45.4509" lon="1.88001">
        <ele>655</ele>
        <time>2011-03-19T14:23:19.000Z</time>
      </trkpt>
      <trkpt lat="45.4511" lon="1.87999">
        <ele>657</ele>
        <time>2011-03-19T14:23:24.000Z</time>
      </trkpt>
      <trkpt lat="45.4513" lon="1.87991">
        <ele>657</ele>
        <time>2011-03-19T14:23:29.000Z</time>
      </trkpt>
      <trkpt lat="45.4515" lon="1.87987">
        <ele>659</ele>
        <time>2011-03-19T14:23:35.000Z</time>
      </trkpt>
      <trkpt lat="45.4517" lon="1.87982">
        <ele>661</ele>
        <time>2011-03-19T14:23:40.000Z</time>
      </trkpt>
      <trkpt lat="45.4519" lon="1.87993">
        <ele>658</ele>
        <time>2011-03-19T14:23:45.000Z</time>
      </trkpt>
      <trkpt lat="45.4521" lon="1.8799">
        <ele>659</ele>
        <time>2011-03-19T14:23:51.000Z</time>
      </trkpt>
      <trkpt lat="45.4523" lon="1.8798">
        <ele>663</ele>
        <time>2011-03-19T14:23:56.000Z</time>
      </trkpt>
      <trkpt lat="45.4525" lon="1.87975">
        <ele>666</ele>
        <time>2011-03-19T14:24:01.000Z</time>
      </trkpt>
      <trkpt lat="45.4526" lon="1.87976">
        <ele>669</ele>
        <time>2011-03-19T14:24:07.000Z</time>
      </trkpt>
      <trkpt lat="45.4528" lon="1.87982">
        <ele>672</ele>
        <time>2011-03-19T14:24:12.000Z</time>
      </trkpt>
      <trkpt lat="45.4529" lon="1.87995">
        <ele>676</ele>
        <time>2011-03-19T14:24:17.000Z</time>
      </trkpt>
      <trkpt lat="45.4532" lon="1.87999">
        <ele>676</ele>
        <time>2011-03-19T14:24:23.000Z</time>
      </trkpt>
      <trkpt lat="45.4533" lon="1.88008">
        <ele>677</ele>
        <time>2011-03-19T14:24:28.000Z</time>
      </trkpt>
      <trkpt lat="45.4535" lon="1.88015">
        <ele>681</ele>
        <time>2011-03-19T14:24:33.000Z</time>
      </trkpt>
      <trkpt lat="45.4538" lon="1.8802">
        <ele>682</ele>
        <time>2011-03-19T14:24:39.000Z</time>
      </trkpt>
      <trkpt lat="45.4539" lon="1.88031">
        <ele>684</ele>
        <time>2011-03-19T14:24:44.000Z</time>
      </trkpt>
      <trkpt lat="45.4542" lon="1.88041">
        <ele>684</ele>
        <time>2011-03-19T14:24:49.000Z</time>
      </trkpt>
      <trkpt lat="45.4544" lon="1.88048">
        <ele>684</ele>
        <time>2011-03-19T14:24:55.000Z</time>
      </trkpt>
      <trkpt lat="45.4545" lon="1.88053">
        <ele>687</ele>
        <time>2011-03-19T14:25:00.000Z</time>
      </trkpt>
      <trkpt lat="45.4546" lon="1.88065">
        <ele>691</ele>
        <time>2011-03-19T14:25:05.000Z</time>
      </trkpt>
      <trkpt lat="45.4549" lon="1.88083">
        <ele>692</ele>
        <time>2011-03-19T14:25:11.000Z</time>
      </trkpt>
      <trkpt lat="45.455" lon="1.88097">
        <ele>693</ele>
        <time>2011-03-19T14:25:16.000Z</time>
      </trkpt>
      <trkpt lat="45.4552" lon="1.88099">
        <ele>688</ele>
        <time>2011-03-19T14:25:21.000Z</time>
      </trkpt>
      <trkpt lat="45.4554" lon="1.88118">
        <ele>687</ele>
        <time>2011-03-19T14:25:27.000Z</time>
      </trkpt>
      <trkpt lat="45.4556" lon="1.88136">
        <ele>685</ele>
        <time>2011-03-19T14:25:32.000Z</time>
      </trkpt>
      <trkpt lat="45.4558" lon="1.88144">
        <ele>684</ele>
        <time>2011-03-19T14:25:37.000Z</time>
      </trkpt>
      <trkpt lat="45.4559" lon="1.88137">
        <ele>683</ele>
        <time>2011-03-19T14:25:43.000Z</time>
      </trkpt>
      <trkpt lat="45.4562" lon="1.88123">
        <ele>682</ele>
        <time>2011-03-19T14:25:48.000Z</time>
      </trkpt>
      <trkpt lat="45.4564" lon="1.88142">
        <ele>682</ele>
        <time>2011-03-19T14:25:53.000Z</time>
      </trkpt>
      <trkpt lat="45.4566" lon="1.8817">
        <ele>682</ele>
        <time>2011-03-19T14:25:59.000Z</time>
      </trkpt>
      <trkpt lat="45.4567" lon="1.88183">
        <ele>682</ele>
        <time>2011-03-19T14:26:04.000Z</time>
      </trkpt>
      <trkpt lat="45.4569" lon="1.88199">
        <ele>682</ele>
        <time>2011-03-19T14:26:09.000Z</time>
      </trkpt>
      <trkpt lat="45.4571" lon="1.88218">
        <ele>683</ele>
        <time>2011-03-19T14:26:15.000Z</time>
      </trkpt>
      <trkpt lat="45.4572" lon="1.88236">
        <ele>683</ele>
        <time>2011-03-19T14:26:20.000Z</time>
      </trkpt>
      <trkpt lat="45.4574" lon="1.88244">
        <ele>684</ele>
        <time>2011-03-19T14:26:25.000Z</time>
      </trkpt>
      <trkpt lat="45.4577" lon="1.88258">
        <ele>686</ele>
        <time>2011-03-19T14:26:31.000Z</time>
      </trkpt>
      <trkpt lat="45.4579" lon="1.88271">
        <ele>686</ele>
        <time>2011-03-19T14:26:36.000Z</time>
      </trkpt>
      <trkpt lat="45.4583" lon="1.88282">
        <ele>687</ele>
        <time>2011-03-19T14:26:41.000Z</time>
      </trkpt>
      <trkpt lat="45.4588" lon="1.88249">
        <ele>684</ele>
        <time>2011-03-19T14:26:47.000Z</time>
      </trkpt>
      <trkpt lat="45.459" lon="1.88205">
        <ele>682</ele>
        <time>2011-03-19T14:26:52.000Z</time>
      </trkpt>
      <trkpt lat="45.4592" lon="1.88154">
        <ele>683</ele>
        <time>2011-03-19T14:26:57.000Z</time>
      </trkpt>
      <trkpt lat="45.4594" lon="1.88094">
        <ele>683</ele>
        <time>2011-03-19T14:27:03.000Z</time>
      </trkpt>
      <trkpt lat="45.4594" lon="1.88048">
        <ele>682</ele>
        <time>2011-03-19T14:27:08.000Z</time>
      </trkpt>
      <trkpt lat="45.4596" lon="1.88038">
        <ele>679</ele>
        <time>2011-03-19T14:27:13.000Z</time>
      </trkpt>
      <trkpt lat="45.46" lon="1.88027">
        <ele>680</ele>
        <time>2011-03-19T14:27:19.000Z</time>
      </trkpt>
      <trkpt lat="45.4604" lon="1.88016">
        <ele>681</ele>
        <time>2011-03-19T14:27:24.000Z</time>
      </trkpt>
      <trkpt lat="45.4608" lon="1.8802">
        <ele>681</ele>
        <time>2011-03-19T14:27:29.000Z</time>
      </trkpt>
      <trkpt lat="45.4612" lon="1.88015">
        <ele>681</ele>
        <time>2011-03-19T14:27:35.000Z</time>
      </trkpt>
      <trkpt lat="45.4616" lon="1.88002">
        <ele>681</ele>
        <time>2011-03-19T14:27:40.000Z</time>
      </trkpt>
      <trkpt lat="45.4618" lon="1.87997">
        <ele>681</ele>
        <time>2011-03-19T14:27:45.000Z</time>
      </trkpt>
      <trkpt lat="45.4619" lon="1.87999">
        <ele>676</ele>
        <time>2011-03-19T14:27:51.000Z</time>
      </trkpt>
      <trkpt lat="45.462" lon="1.87998">
        <ele>674</ele>
        <time>2011-03-19T14:27:56.000Z</time>
      </trkpt>
      <trkpt lat="45.4621" lon="1.87993">
        <ele>671</ele>
        <time>2011-03-19T14:28:01.000Z</time>
      </trkpt>
      <trkpt lat="45.4623" lon="1.87986">
        <ele>670</ele>
        <time>2011-03-19T14:28:07.000Z</time>
      </trkpt>
      <trkpt lat="45.4624" lon="1.87975">
        <ele>668</ele>
        <time>2011-03-19T14:28:12.000Z</time>
      </trkpt>
      <trkpt lat="45.4625" lon="1.87966">
        <ele>669</ele>
        <time>2011-03-19T14:28:17.000Z</time>
      </trkpt>
      <trkpt lat="45.4627" lon="1.87964">
        <ele>672</ele>
        <time>2011-03-19T14:28:23.000Z</time>
      </trkpt>
      <trkpt lat="45.4629" lon="1.8797">
        <ele>672</ele>
        <time>2011-03-19T14:28:28.000Z</time>
      </trkpt>
      <trkpt lat="45.463" lon="1.8798">
        <ele>671</ele>
        <time>2011-03-19T14:28:33.000Z</time>
      </trkpt>
      <trkpt lat="45.4631" lon="1.87987">
        <ele>673</ele>
        <time>2011-03-19T14:28:39.000Z</time>
      </trkpt>
      <trkpt lat="45.4632" lon="1.8799">
        <ele>674</ele>
        <time>2011-03-19T14:28:44.000Z</time>
      </trkpt>
      <trkpt lat="45.4633" lon="1.87987">
        <ele>674</ele>
        <time>2011-03-19T14:28:49.000Z</time>
      </trkpt>
      <trkpt lat="45.4635" lon="1.87992">
        <ele>675</ele>
        <time>2011-03-19T14:28:55.000Z</time>
      </trkpt>
      <trkpt lat="45.4636" lon="1.87987">
        <ele>678</ele>
        <time>2011-03-19T14:29:00.000Z</time>
      </trkpt>
      <trkpt lat="45.4638" lon="1.87985">
        <ele>677</ele>
        <time>2011-03-19T14:29:05.000Z</time>
      </trkpt>
      <trkpt lat="45.464" lon="1.8799">
        <ele>676</ele>
        <time>2011-03-19T14:29:11.000Z</time>
      </trkpt>
      <trkpt lat="45.4642" lon="1.87993">
        <ele>676</ele>
        <time>2011-03-19T14:29:16.000Z</time>
      </trkpt>
      <trkpt lat="45.4643" lon="1.87999">
        <ele>676</ele>
        <time>2011-03-19T14:29:21.000Z</time>
      </trkpt>
      <trkpt lat="45.4645" lon="1.8801">
        <ele>680</ele>
        <time>2011-03-19T14:29:27.000Z</time>
      </trkpt>
      <trkpt lat="45.4647" lon="1.88014">
        <ele>680</ele>
        <time>2011-03-19T14:29:32.000Z</time>
      </trkpt>
      <trkpt lat="45.4648" lon="1.8802">
        <ele>679</ele>
        <time>2011-03-19T14:29:37.000Z</time>
      </trkpt>
      <trkpt lat="45.4651" lon="1.88022">
        <ele>678</ele>
        <time>2011-03-19T14:29:43.000Z</time>
      </trkpt>
      <trkpt lat="45.4652" lon="1.88018">
        <ele>678</ele>
        <time>2011-03-19T14:29:48.000Z</time>
      </trkpt>
      <trkpt lat="45.4653" lon="1.88007">
        <ele>679</ele>
        <time>2011-03-19T14:29:53.000Z</time>
      </trkpt>
      <trkpt lat="45.4655" lon="1.87992">
        <ele>675</ele>
        <time>2011-03-19T14:29:59.000Z</time>
      </trkpt>
      <trkpt lat="45.4656" lon="1.87975">
        <ele>674</ele>
        <time>2011-03-19T14:30:04.000Z</time>
      </trkpt>
      <trkpt lat="45.4657" lon="1.87962">
        <ele>675</ele>
        <time>2011-03-19T14:30:09.000Z</time>
      </trkpt>
      <trkpt lat="45.4659" lon="1.87942">
        <ele>678</ele>
        <time>2011-03-19T14:30:15.000Z</time>
      </trkpt>
      <trkpt lat="45.466" lon="1.87923">
        <ele>683</ele>
        <time>2011-03-19T14:30:20.000Z</time>
      </trkpt>
      <trkpt lat="45.4659" lon="1.87904">
        <ele>687</ele>
        <time>2011-03-19T14:30:25.000Z</time>
      </trkpt>
      <trkpt lat="45.4659" lon="1.87882">
        <ele>689</ele>
        <time>2011-03-19T14:30:31.000Z</time>
      </trkpt>
      <trkpt lat="45.466" lon="1.87871">
        <ele>691</ele>
        <time>2011-03-19T14:30:36.000Z</time>
      </trkpt>
      <trkpt lat="45.466" lon="1.87866">
        <ele>695</ele>
        <time>2011-03-19T14:30:41.000Z</time>
      </trkpt>
      <trkpt lat="45.466" lon="1.87852">
        <ele>695</ele>
        <time>2011-03-19T14:30:47.000Z</time>
      </trkpt>
      <trkpt lat="45.4659" lon="1.87844">
        <ele>695</ele>
        <time>2011-03-19T14:30:52.000Z</time>
      </trkpt>
      <trkpt lat="45.4659" lon="1.87829">
        <ele>697</ele>
        <time>2011-03-19T14:30:57.000Z</time>
      </trkpt>
      <trkpt lat="45.4659" lon="1.8781">
        <ele>702</ele>
        <time>2011-03-19T14:31:03.000Z</time>
      </trkpt>
      <trkpt lat="45.466" lon="1.87793">
        <ele>700</ele>
        <time>2011-03-19T14:31:08.000Z</time>
      </trkpt>
      <trkpt lat="45.466" lon="1.87779">
        <ele>700</ele>
        <time>2011-03-19T14:31:13.000Z</time>
      </trkpt>
      <trkpt lat="45.466" lon="1.87763">
        <ele>701</ele>
        <time>2011-03-19T14:31:19.000Z</time>
      </trkpt>
      <trkpt lat="45.4661" lon="1.87747">
        <ele>701</ele>
        <time>2011-03-19T14:31:24.000Z</time>
      </trkpt>
      <trkpt lat="45.4661" lon="1.87732">
        <ele>701</ele>
        <time>2011-03-19T14:31:29.000Z</time>
      </trkpt>
      <trkpt lat="45.4662" lon="1.87713">
        <ele>699</ele>
        <time>2011-03-19T14:31:35.000Z</time>
      </trkpt>
      <trkpt lat="45.4664" lon="1.87704">
        <ele>700</ele>
        <time>2011-03-19T14:31:40.000Z</time>
      </trkpt>
      <trkpt lat="45.4664" lon="1.87702">
        <ele>702</ele>
        <time>2011-03-19T14:31:45.000Z</time>
      </trkpt>
      <trkpt lat="45.4666" lon="1.87708">
        <ele>705</ele>
        <time>2011-03-19T14:31:51.000Z</time>
      </trkpt>
      <trkpt lat="45.4666" lon="1.87712">
        <ele>706</ele>
        <time>2011-03-19T14:31:56.000Z</time>
      </trkpt>
      <trkpt lat="45.4667" lon="1.87717">
        <ele>710</ele>
        <time>2011-03-19T14:32:01.000Z</time>
      </trkpt>
      <trkpt lat="45.4668" lon="1.87717">
        <ele>714</ele>
        <time>2011-03-19T14:32:07.000Z</time>
      </trkpt>
      <trkpt lat="45.4669" lon="1.87718">
        <ele>715</ele>
        <time>2011-03-19T14:32:12.000Z</time>
      </trkpt>
      <trkpt lat="45.4669" lon="1.87713">
        <ele>718</ele>
        <time>2011-03-19T14:32:17.000Z</time>
      </trkpt>
      <trkpt lat="45.467" lon="1.87706">
        <ele>719</ele>
        <time>2011-03-19T14:32:23.000Z</time>
      </trkpt>
      <trkpt lat="45.467" lon="1.87695">
        <ele>720</ele>
        <time>2011-03-19T14:32:28.000Z</time>
      </trkpt>
      <trkpt lat="45.467" lon="1.87679">
        <ele>721</ele>
        <time>2011-03-19T14:32:33.000Z</time>
      </trkpt>
      <trkpt lat="45.467" lon="1.87663">
        <ele>721</ele>
        <time>2011-03-19T14:32:39.000Z</time>
      </trkpt>
      <trkpt lat="45.4671" lon="1.8766">
        <ele>721</ele>
        <time>2011-03-19T14:32:44.000Z</time>
      </trkpt>
      <trkpt lat="45.4671" lon="1.87653">
        <ele>722</ele>
        <time>2011-03-19T14:32:49.000Z</time>
      </trkpt>
      <trkpt lat="45.4671" lon="1.87647">
        <ele>724</ele>
        <time>2011-03-19T14:32:55.000Z</time>
      </trkpt>
      <trkpt lat="45.4673" lon="1.87637">
        <ele>724</ele>
        <time>2011-03-19T14:33:00.000Z</time>
      </trkpt>
      <trkpt lat="45.4674" lon="1.8763">
        <ele>725</ele>
        <time>2011-03-19T14:33:05.000Z</time>
      </trkpt>
      <trkpt lat="45.4674" lon="1.87626">
        <ele>728</ele>
        <time>2011-03-19T14:33:11.000Z</time>
      </trkpt>
      <trkpt lat="45.4675" lon="1.87619">
        <ele>729</ele>
        <time>2011-03-19T14:33:16.000Z</time>
      </trkpt>
      <trkpt lat="45.4676" lon="1.8761">
        <ele>731</ele>
        <time>2011-03-19T14:33:21.000Z</time>
      </trkpt>
      <trkpt lat="45.4677" lon="1.876">
        <ele>733</ele>
        <time>2011-03-19T14:33:27.000Z</time>
      </trkpt>
      <trkpt lat="45.4677" lon="1.8759">
        <ele>735</ele>
        <time>2011-03-19T14:33:32.000Z</time>
      </trkpt>
      <trkpt lat="45.4678" lon="1.8758">
        <ele>739</ele>
        <time>2011-03-19T14:33:37.000Z</time>
      </trkpt>
      <trkpt lat="45.4679" lon="1.87565">
        <ele>741</ele>
        <time>2011-03-19T14:33:43.000Z</time>
      </trkpt>
      <trkpt lat="45.4679" lon="1.87557">
        <ele>744</ele>
        <time>2011-03-19T14:33:48.000Z</time>
      </trkpt>
      <trkpt lat="45.468" lon="1.87545">
        <ele>745</ele>
        <time>2011-03-19T14:33:53.000Z</time>
      </trkpt>
      <trkpt lat="45.468" lon="1.87534">
        <ele>747</ele>
        <time>2011-03-19T14:33:59.000Z</time>
      </trkpt>
      <trkpt lat="45.468" lon="1.87527">
        <ele>747</ele>
        <time>2011-03-19T14:34:04.000Z</time>
      </trkpt>
      <trkpt lat="45.4681" lon="1.87518">
        <ele>748</ele>
        <time>2011-03-19T14:34:09.000Z</time>
      </trkpt>
      <trkpt lat="45.4681" lon="1.87506">
        <ele>749</ele>
        <time>2011-03-19T14:34:15.000Z</time>
      </trkpt>
      <trkpt lat="45.4682" lon="1.87502">
        <ele>752</ele>
        <time>2011-03-19T14:34:20.000Z</time>
      </trkpt>
      <trkpt lat="45.4682" lon="1.87493">
        <ele>754</ele>
        <time>2011-03-19T14:34:25.000Z</time>
      </trkpt>
      <trkpt lat="45.4683" lon="1.87479">
        <ele>756</ele>
        <time>2011-03-19T14:34:31.000Z</time>
      </trkpt>
      <trkpt lat="45.4684" lon="1.87467">
        <ele>755</ele>
        <time>2011-03-19T14:34:36.000Z</time>
      </trkpt>
      <trkpt lat="45.4684" lon="1.8745">
        <ele>757</ele>
        <time>2011-03-19T14:34:41.000Z</time>
      </trkpt>
      <trkpt lat="45.4685" lon="1.87425">
        <ele>760</ele>
        <time>2011-03-19T14:34:47.000Z</time>
      </trkpt>
      <trkpt lat="45.4684" lon="1.87417">
        <ele>762</ele>
        <time>2011-03-19T14:34:52.000Z</time>
      </trkpt>
      <trkpt lat="45.4684" lon="1.87407">
        <ele>762</ele>
        <time>2011-03-19T14:34:57.000Z</time>
      </trkpt>
      <trkpt lat="45.4684" lon="1.87402">
        <ele>764</ele>
        <time>2011-03-19T14:35:03.000Z</time>
      </trkpt>
      <trkpt lat="45.4684" lon="1.87393">
        <ele>766</ele>
        <time>2011-03-19T14:35:08.000Z</time>
      </trkpt>
      <trkpt lat="45.4684" lon="1.87374">
        <ele>771</ele>
        <time>2011-03-19T14:35:13.000Z</time>
      </trkpt>
      <trkpt lat="45.4684" lon="1.87361">
        <ele>777</ele>
        <time>2011-03-19T14:35:19.000Z</time>
      </trkpt>
      <trkpt lat="45.4684" lon="1.8735">
        <ele>779</ele>
        <time>2011-03-19T14:35:24.000Z</time>
      </trkpt>
      <trkpt lat="45.4683" lon="1.87346">
        <ele>782</ele>
        <time>2011-03-19T14:35:29.000Z</time>
      </trkpt>
      <trkpt lat="45.4682" lon="1.87343">
        <ele>785</ele>
        <time>2011-03-19T14:35:35.000Z</time>
      </trkpt>
      <trkpt lat="45.4681" lon="1.87335">
        <ele>787</ele>
        <time>2011-03-19T14:35:40.000Z</time>
      </trkpt>
      <trkpt lat="45.468" lon="1.87329">
        <ele>788</ele>
        <time>2011-03-19T14:35:45.000Z</time>
      </trkpt>
      <trkpt lat="45.4679" lon="1.87328">
        <ele>789</ele>
        <time>2011-03-19T14:35:51.000Z</time>
      </trkpt>
      <trkpt lat="45.4678" lon="1.87329">
        <ele>790</ele>
        <time>2011-03-19T14:35:56.000Z</time>
      </trkpt>
      <trkpt lat="45.4677" lon="1.8733">
        <ele>792</ele>
        <time>2011-03-19T14:36:01.000Z</time>
      </trkpt>
      <trkpt lat="45.4674" lon="1.87328">
        <ele>791</ele>
        <time>2011-03-19T14:36:07.000Z</time>
      </trkpt>
      <trkpt lat="45.4673" lon="1.87323">
        <ele>790</ele>
        <time>2011-03-19T14:36:12.000Z</time>
      </trkpt>
      <trkpt lat="45.4673" lon="1.87323">
        <ele>793</ele>
        <time>2011-03-19T14:36:17.000Z</time>
      </trkpt>
      <trkpt lat="45.4672" lon="1.87324">
        <ele>795</ele>
        <time>2011-03-19T14:36:23.000Z</time>
      </trkpt>
      <trkpt lat="45.4671" lon="1.87325">
        <ele>797</ele>
        <time>2011-03-19T14:36:28.000Z</time>
      </trkpt>
      <trkpt lat="45.4669" lon="1.87319">
        <ele>792</ele>
        <time>2011-03-19T14:36:33.000Z</time>
      </trkpt>
      <trkpt lat="45.4667" lon="1.87302">
        <ele>783</ele>
        <time>2011-03-19T14:36:39.000Z</time>
      </trkpt>
      <trkpt lat="45.4666" lon="1.87299">
        <ele>784</ele>
        <time>2011-03-19T14:36:44.000Z</time>
      </trkpt>
      <trkpt lat="45.4665" lon="1.87293">
        <ele>784</ele>
        <time>2011-03-19T14:36:49.000Z</time>
      </trkpt>
      <trkpt lat="45.4664" lon="1.8728">
        <ele>785</ele>
        <time>2011-03-19T14:36:55.000Z</time>
      </trkpt>
      <trkpt lat="45.4663" lon="1.87268">
        <ele>787</ele>
        <time>2011-03-19T14:37:00.000Z</time>
      </trkpt>
      <trkpt lat="45.4663" lon="1.87255">
        <ele>785</ele>
        <time>2011-03-19T14:37:05.000Z</time>
      </trkpt>
      <trkpt lat="45.4664" lon="1.8724">
        <ele>783</ele>
        <time>2011-03-19T14:37:11.000Z</time>
      </trkpt>
      <trkpt lat="45.4665" lon="1.8723">
        <ele>783</ele>
        <time>2011-03-19T14:37:16.000Z</time>
      </trkpt>
      <trkpt lat="45.4665" lon="1.87216">
        <ele>786</ele>
        <time>2011-03-19T14:37:21.000Z</time>
      </trkpt>
      <trkpt lat="45.4666" lon="1.87199">
        <ele>787</ele>
        <time>2011-03-19T14:37:27.000Z</time>
      </trkpt>
      <trkpt lat="45.4667" lon="1.87181">
        <ele>787</ele>
        <time>2011-03-19T14:37:32.000Z</time>
      </trkpt>
      <trkpt lat="45.4668" lon="1.8716">
        <ele>789</ele>
        <time>2011-03-19T14:37:37.000Z</time>
      </trkpt>
      <trkpt lat="45.4668" lon="1.87137">
        <ele>794</ele>
        <time>2011-03-19T14:37:43.000Z</time>
      </trkpt>
      <trkpt lat="45.4668" lon="1.87122">
        <ele>795</ele>
        <time>2011-03-19T14:37:48.000Z</time>
      </trkpt>
      <trkpt lat="45.4668" lon="1.87108">
        <ele>793</ele>
        <time>2011-03-19T14:37:53.000Z</time>
      </trkpt>
      <trkpt lat="45.4669" lon="1.87092">
        <ele>794</ele>
        <time>2011-03-19T14:37:59.000Z</time>
      </trkpt>
      <trkpt lat="45.4669" lon="1.87075">
        <ele>793</ele>
        <time>2011-03-19T14:38:04.000Z</time>
      </trkpt>
      <trkpt lat="45.467" lon="1.8706">
        <ele>794</ele>
        <time>2011-03-19T14:38:09.000Z</time>
      </trkpt>
      <trkpt lat="45.4671" lon="1.87045">
        <ele>796</ele>
        <time>2011-03-19T14:38:15.000Z</time>
      </trkpt>
      <trkpt lat="45.4671" lon="1.87031">
        <ele>797</ele>
        <time>2011-03-19T14:38:20.000Z</time>
      </trkpt>
      <trkpt lat="45.4672" lon="1.87019">
        <ele>798</ele>
        <time>2011-03-19T14:38:25.000Z</time>
      </trkpt>
      <trkpt lat="45.4673" lon="1.87001">
        <ele>798</ele>
        <time>2011-03-19T14:38:31.000Z</time>
      </trkpt>
      <trkpt lat="45.4674" lon="1.86986">
        <ele>798</ele>
        <time>2011-03-19T14:38:36.000Z</time>
      </trkpt>
      <trkpt lat="45.4675" lon="1.86966">
        <ele>799</ele>
        <time>2011-03-19T14:38:41.000Z</time>
      </trkpt>
      <trkpt lat="45.4674" lon="1.86948">
        <ele>806</ele>
        <time>2011-03-19T14:38:47.000Z</time>
      </trkpt>
      <trkpt lat="45.4674" lon="1.86941">
        <ele>814</ele>
        <time>2011-03-19T14:38:52.000Z</time>
      </trkpt>
      <trkpt lat="45.4673" lon="1.86937">
        <ele>821</ele>
        <time>2011-03-19T14:38:57.000Z</time>
      </trkpt>
      <trkpt lat="45.4673" lon="1.86925">
        <ele>827</ele>
        <time>2011-03-19T14:39:03.000Z</time>
      </trkpt>
      <trkpt lat="45.4672" lon="1.86918">
        <ele>831</ele>
        <time>2011-03-19T14:39:08.000Z</time>
      </trkpt>
      <trkpt lat="45.4672" lon="1.86913">
        <ele>833</ele>
        <time>2011-03-19T14:39:13.000Z</time>
      </trkpt>
      <trkpt lat="45.4671" lon="1.86902">
        <ele>833</ele>
        <time>2011-03-19T14:39:19.000Z</time>
      </trkpt>
      <trkpt lat="45.467" lon="1.86896">
        <ele>834</ele>
        <time>2011-03-19T14:39:24.000Z</time>
      </trkpt>
      <trkpt lat="45.4668" lon="1.86887">
        <ele>832</ele>
        <time>2011-03-19T14:39:29.000Z</time>
      </trkpt>
      <trkpt lat="45.4668" lon="1.8688">
        <ele>832</ele>
        <time>2011-03-19T14:39:35.000Z</time>
      </trkpt>
      <trkpt lat="45.4667" lon="1.86872">
        <ele>831</ele>
        <time>2011-03-19T14:39:40.000Z</time>
      </trkpt>
      <trkpt lat="45.4666" lon="1.86863">
        <ele>831</ele>
        <time>2011-03-19T14:39:45.000Z</time>
      </trkpt>
      <trkpt lat="45.4666" lon="1.86849">
        <ele>829</ele>
        <time>2011-03-19T14:39:51.000Z</time>
      </trkpt>
      <trkpt lat="45.4665" lon="1.86839">
        <ele>827</ele>
        <time>2011-03-19T14:39:56.000Z</time>
      </trkpt>
      <trkpt lat="45.4664" lon="1.86821">
        <ele>825</ele>
        <time>2011-03-19T14:40:01.000Z</time>
      </trkpt>
      <trkpt lat="45.4663" lon="1.86807">
        <ele>822</ele>
        <time>2011-03-19T14:40:07.000Z</time>
      </trkpt>
      <trkpt lat="45.4663" lon="1.86794">
        <ele>823</ele>
        <time>2011-03-19T14:40:12.000Z</time>
      </trkpt>
      <trkpt lat="45.4663" lon="1.86782">
        <ele>824</ele>
        <time>2011-03-19T14:40:17.000Z</time>
      </trkpt>
      <trkpt lat="45.4663" lon="1.86764">
        <ele>825</ele>
        <time>2011-03-19T14:40:23.000Z</time>
      </trkpt>
      <trkpt lat="45.4663" lon="1.8675">
        <ele>828</ele>
        <time>2011-03-19T14:40:28.000Z</time>
      </trkpt>
      <trkpt lat="45.4663" lon="1.86742">
        <ele>831</ele>
        <time>2011-03-19T14:40:33.000Z</time>
      </trkpt>
      <trkpt lat="45.4662" lon="1.86729">
        <ele>832</ele>
        <time>2011-03-19T14:40:39.000Z</time>
      </trkpt>
      <trkpt lat="45.4662" lon="1.86723">
        <ele>833</ele>
        <time>2011-03-19T14:40:44.000Z</time>
      </trkpt>
      <trkpt lat="45.4661" lon="1.86709">
        <ele>834</ele>
        <time>2011-03-19T14:40:49.000Z</time>
      </trkpt>
      <trkpt lat="45.4661" lon="1.86699">
        <ele>834</ele>
        <time>2011-03-19T14:40:55.000Z</time>
      </trkpt>
      <trkpt lat="45.4659" lon="1.86691">
        <ele>832</ele>
        <time>2011-03-19T14:41:00.000Z</time>
      </trkpt>
      <trkpt lat="45.4659" lon="1.86688">
        <ele>835</ele>
        <time>2011-03-19T14:41:05.000Z</time>
      </trkpt>
      <trkpt lat="45.4658" lon="1.86674">
        <ele>837</ele>
        <time>2011-03-19T14:41:11.000Z</time>
      </trkpt>
      <trkpt lat="45.4658" lon="1.86662">
        <ele>839</ele>
        <time>2011-03-19T14:41:16.000Z</time>
      </trkpt>
      <trkpt lat="45.4658" lon="1.86653">
        <ele>840</ele>
        <time>2011-03-19T14:41:21.000Z</time>
      </trkpt>
      <trkpt lat="45.4658" lon="1.86638">
        <ele>842</ele>
        <time>2011-03-19T14:41:27.000Z</time>
      </trkpt>
      <trkpt lat="45.4657" lon="1.8663">
        <ele>842</ele>
        <time>2011-03-19T14:41:32.000Z</time>
      </trkpt>
      <trkpt lat="45.4657" lon="1.86618">
        <ele>845</ele>
        <time>2011-03-19T14:41:37.000Z</time>
      </trkpt>
      <trkpt lat="45.4657" lon="1.86602">
        <ele>846</ele>
        <time>2011-03-19T14:41:43.000Z</time>
      </trkpt>
      <trkpt lat="45.4657" lon="1.86589">
        <ele>850</ele>
        <time>2011-03-19T14:41:48.000Z</time>
      </trkpt>
      <trkpt lat="45.4658" lon="1.86577">
        <ele>851</ele>
        <time>2011-03-19T14:41:53.000Z</time>
      </trkpt>
      <trkpt lat="45.4658" lon="1.86565">
        <ele>850</ele>
        <time>2011-03-19T14:41:59.000Z</time>
      </trkpt>
      <trkpt lat="45.4658" lon="1.8656">
        <ele>853</ele>
        <time>2011-03-19T14:42:04.000Z</time>
      </trkpt>
      <trkpt lat="45.4658" lon="1.86551">
        <ele>855</ele>
        <time>2011-03-19T14:42:09.000Z</time>
      </trkpt>
      <trkpt lat="45.4658" lon="1.86538">
        <ele>859</ele>
        <time>2011-03-19T14:42:15.000Z</time>
      </trkpt>
      <trkpt lat="45.4658" lon="1.8653">
        <ele>859</ele>
        <time>2011-03-19T14:42:20.000Z</time>
      </trkpt>
      <trkpt lat="45.4657" lon="1.86519">
        <ele>854</ele>
        <time>2011-03-19T14:42:25.000Z</time>
      </trkpt>
      <trkpt lat="45.4657" lon="1.86508">
        <ele>853</ele>
        <time>2011-03-19T14:42:31.000Z</time>
      </trkpt>
      <trkpt lat="45.4658" lon="1.86501">
        <ele>853</ele>
        <time>2011-03-19T14:42:36.000Z</time>
      </trkpt>
      <trkpt lat="45.4658" lon="1.86493">
        <ele>853</ele>
        <time>2011-03-19T14:42:41.000Z</time>
      </trkpt>
      <trkpt lat="45.4659" lon="1.86489">
        <ele>853</ele>
        <time>2011-03-19T14:42:47.000Z</time>
      </trkpt>
      <trkpt lat="45.466" lon="1.86486">
        <ele>855</ele>
        <time>2011-03-19T14:42:52.000Z</time>
      </trkpt>
      <trkpt lat="45.466" lon="1.86483">
        <ele>856</ele>
        <time>2011-03-19T14:42:57.000Z</time>
      </trkpt>
      <trkpt lat="45.4661" lon="1.86473">
        <ele>858</ele>
        <time>2011-03-19T14:43:03.000Z</time>
      </trkpt>
      <trkpt lat="45.4662" lon="1.86463">
        <ele>860</ele>
        <time>2011-03-19T14:43:08.000Z</time>
      </trkpt>
      <trkpt lat="45.4662" lon="1.8645">
        <ele>861</ele>
        <time>2011-03-19T14:43:13.000Z</time>
      </trkpt>
      <trkpt lat="45.4663" lon="1.86441">
        <ele>861</ele>
        <time>2011-03-19T14:43:19.000Z</time>
      </trkpt>
      <trkpt lat="45.4665" lon="1.86439">
        <ele>858</ele>
        <time>2011-03-19T14:43:24.000Z</time>
      </trkpt>
      <trkpt lat="45.4666" lon="1.86437">
        <ele>858</ele>
        <time>2011-03-19T14:43:29.000Z</time>
      </trkpt>
      <trkpt lat="45.4667" lon="1.8643">
        <ele>859</ele>
        <time>2011-03-19T14:43:35.000Z</time>
      </trkpt>
      <trkpt lat="45.4667" lon="1.86419">
        <ele>861</ele>
        <time>2011-03-19T14:43:40.000Z</time>
      </trkpt>
      <trkpt lat="45.4668" lon="1.86407">
        <ele>861</ele>
        <time>2011-03-19T14:43:45.000Z</time>
      </trkpt>
      <trkpt lat="45.4668" lon="1.86401">
        <ele>866</ele>
        <time>2011-03-19T14:43:50.000Z</time>
      </trkpt>
      <trkpt lat="45.4668" lon="1.86398">
        <ele>868</ele>
        <time>2011-03-19T14:43:55.000Z</time>
      </trkpt>
      <trkpt lat="45.4669" lon="1.86389">
        <ele>867</ele>
        <time>2011-03-19T14:44:00.000Z</time>
      </trkpt>
      <trkpt lat="45.4669" lon="1.86379">
        <ele>870</ele>
        <time>2011-03-19T14:44:06.000Z</time>
      </trkpt>
      <trkpt lat="45.4669" lon="1.86368">
        <ele>872</ele>
        <time>2011-03-19T14:44:11.000Z</time>
      </trkpt>
      <trkpt lat="45.467" lon="1.8636">
        <ele>871</ele>
        <time>2011-03-19T14:44:16.000Z</time>
      </trkpt>
      <trkpt lat="45.467" lon="1.86351">
        <ele>873</ele>
        <time>2011-03-19T14:44:22.000Z</time>
      </trkpt>
      <trkpt lat="45.4671" lon="1.86339">
        <ele>874</ele>
        <time>2011-03-19T14:44:27.000Z</time>
      </trkpt>
      <trkpt lat="45.4672" lon="1.86328">
        <ele>877</ele>
        <time>2011-03-19T14:44:32.000Z</time>
      </trkpt>
      <trkpt lat="45.4673" lon="1.86321">
        <ele>880</ele>
        <time>2011-03-19T14:44:38.000Z</time>
      </trkpt>
      <trkpt lat="45.4673" lon="1.86313">
        <ele>881</ele>
        <time>2011-03-19T14:44:43.000Z</time>
      </trkpt>
      <trkpt lat="45.4673" lon="1.86304">
        <ele>884</ele>
        <time>2011-03-19T14:44:48.000Z</time>
      </trkpt>
      <trkpt lat="45.4675" lon="1.86299">
        <ele>884</ele>
        <time>2011-03-19T14:44:54.000Z</time>
      </trkpt>
      <trkpt lat="45.4675" lon="1.86294">
        <ele>884</ele>
        <time>2011-03-19T14:44:59.000Z</time>
      </trkpt>
      <trkpt lat="45.4676" lon="1.86287">
        <ele>883</ele>
        <time>2011-03-19T14:45:04.000Z</time>
      </trkpt>
      <trkpt lat="45.4677" lon="1.86286">
        <ele>885</ele>
        <time>2011-03-19T14:45:10.000Z</time>
      </trkpt>
      <trkpt lat="45.4677" lon="1.86278">
        <ele>887</ele>
        <time>2011-03-19T14:45:15.000Z</time>
      </trkpt>
      <trkpt lat="45.4678" lon="1.86263">
        <ele>887</ele>
        <time>2011-03-19T14:45:20.000Z</time>
      </trkpt>
      <trkpt lat="45.4678" lon="1.86257">
        <ele>889</ele>
        <time>2011-03-19T14:45:26.000Z</time>
      </trkpt>
      <trkpt lat="45.4679" lon="1.8625">
        <ele>891</ele>
        <time>2011-03-19T14:45:31.000Z</time>
      </trkpt>
      <trkpt lat="45.4679" lon="1.86245">
        <ele>893</ele>
        <time>2011-03-19T14:45:36.000Z</time>
      </trkpt>
      <trkpt lat="45.4679" lon="1.8623">
        <ele>894</ele>
        <time>2011-03-19T14:45:41.000Z</time>
      </trkpt>
      <trkpt lat="45.468" lon="1.86222">
        <ele>894</ele>
        <time>2011-03-19T14:45:46.000Z</time>
      </trkpt>
      <trkpt lat="45.4681" lon="1.86215">
        <ele>895</ele>
        <time>2011-03-19T14:45:51.000Z</time>
      </trkpt>
      <trkpt lat="45.4681" lon="1.86208">
        <ele>897</ele>
        <time>2011-03-19T14:45:56.000Z</time>
      </trkpt>
      <trkpt lat="45.4681" lon="1.86192">
        <ele>897</ele>
        <time>2011-03-19T14:46:02.000Z</time>
      </trkpt>
      <trkpt lat="45.4682" lon="1.86178">
        <ele>897</ele>
        <time>2011-03-19T14:46:07.000Z</time>
      </trkpt>
      <trkpt lat="45.4683" lon="1.8617">
        <ele>899</ele>
        <time>2011-03-19T14:46:12.000Z</time>
      </trkpt>
      <trkpt lat="45.4683" lon="1.86161">
        <ele>901</ele>
        <time>2011-03-19T14:46:18.000Z</time>
      </trkpt>
      <trkpt lat="45.4684" lon="1.86157">
        <ele>902</ele>
        <time>2011-03-19T14:46:23.000Z</time>
      </trkpt>
      <trkpt lat="45.4684" lon="1.86145">
        <ele>903</ele>
        <time>2011-03-19T14:46:28.000Z</time>
      </trkpt>
      <trkpt lat="45.4684" lon="1.86135">
        <ele>905</ele>
        <time>2011-03-19T14:46:34.000Z</time>
      </trkpt>
      <trkpt lat="45.4684" lon="1.86129">
        <ele>905</ele>
        <time>2011-03-19T14:46:39.000Z</time>
      </trkpt>
      <trkpt lat="45.4684" lon="1.86126">
        <ele>906</ele>
        <time>2011-03-19T14:46:44.000Z</time>
      </trkpt>
      <trkpt lat="45.4684" lon="1.86123">
        <ele>907</ele>
        <time>2011-03-19T14:46:50.000Z</time>
      </trkpt>
      <trkpt lat="45.4684" lon="1.86113">
        <ele>908</ele>
        <time>2011-03-19T14:46:55.000Z</time>
      </trkpt>
      <trkpt lat="45.4684" lon="1.86106">
        <ele>908</ele>
        <time>2011-03-19T14:47:00.000Z</time>
      </trkpt>
      <trkpt lat="45.4684" lon="1.86091">
        <ele>909</ele>
        <time>2011-03-19T14:47:06.000Z</time>
      </trkpt>
      <trkpt lat="45.4684" lon="1.86081">
        <ele>910</ele>
        <time>2011-03-19T14:47:11.000Z</time>
      </trkpt>
      <trkpt lat="45.4684" lon="1.86075">
        <ele>912</ele>
        <time>2011-03-19T14:47:16.000Z</time>
      </trkpt>
      <trkpt lat="45.4684" lon="1.86063">
        <ele>913</ele>
        <time>2011-03-19T14:47:23.000Z</time>
      </trkpt>
      <trkpt lat="45.4685" lon="1.86044">
        <ele>915</ele>
        <time>2011-03-19T14:47:28.000Z</time>
      </trkpt>
      <trkpt lat="45.4684" lon="1.8603">
        <ele>919</ele>
        <time>2011-03-19T14:47:33.000Z</time>
      </trkpt>
      <trkpt lat="45.4685" lon="1.86017">
        <ele>924</ele>
        <time>2011-03-19T14:47:39.000Z</time>
      </trkpt>
      <trkpt lat="45.4686" lon="1.86002">
        <ele>925</ele>
        <time>2011-03-19T14:47:44.000Z</time>
      </trkpt>
      <trkpt lat="45.4687" lon="1.85981">
        <ele>928</ele>
        <time>2011-03-19T14:47:49.000Z</time>
      </trkpt>
      <trkpt lat="45.4688" lon="1.85952">
        <ele>931</ele>
        <time>2011-03-19T14:47:55.000Z</time>
      </trkpt>
      <trkpt lat="45.4689" lon="1.85926">
        <ele>933</ele>
        <time>2011-03-19T14:48:00.000Z</time>
      </trkpt>
      <trkpt lat="45.4691" lon="1.85886">
        <ele>933</ele>
        <time>2011-03-19T14:48:05.000Z</time>
      </trkpt>
      <trkpt lat="45.4694" lon="1.85836">
        <ele>933</ele>
        <time>2011-03-19T14:48:11.000Z</time>
      </trkpt>
      <trkpt lat="45.4695" lon="1.85774">
        <ele>936</ele>
        <time>2011-03-19T14:48:16.000Z</time>
      </trkpt>
      <trkpt lat="45.4697" lon="1.8573">
        <ele>936</ele>
        <time>2011-03-19T14:48:21.000Z</time>
      </trkpt>
      <trkpt lat="45.47" lon="1.85683">
        <ele>936</ele>
        <time>2011-03-19T14:48:26.000Z</time>
      </trkpt>
      <trkpt lat="45.4702" lon="1.85629">
        <ele>930</ele>
        <time>2011-03-19T14:48:31.000Z</time>
      </trkpt>
      <trkpt lat="45.4703" lon="1.8559">
        <ele>917</ele>
        <time>2011-03-19T14:48:36.000Z</time>
      </trkpt>
      <trkpt lat="45.4706" lon="1.85548">
        <ele>913</ele>
        <time>2011-03-19T14:48:41.000Z</time>
      </trkpt>
      <trkpt lat="45.4708" lon="1.85518">
        <ele>912</ele>
        <time>2011-03-19T14:48:47.000Z</time>
      </trkpt>
      <trkpt lat="45.4709" lon="1.85497">
        <ele>914</ele>
        <time>2011-03-19T14:48:52.000Z</time>
      </trkpt>
      <trkpt lat="45.4708" lon="1.85475">
        <ele>917</ele>
        <time>2011-03-19T14:48:57.000Z</time>
      </trkpt>
      <trkpt lat="45.4707" lon="1.85452">
        <ele>919</ele>
        <time>2011-03-19T14:49:03.000Z</time>
      </trkpt>
      <trkpt lat="45.4706" lon="1.85447">
        <ele>920</ele>
        <time>2011-03-19T14:49:08.000Z</time>
      </trkpt>
      <trkpt lat="45.4704" lon="1.85448">
        <ele>922</ele>
        <time>2011-03-19T14:49:13.000Z</time>
      </trkpt>
      <trkpt lat="45.4702" lon="1.85452">
        <ele>925</ele>
        <time>2011-03-19T14:49:19.000Z</time>
      </trkpt>
      <trkpt lat="45.4701" lon="1.85458">
        <ele>927</ele>
        <time>2011-03-19T14:49:24.000Z</time>
      </trkpt>
      <trkpt lat="45.47" lon="1.85453">
        <ele>931</ele>
        <time>2011-03-19T14:49:29.000Z</time>
      </trkpt>
      <trkpt lat="45.4699" lon="1.85451">
        <ele>933</ele>
        <time>2011-03-19T14:49:35.000Z</time>
      </trkpt>
      <trkpt lat="45.4698" lon="1.85441">
        <ele>934</ele>
        <time>2011-03-19T14:49:40.000Z</time>
      </trkpt>
      <trkpt lat="45.4697" lon="1.85432">
        <ele>932</ele>
        <time>2011-03-19T14:49:45.000Z</time>
      </trkpt>
      <trkpt lat="45.4695" lon="1.85421">
        <ele>931</ele>
        <time>2011-03-19T14:49:51.000Z</time>
      </trkpt>
      <trkpt lat="45.4694" lon="1.85402">
        <ele>927</ele>
        <time>2011-03-19T14:49:56.000Z</time>
      </trkpt>
      <trkpt lat="45.4693" lon="1.854">
        <ele>929</ele>
        <time>2011-03-19T14:50:01.000Z</time>
      </trkpt>
      <trkpt lat="45.4692" lon="1.85395">
        <ele>932</ele>
        <time>2011-03-19T14:50:07.000Z</time>
      </trkpt>
      <trkpt lat="45.4691" lon="1.85392">
        <ele>934</ele>
        <time>2011-03-19T14:50:12.000Z</time>
      </trkpt>
      <trkpt lat="45.4689" lon="1.85382">
        <ele>933</ele>
        <time>2011-03-19T14:50:17.000Z</time>
      </trkpt>
      <trkpt lat="45.4686" lon="1.85358">
        <ele>932</ele>
        <time>2011-03-19T14:50:23.000Z</time>
      </trkpt>
      <trkpt lat="45.4684" lon="1.85335">
        <ele>928</ele>
        <time>2011-03-19T14:50:28.000Z</time>
      </trkpt>
      <trkpt lat="45.4683" lon="1.85319">
        <ele>926</ele>
        <time>2011-03-19T14:50:33.000Z</time>
      </trkpt>
      <trkpt lat="45.4683" lon="1.85304">
        <ele>926</ele>
        <time>2011-03-19T14:50:39.000Z</time>
      </trkpt>
      <trkpt lat="45.4682" lon="1.85296">
        <ele>925</ele>
        <time>2011-03-19T14:50:44.000Z</time>
      </trkpt>
      <trkpt lat="45.4683" lon="1.85281">
        <ele>925</ele>
        <time>2011-03-19T14:50:49.000Z</time>
      </trkpt>
      <trkpt lat="45.4684" lon="1.85275">
        <ele>925</ele>
        <time>2011-03-19T14:50:54.000Z</time>
      </trkpt>
      <trkpt lat="45.4685" lon="1.85272">
        <ele>926</ele>
        <time>2011-03-19T14:50:59.000Z</time>
      </trkpt>
      <trkpt lat="45.4686" lon="1.85268">
        <ele>927</ele>
        <time>2011-03-19T14:51:05.000Z</time>
      </trkpt>
      <trkpt lat="45.4687" lon="1.85266">
        <ele>929</ele>
        <time>2011-03-19T14:51:10.000Z</time>
      </trkpt>
      <trkpt lat="45.4689" lon="1.85261">
        <ele>929</ele>
        <time>2011-03-19T14:51:15.000Z</time>
      </trkpt>
      <trkpt lat="45.469" lon="1.85262">
        <ele>930</ele>
        <time>2011-03-19T14:51:21.000Z</time>
      </trkpt>
      <trkpt lat="45.4691" lon="1.85262">
        <ele>930</ele>
        <time>2011-03-19T14:51:26.000Z</time>
      </trkpt>
      <trkpt lat="45.4692" lon="1.85259">
        <ele>930</ele>
        <time>2011-03-19T14:51:31.000Z</time>
      </trkpt>
      <trkpt lat="45.4693" lon="1.85264">
        <ele>932</ele>
        <time>2011-03-19T14:51:37.000Z</time>
      </trkpt>
      <trkpt lat="45.4694" lon="1.85275">
        <ele>933</ele>
        <time>2011-03-19T14:51:42.000Z</time>
      </trkpt>
      <trkpt lat="45.4695" lon="1.85281">
        <ele>936</ele>
        <time>2011-03-19T14:51:47.000Z</time>
      </trkpt>
      <trkpt lat="45.4696" lon="1.85284">
        <ele>936</ele>
        <time>2011-03-19T14:51:53.000Z</time>
      </trkpt>
      <trkpt lat="45.4698" lon="1.85279">
        <ele>936</ele>
        <time>2011-03-19T14:51:58.000Z</time>
      </trkpt>
      <trkpt lat="45.4699" lon="1.85277">
        <ele>936</ele>
        <time>2011-03-19T14:52:03.000Z</time>
      </trkpt>
      <trkpt lat="45.47" lon="1.85275">
        <ele>937</ele>
        <time>2011-03-19T14:52:09.000Z</time>
      </trkpt>
      <trkpt lat="45.4701" lon="1.85271">
        <ele>938</ele>
        <time>2011-03-19T14:52:14.000Z</time>
      </trkpt>
      <trkpt lat="45.4702" lon="1.85266">
        <ele>937</ele>
        <time>2011-03-19T14:52:19.000Z</time>
      </trkpt>
      <trkpt lat="45.4703" lon="1.85255">
        <ele>937</ele>
        <time>2011-03-19T14:52:25.000Z</time>
      </trkpt>
      <trkpt lat="45.4704" lon="1.85247">
        <ele>937</ele>
        <time>2011-03-19T14:52:30.000Z</time>
      </trkpt>
      <trkpt lat="45.4705" lon="1.85238">
        <ele>939</ele>
        <time>2011-03-19T14:52:35.000Z</time>
      </trkpt>
      <trkpt lat="45.4706" lon="1.85226">
        <ele>939</ele>
        <time>2011-03-19T14:52:41.000Z</time>
      </trkpt>
      <trkpt lat="45.4707" lon="1.8522">
        <ele>938</ele>
        <time>2011-03-19T14:52:46.000Z</time>
      </trkpt>
      <trkpt lat="45.4709" lon="1.85216">
        <ele>938</ele>
        <time>2011-03-19T14:52:51.000Z</time>
      </trkpt>
      <trkpt lat="45.4711" lon="1.85208">
        <ele>939</ele>
        <time>2011-03-19T14:52:57.000Z</time>
      </trkpt>
      <trkpt lat="45.4712" lon="1.85203">
        <ele>942</ele>
        <time>2011-03-19T14:53:02.000Z</time>
      </trkpt>
      <trkpt lat="45.4714" lon="1.85202">
        <ele>944</ele>
        <time>2011-03-19T14:53:08.000Z</time>
      </trkpt>
      <trkpt lat="45.4716" lon="1.85204">
        <ele>944</ele>
        <time>2011-03-19T14:53:13.000Z</time>
      </trkpt>
      <trkpt lat="45.4718" lon="1.85203">
        <ele>947</ele>
        <time>2011-03-19T14:53:18.000Z</time>
      </trkpt>
      <trkpt lat="45.472" lon="1.85201">
        <ele>948</ele>
        <time>2011-03-19T14:53:24.000Z</time>
      </trkpt>
      <trkpt lat="45.4721" lon="1.85187">
        <ele>947</ele>
        <time>2011-03-19T14:53:29.000Z</time>
      </trkpt>
      <trkpt lat="45.4722" lon="1.85154">
        <ele>948</ele>
        <time>2011-03-19T14:53:34.000Z</time>
      </trkpt>
      <trkpt lat="45.4722" lon="1.85114">
        <ele>947</ele>
        <time>2011-03-19T14:53:39.000Z</time>
      </trkpt>
      <trkpt lat="45.4723" lon="1.85073">
        <ele>944</ele>
        <time>2011-03-19T14:53:44.000Z</time>
      </trkpt>
      <trkpt lat="45.4724" lon="1.85031">
        <ele>943</ele>
        <time>2011-03-19T14:53:49.000Z</time>
      </trkpt>
      <trkpt lat="45.4724" lon="1.8498">
        <ele>940</ele>
        <time>2011-03-19T14:53:54.000Z</time>
      </trkpt>
      <trkpt lat="45.4725" lon="1.84928">
        <ele>938</ele>
        <time>2011-03-19T14:53:59.000Z</time>
      </trkpt>
      <trkpt lat="45.4726" lon="1.84871">
        <ele>935</ele>
        <time>2011-03-19T14:54:05.000Z</time>
      </trkpt>
      <trkpt lat="45.4727" lon="1.84828">
        <ele>933</ele>
        <time>2011-03-19T14:54:10.000Z</time>
      </trkpt>
      <trkpt lat="45.4728" lon="1.84795">
        <ele>932</ele>
        <time>2011-03-19T14:54:15.000Z</time>
      </trkpt>
      <trkpt lat="45.4728" lon="1.84752">
        <ele>932</ele>
        <time>2011-03-19T14:54:21.000Z</time>
      </trkpt>
      <trkpt lat="45.4728" lon="1.84726">
        <ele>931</ele>
        <time>2011-03-19T14:54:26.000Z</time>
      </trkpt>
      <trkpt lat="45.4729" lon="1.84708">
        <ele>930</ele>
        <time>2011-03-19T14:54:31.000Z</time>
      </trkpt>
      <trkpt lat="45.473" lon="1.84688">
        <ele>932</ele>
        <time>2011-03-19T14:54:37.000Z</time>
      </trkpt>
      <trkpt lat="45.4731" lon="1.84667">
        <ele>931</ele>
        <time>2011-03-19T14:54:42.000Z</time>
      </trkpt>
      <trkpt lat="45.4731" lon="1.84646">
        <ele>932</ele>
        <time>2011-03-19T14:54:47.000Z</time>
      </trkpt>
      <trkpt lat="45.4732" lon="1.84616">
        <ele>932</ele>
        <time>2011-03-19T14:54:53.000Z</time>
      </trkpt>
      <trkpt lat="45.4732" lon="1.84592">
        <ele>933</ele>
        <time>2011-03-19T14:54:58.000Z</time>
      </trkpt>
      <trkpt lat="45.4732" lon="1.84564">
        <ele>933</ele>
        <time>2011-03-19T14:55:04.000Z</time>
      </trkpt>
      <trkpt lat="45.4732" lon="1.8454">
        <ele>933</ele>
        <time>2011-03-19T14:55:09.000Z</time>
      </trkpt>
      <trkpt lat="45.4732" lon="1.84517">
        <ele>934</ele>
        <time>2011-03-19T14:55:14.000Z</time>
      </trkpt>
      <trkpt lat="45.4731" lon="1.84494">
        <ele>933</ele>
        <time>2011-03-19T14:55:20.000Z</time>
      </trkpt>
      <trkpt lat="45.473" lon="1.8448">
        <ele>933</ele>
        <time>2011-03-19T14:55:25.000Z</time>
      </trkpt>
      <trkpt lat="45.4728" lon="1.84468">
        <ele>933</ele>
        <time>2011-03-19T14:55:30.000Z</time>
      </trkpt>
      <trkpt lat="45.4727" lon="1.84454">
        <ele>934</ele>
        <time>2011-03-19T14:55:36.000Z</time>
      </trkpt>
      <trkpt lat="45.4726" lon="1.84443">
        <ele>934</ele>
        <time>2011-03-19T14:55:41.000Z</time>
      </trkpt>
      <trkpt lat="45.4725" lon="1.84431">
        <ele>934</ele>
        <time>2011-03-19T14:55:46.000Z</time>
      </trkpt>
      <trkpt lat="45.4724" lon="1.8442">
        <ele>938</ele>
        <time>2011-03-19T14:55:52.000Z</time>
      </trkpt>
      <trkpt lat="45.4724" lon="1.84413">
        <ele>938</ele>
        <time>2011-03-19T14:55:57.000Z</time>
      </trkpt>
      <trkpt lat="45.4724" lon="1.844">
        <ele>940</ele>
        <time>2011-03-19T14:56:02.000Z</time>
      </trkpt>
      <trkpt lat="45.4723" lon="1.84385">
        <ele>943</ele>
        <time>2011-03-19T14:56:08.000Z</time>
      </trkpt>
      <trkpt lat="45.4723" lon="1.84379">
        <ele>945</ele>
        <time>2011-03-19T14:56:13.000Z</time>
      </trkpt>
      <trkpt lat="45.4723" lon="1.8437">
        <ele>947</ele>
        <time>2011-03-19T14:56:18.000Z</time>
      </trkpt>
      <trkpt lat="45.4722" lon="1.84357">
        <ele>949</ele>
        <time>2011-03-19T14:56:24.000Z</time>
      </trkpt>
      <trkpt lat="45.4722" lon="1.84342">
        <ele>949</ele>
        <time>2011-03-19T14:56:29.000Z</time>
      </trkpt>
      <trkpt lat="45.4722" lon="1.84332">
        <ele>949</ele>
        <time>2011-03-19T14:56:34.000Z</time>
      </trkpt>
      <trkpt lat="45.4721" lon="1.84322">
        <ele>953</ele>
        <time>2011-03-19T14:56:40.000Z</time>
      </trkpt>
      <trkpt lat="45.4721" lon="1.84317">
        <ele>955</ele>
        <time>2011-03-19T14:56:45.000Z</time>
      </trkpt>
      <trkpt lat="45.4721" lon="1.84308">
        <ele>957</ele>
        <time>2011-03-19T14:56:50.000Z</time>
      </trkpt>
      <trkpt lat="45.472" lon="1.84298">
        <ele>959</ele>
        <time>2011-03-19T14:56:56.000Z</time>
      </trkpt>
      <trkpt lat="45.4719" lon="1.84291">
        <ele>961</ele>
        <time>2011-03-19T14:57:01.000Z</time>
      </trkpt>
      <trkpt lat="45.4718" lon="1.84279">
        <ele>961</ele>
        <time>2011-03-19T14:57:06.000Z</time>
      </trkpt>
      <trkpt lat="45.4717" lon="1.84265">
        <ele>960</ele>
        <time>2011-03-19T14:57:11.000Z</time>
      </trkpt>
      <trkpt lat="45.4716" lon="1.84254">
        <ele>961</ele>
        <time>2011-03-19T14:57:16.000Z</time>
      </trkpt>
      <trkpt lat="45.4716" lon="1.8425">
        <ele>961</ele>
        <time>2011-03-19T14:57:21.000Z</time>
      </trkpt>
      <trkpt lat="45.4716" lon="1.84247">
        <ele>960</ele>
        <time>2011-03-19T14:57:26.000Z</time>
      </trkpt>
      <trkpt lat="45.4716" lon="1.84243">
        <ele>958</ele>
        <time>2011-03-19T14:57:31.000Z</time>
      </trkpt>
      <trkpt lat="45.4716" lon="1.84245">
        <ele>958</ele>
        <time>2011-03-19T14:57:37.000Z</time>
      </trkpt>
      <trkpt lat="45.4716" lon="1.84245">
        <ele>959</ele>
        <time>2011-03-19T14:57:42.000Z</time>
      </trkpt>
      <trkpt lat="45.4716" lon="1.84245">
        <ele>959</ele>
        <time>2011-03-19T14:57:47.000Z</time>
      </trkpt>
      <trkpt lat="45.4716" lon="1.84245">
        <ele>959</ele>
        <time>2011-03-19T14:57:52.000Z</time>
      </trkpt>
      <trkpt lat="45.4716" lon="1.84245">
        <ele>959</ele>
        <time>2011-03-19T14:57:57.000Z</time>
      </trkpt>
      <trkpt lat="45.4716" lon="1.84245">
        <ele>957</ele>
        <time>2011-03-19T14:58:02.000Z</time>
      </trkpt>
      <trkpt lat="45.4716" lon="1.84245">
        <ele>953</ele>
        <time>2011-03-19T14:58:08.000Z</time>
      </trkpt>
      <trkpt lat="45.4715" lon="1.84243">
        <ele>953</ele>
        <time>2011-03-19T14:58:13.000Z</time>
      </trkpt>
      <trkpt lat="45.4715" lon="1.84243">
        <ele>953</ele>
        <time>2011-03-19T14:58:18.000Z</time>
      </trkpt>
      <trkpt lat="45.4715" lon="1.84243">
        <ele>953</ele>
        <time>2011-03-19T14:58:23.000Z</time>
      </trkpt>
      <trkpt lat="45.4715" lon="1.84243">
        <ele>953</ele>
        <time>2011-03-19T14:58:29.000Z</time>
      </trkpt>
      <trkpt lat="45.4715" lon="1.84243">
        <ele>950</ele>
        <time>2011-03-19T14:58:34.000Z</time>
      </trkpt>
      <trkpt lat="45.4715" lon="1.84243">
        <ele>951</ele>
        <time>2011-03-19T14:58:39.000Z</time>
      </trkpt>
      <trkpt lat="45.4715" lon="1.84243">
        <ele>948</ele>
        <time>2011-03-19T14:58:45.000Z</time>
      </trkpt>
      <trkpt lat="45.4714" lon="1.84238">
        <ele>951</ele>
        <time>2011-03-19T14:58:50.000Z</time>
      </trkpt>
      <trkpt lat="45.4714" lon="1.84238">
        <ele>951</ele>
        <time>2011-03-19T14:58:55.000Z</time>
      </trkpt>
      <trkpt lat="45.4714" lon="1.84243">
        <ele>954</ele>
        <time>2011-03-19T14:59:01.000Z</time>
      </trkpt>
      <trkpt lat="45.4714" lon="1.84244">
        <ele>953</ele>
        <time>2011-03-19T14:59:06.000Z</time>
      </trkpt>
      <trkpt lat="45.4714" lon="1.84246">
        <ele>951</ele>
        <time>2011-03-19T14:59:11.000Z</time>
      </trkpt>
      <trkpt lat="45.4715" lon="1.84245">
        <ele>949</ele>
        <time>2011-03-19T14:59:17.000Z</time>
      </trkpt>
      <trkpt lat="45.4715" lon="1.84245">
        <ele>949</ele>
        <time>2011-03-19T14:59:22.000Z</time>
      </trkpt>
      <trkpt lat="45.4715" lon="1.84245">
        <ele>949</ele>
        <time>2011-03-19T14:59:27.000Z</time>
      </trkpt>
      <trkpt lat="45.4715" lon="1.84245">
        <ele>949</ele>
        <time>2011-03-19T14:59:33.000Z</time>
      </trkpt>
      <trkpt lat="45.4715" lon="1.84245">
        <ele>949</ele>
        <time>2011-03-19T14:59:38.000Z</time>
      </trkpt>
      <trkpt lat="45.4714" lon="1.84239">
        <ele>951</ele>
        <time>2011-03-19T14:59:43.000Z</time>
      </trkpt>
      <trkpt lat="45.4714" lon="1.84237">
        <ele>953</ele>
        <time>2011-03-19T14:59:49.000Z</time>
      </trkpt>
      <trkpt lat="45.4714" lon="1.84237">
        <ele>953</ele>
        <time>2011-03-19T14:59:54.000Z</time>
      </trkpt>
      <trkpt lat="45.4714" lon="1.84237">
        <ele>953</ele>
        <time>2011-03-19T14:59:59.000Z</time>
      </trkpt>
      <trkpt lat="45.4714" lon="1.84237">
        <ele>953</ele>
        <time>2011-03-19T15:00:05.000Z</time>
      </trkpt>
      <trkpt lat="45.4714" lon="1.84233">
        <ele>954</ele>
        <time>2011-03-19T15:00:10.000Z</time>
      </trkpt>
      <trkpt lat="45.4714" lon="1.84237">
        <ele>953</ele>
        <time>2011-03-19T15:00:15.000Z</time>
      </trkpt>
      <trkpt lat="45.4714" lon="1.84237">
        <ele>953</ele>
        <time>2011-03-19T15:00:21.000Z</time>
      </trkpt>
      <trkpt lat="45.4714" lon="1.84235">
        <ele>953</ele>
        <time>2011-03-19T15:00:26.000Z</time>
      </trkpt>
      <trkpt lat="45.4714" lon="1.84236">
        <ele>952</ele>
        <time>2011-03-19T15:00:31.000Z</time>
      </trkpt>
      <trkpt lat="45.4714" lon="1.8424">
        <ele>955</ele>
        <time>2011-03-19T15:00:37.000Z</time>
      </trkpt>
      <trkpt lat="45.4714" lon="1.84248">
        <ele>954</ele>
        <time>2011-03-19T15:00:42.000Z</time>
      </trkpt>
      <trkpt lat="45.4715" lon="1.84258">
        <ele>954</ele>
        <time>2011-03-19T15:00:48.000Z</time>
      </trkpt>
      <trkpt lat="45.4716" lon="1.84268">
        <ele>953</ele>
        <time>2011-03-19T15:00:53.000Z</time>
      </trkpt>
      <trkpt lat="45.4718" lon="1.8428">
        <ele>954</ele>
        <time>2011-03-19T15:00:58.000Z</time>
      </trkpt>
      <trkpt lat="45.4719" lon="1.84294">
        <ele>953</ele>
        <time>2011-03-19T15:01:03.000Z</time>
      </trkpt>
      <trkpt lat="45.4721" lon="1.8431">
        <ele>953</ele>
        <time>2011-03-19T15:01:09.000Z</time>
      </trkpt>
      <trkpt lat="45.4722" lon="1.84322">
        <ele>953</ele>
        <time>2011-03-19T15:01:14.000Z</time>
      </trkpt>
      <trkpt lat="45.4723" lon="1.84333">
        <ele>956</ele>
        <time>2011-03-19T15:01:19.000Z</time>
      </trkpt>
      <trkpt lat="45.4723" lon="1.84353">
        <ele>955</ele>
        <time>2011-03-19T15:01:25.000Z</time>
      </trkpt>
      <trkpt lat="45.4724" lon="1.84376">
        <ele>953</ele>
        <time>2011-03-19T15:01:30.000Z</time>
      </trkpt>
      <trkpt lat="45.4724" lon="1.84391">
        <ele>954</ele>
        <time>2011-03-19T15:01:35.000Z</time>
      </trkpt>
      <trkpt lat="45.4724" lon="1.84407">
        <ele>954</ele>
        <time>2011-03-19T15:01:41.000Z</time>
      </trkpt>
      <trkpt lat="45.4725" lon="1.84428">
        <ele>954</ele>
        <time>2011-03-19T15:01:46.000Z</time>
      </trkpt>
      <trkpt lat="45.4728" lon="1.8446">
        <ele>951</ele>
        <time>2011-03-19T15:01:51.000Z</time>
      </trkpt>
      <trkpt lat="45.4731" lon="1.84493">
        <ele>950</ele>
        <time>2011-03-19T15:01:57.000Z</time>
      </trkpt>
      <trkpt lat="45.4732" lon="1.84544">
        <ele>949</ele>
        <time>2011-03-19T15:02:02.000Z</time>
      </trkpt>
      <trkpt lat="45.4732" lon="1.84605">
        <ele>947</ele>
        <time>2011-03-19T15:02:07.000Z</time>
      </trkpt>
      <trkpt lat="45.473" lon="1.84666">
        <ele>945</ele>
        <time>2011-03-19T15:02:12.000Z</time>
      </trkpt>
      <trkpt lat="45.4728" lon="1.84725">
        <ele>945</ele>
        <time>2011-03-19T15:02:18.000Z</time>
      </trkpt>
      <trkpt lat="45.4729" lon="1.84776">
        <ele>945</ele>
        <time>2011-03-19T15:02:23.000Z</time>
      </trkpt>
      <trkpt lat="45.473" lon="1.84825">
        <ele>947</ele>
        <time>2011-03-19T15:02:28.000Z</time>
      </trkpt>
      <trkpt lat="45.4731" lon="1.84889">
        <ele>944</ele>
        <time>2011-03-19T15:02:34.000Z</time>
      </trkpt>
      <trkpt lat="45.4732" lon="1.8494">
        <ele>942</ele>
        <time>2011-03-19T15:02:39.000Z</time>
      </trkpt>
      <trkpt lat="45.4734" lon="1.84997">
        <ele>939</ele>
        <time>2011-03-19T15:02:44.000Z</time>
      </trkpt>
      <trkpt lat="45.4738" lon="1.8503">
        <ele>937</ele>
        <time>2011-03-19T15:02:50.000Z</time>
      </trkpt>
      <trkpt lat="45.4741" lon="1.85052">
        <ele>934</ele>
        <time>2011-03-19T15:02:55.000Z</time>
      </trkpt>
      <trkpt lat="45.4744" lon="1.85063">
        <ele>931</ele>
        <time>2011-03-19T15:03:00.000Z</time>
      </trkpt>
      <trkpt lat="45.4748" lon="1.85032">
        <ele>924</ele>
        <time>2011-03-19T15:03:06.000Z</time>
      </trkpt>
      <trkpt lat="45.475" lon="1.84976">
        <ele>920</ele>
        <time>2011-03-19T15:03:11.000Z</time>
      </trkpt>
      <trkpt lat="45.4752" lon="1.84916">
        <ele>919</ele>
        <time>2011-03-19T15:03:16.000Z</time>
      </trkpt>
      <trkpt lat="45.4755" lon="1.84854">
        <ele>917</ele>
        <time>2011-03-19T15:03:22.000Z</time>
      </trkpt>
      <trkpt lat="45.4757" lon="1.84818">
        <ele>914</ele>
        <time>2011-03-19T15:03:27.000Z</time>
      </trkpt>
      <trkpt lat="45.4761" lon="1.84802">
        <ele>908</ele>
        <time>2011-03-19T15:03:32.000Z</time>
      </trkpt>
      <trkpt lat="45.4765" lon="1.84841">
        <ele>906</ele>
        <time>2011-03-19T15:03:38.000Z</time>
      </trkpt>
      <trkpt lat="45.4768" lon="1.8487">
        <ele>904</ele>
        <time>2011-03-19T15:03:43.000Z</time>
      </trkpt>
      <trkpt lat="45.4771" lon="1.84892">
        <ele>904</ele>
        <time>2011-03-19T15:03:48.000Z</time>
      </trkpt>
      <trkpt lat="45.4774" lon="1.84893">
        <ele>906</ele>
        <time>2011-03-19T15:03:54.000Z</time>
      </trkpt>
      <trkpt lat="45.4777" lon="1.8488">
        <ele>904</ele>
        <time>2011-03-19T15:03:59.000Z</time>
      </trkpt>
      <trkpt lat="45.478" lon="1.84852">
        <ele>902</ele>
        <time>2011-03-19T15:04:04.000Z</time>
      </trkpt>
      <trkpt lat="45.4783" lon="1.84803">
        <ele>901</ele>
        <time>2011-03-19T15:04:10.000Z</time>
      </trkpt>
      <trkpt lat="45.4786" lon="1.84783">
        <ele>901</ele>
        <time>2011-03-19T15:04:15.000Z</time>
      </trkpt>
      <trkpt lat="45.479" lon="1.84768">
        <ele>900</ele>
        <time>2011-03-19T15:04:20.000Z</time>
      </trkpt>
      <trkpt lat="45.4795" lon="1.84796">
        <ele>898</ele>
        <time>2011-03-19T15:04:26.000Z</time>
      </trkpt>
      <trkpt lat="45.4799" lon="1.84839">
        <ele>895</ele>
        <time>2011-03-19T15:04:31.000Z</time>
      </trkpt>
      <trkpt lat="45.4802" lon="1.84893">
        <ele>895</ele>
        <time>2011-03-19T15:04:37.000Z</time>
      </trkpt>
      <trkpt lat="45.4804" lon="1.84921">
        <ele>891</ele>
        <time>2011-03-19T15:04:42.000Z</time>
      </trkpt>
      <trkpt lat="45.4805" lon="1.84873">
        <ele>886</ele>
        <time>2011-03-19T15:04:47.000Z</time>
      </trkpt>
      <trkpt lat="45.4804" lon="1.84817">
        <ele>886</ele>
        <time>2011-03-19T15:04:53.000Z</time>
      </trkpt>
      <trkpt lat="45.4802" lon="1.84765">
        <ele>886</ele>
        <time>2011-03-19T15:04:58.000Z</time>
      </trkpt>
      <trkpt lat="45.48" lon="1.84725">
        <ele>885</ele>
        <time>2011-03-19T15:05:03.000Z</time>
      </trkpt>
      <trkpt lat="45.48" lon="1.84697">
        <ele>883</ele>
        <time>2011-03-19T15:05:08.000Z</time>
      </trkpt>
      <trkpt lat="45.4799" lon="1.84668">
        <ele>883</ele>
        <time>2011-03-19T15:05:13.000Z</time>
      </trkpt>
      <trkpt lat="45.4799" lon="1.84604">
        <ele>882</ele>
        <time>2011-03-19T15:05:18.000Z</time>
      </trkpt>
      <trkpt lat="45.4797" lon="1.84548">
        <ele>882</ele>
        <time>2011-03-19T15:05:23.000Z</time>
      </trkpt>
      <trkpt lat="45.4793" lon="1.84489">
        <ele>879</ele>
        <time>2011-03-19T15:05:28.000Z</time>
      </trkpt>
      <trkpt lat="45.4788" lon="1.84435">
        <ele>867</ele>
        <time>2011-03-19T15:05:34.000Z</time>
      </trkpt>
      <trkpt lat="45.4783" lon="1.84427">
        <ele>870</ele>
        <time>2011-03-19T15:05:39.000Z</time>
      </trkpt>
      <trkpt lat="45.4781" lon="1.84401">
        <ele>871</ele>
        <time>2011-03-19T15:05:44.000Z</time>
      </trkpt>
      <trkpt lat="45.4782" lon="1.84341">
        <ele>869</ele>
        <time>2011-03-19T15:05:49.000Z</time>
      </trkpt>
      <trkpt lat="45.4784" lon="1.84258">
        <ele>856</ele>
        <time>2011-03-19T15:05:54.000Z</time>
      </trkpt>
      <trkpt lat="45.4787" lon="1.84181">
        <ele>850</ele>
        <time>2011-03-19T15:05:59.000Z</time>
      </trkpt>
      <trkpt lat="45.4788" lon="1.8411">
        <ele>848</ele>
        <time>2011-03-19T15:06:04.000Z</time>
      </trkpt>
      <trkpt lat="45.4789" lon="1.84032">
        <ele>847</ele>
        <time>2011-03-19T15:06:10.000Z</time>
      </trkpt>
      <trkpt lat="45.479" lon="1.83959">
        <ele>841</ele>
        <time>2011-03-19T15:06:15.000Z</time>
      </trkpt>
      <trkpt lat="45.4789" lon="1.83861">
        <ele>843</ele>
        <time>2011-03-19T15:06:21.000Z</time>
      </trkpt>
      <trkpt lat="45.4788" lon="1.83772">
        <ele>845</ele>
        <time>2011-03-19T15:06:26.000Z</time>
      </trkpt>
      <trkpt lat="45.4787" lon="1.83696">
        <ele>846</ele>
        <time>2011-03-19T15:06:31.000Z</time>
      </trkpt>
      <trkpt lat="45.4784" lon="1.83662">
        <ele>848</ele>
        <time>2011-03-19T15:06:36.000Z</time>
      </trkpt>
      <trkpt lat="45.4778" lon="1.83684">
        <ele>843</ele>
        <time>2011-03-19T15:06:42.000Z</time>
      </trkpt>
      <trkpt lat="45.4774" lon="1.83664">
        <ele>844</ele>
        <time>2011-03-19T15:06:47.000Z</time>
      </trkpt>
      <trkpt lat="45.4768" lon="1.83617">
        <ele>843</ele>
        <time>2011-03-19T15:06:52.000Z</time>
      </trkpt>
      <trkpt lat="45.4759" lon="1.83573">
        <ele>844</ele>
        <time>2011-03-19T15:06:57.000Z</time>
      </trkpt>
      <trkpt lat="45.4752" lon="1.83538">
        <ele>844</ele>
        <time>2011-03-19T15:07:03.000Z</time>
      </trkpt>
      <trkpt lat="45.4744" lon="1.8353">
        <ele>836</ele>
        <time>2011-03-19T15:07:08.000Z</time>
      </trkpt>
      <trkpt lat="45.4737" lon="1.8353">
        <ele>833</ele>
        <time>2011-03-19T15:07:13.000Z</time>
      </trkpt>
      <trkpt lat="45.4731" lon="1.83564">
        <ele>828</ele>
        <time>2011-03-19T15:07:19.000Z</time>
      </trkpt>
      <trkpt lat="45.4727" lon="1.83589">
        <ele>823</ele>
        <time>2011-03-19T15:07:24.000Z</time>
      </trkpt>
      <trkpt lat="45.4725" lon="1.83583">
        <ele>824</ele>
        <time>2011-03-19T15:07:29.000Z</time>
      </trkpt>
      <trkpt lat="45.4724" lon="1.83537">
        <ele>832</ele>
        <time>2011-03-19T15:07:35.000Z</time>
      </trkpt>
      <trkpt lat="45.4722" lon="1.83464">
        <ele>833</ele>
        <time>2011-03-19T15:07:40.000Z</time>
      </trkpt>
      <trkpt lat="45.4722" lon="1.83378">
        <ele>836</ele>
        <time>2011-03-19T15:07:45.000Z</time>
      </trkpt>
      <trkpt lat="45.472" lon="1.83304">
        <ele>837</ele>
        <time>2011-03-19T15:07:51.000Z</time>
      </trkpt>
      <trkpt lat="45.4716" lon="1.83222">
        <ele>840</ele>
        <time>2011-03-19T15:07:56.000Z</time>
      </trkpt>
      <trkpt lat="45.4714" lon="1.83141">
        <ele>839</ele>
        <time>2011-03-19T15:08:01.000Z</time>
      </trkpt>
      <trkpt lat="45.4711" lon="1.83047">
        <ele>830</ele>
        <time>2011-03-19T15:08:07.000Z</time>
      </trkpt>
      <trkpt lat="45.4711" lon="1.82962">
        <ele>829</ele>
        <time>2011-03-19T15:08:12.000Z</time>
      </trkpt>
      <trkpt lat="45.4711" lon="1.82882">
        <ele>830</ele>
        <time>2011-03-19T15:08:17.000Z</time>
      </trkpt>
      <trkpt lat="45.4709" lon="1.82807">
        <ele>827</ele>
        <time>2011-03-19T15:08:22.000Z</time>
      </trkpt>
      <trkpt lat="45.4707" lon="1.82735">
        <ele>827</ele>
        <time>2011-03-19T15:08:27.000Z</time>
      </trkpt>
      <trkpt lat="45.4706" lon="1.82664">
        <ele>827</ele>
        <time>2011-03-19T15:08:32.000Z</time>
      </trkpt>
      <trkpt lat="45.4695" lon="1.82599">
        <ele>804</ele>
        <time>2011-03-19T15:08:38.000Z</time>
      </trkpt>
      <trkpt lat="45.4694" lon="1.82535">
        <ele>774</ele>
        <time>2011-03-19T15:08:43.000Z</time>
      </trkpt>
      <trkpt lat="45.4696" lon="1.82472">
        <ele>744</ele>
        <time>2011-03-19T15:08:48.000Z</time>
      </trkpt>
      <trkpt lat="45.4697" lon="1.82381">
        <ele>738</ele>
        <time>2011-03-19T15:08:54.000Z</time>
      </trkpt>
      <trkpt lat="45.4697" lon="1.82295">
        <ele>734</ele>
        <time>2011-03-19T15:08:59.000Z</time>
      </trkpt>
      <trkpt lat="45.4698" lon="1.82206">
        <ele>731</ele>
        <time>2011-03-19T15:09:04.000Z</time>
      </trkpt>
      <trkpt lat="45.4697" lon="1.82121">
        <ele>718</ele>
        <time>2011-03-19T15:09:10.000Z</time>
      </trkpt>
      <trkpt lat="45.4696" lon="1.82046">
        <ele>712</ele>
        <time>2011-03-19T15:09:15.000Z</time>
      </trkpt>
      <trkpt lat="45.4695" lon="1.81986">
        <ele>710</ele>
        <time>2011-03-19T15:09:20.000Z</time>
      </trkpt>
      <trkpt lat="45.4694" lon="1.81934">
        <ele>711</ele>
        <time>2011-03-19T15:09:26.000Z</time>
      </trkpt>
      <trkpt lat="45.4693" lon="1.81904">
        <ele>712</ele>
        <time>2011-03-19T15:09:31.000Z</time>
      </trkpt>
      <trkpt lat="45.4692" lon="1.81892">
        <ele>711</ele>
        <time>2011-03-19T15:09:36.000Z</time>
      </trkpt>
      <trkpt lat="45.4689" lon="1.81895">
        <ele>714</ele>
        <time>2011-03-19T15:09:41.000Z</time>
      </trkpt>
      <trkpt lat="45.4684" lon="1.81895">
        <ele>716</ele>
        <time>2011-03-19T15:09:47.000Z</time>
      </trkpt>
      <trkpt lat="45.468" lon="1.81902">
        <ele>715</ele>
        <time>2011-03-19T15:09:52.000Z</time>
      </trkpt>
      <trkpt lat="45.4678" lon="1.81904">
        <ele>715</ele>
        <time>2011-03-19T15:09:58.000Z</time>
      </trkpt>
      <trkpt lat="45.4675" lon="1.81913">
        <ele>717</ele>
        <time>2011-03-19T15:10:03.000Z</time>
      </trkpt>
      <trkpt lat="45.4675" lon="1.81898">
        <ele>720</ele>
        <time>2011-03-19T15:10:08.000Z</time>
      </trkpt>
      <trkpt lat="45.4673" lon="1.81874">
        <ele>722</ele>
        <time>2011-03-19T15:10:14.000Z</time>
      </trkpt>
      <trkpt lat="45.4668" lon="1.81863">
        <ele>725</ele>
        <time>2011-03-19T15:10:19.000Z</time>
      </trkpt>
      <trkpt lat="45.4665" lon="1.81859">
        <ele>730</ele>
        <time>2011-03-19T15:10:24.000Z</time>
      </trkpt>
      <trkpt lat="45.4661" lon="1.81834">
        <ele>720</ele>
        <time>2011-03-19T15:10:30.000Z</time>
      </trkpt>
      <trkpt lat="45.4658" lon="1.81813">
        <ele>708</ele>
        <time>2011-03-19T15:10:35.000Z</time>
      </trkpt>
      <trkpt lat="45.4656" lon="1.81783">
        <ele>701</ele>
        <time>2011-03-19T15:10:40.000Z</time>
      </trkpt>
      <trkpt lat="45.4652" lon="1.81744">
        <ele>698</ele>
        <time>2011-03-19T15:10:46.000Z</time>
      </trkpt>
      <trkpt lat="45.4648" lon="1.81707">
        <ele>696</ele>
        <time>2011-03-19T15:10:51.000Z</time>
      </trkpt>
      <trkpt lat="45.4644" lon="1.81673">
        <ele>694</ele>
        <time>2011-03-19T15:10:56.000Z</time>
      </trkpt>
      <trkpt lat="45.4639" lon="1.81634">
        <ele>693</ele>
        <time>2011-03-19T15:11:02.000Z</time>
      </trkpt>
      <trkpt lat="45.4635" lon="1.81606">
        <ele>691</ele>
        <time>2011-03-19T15:11:07.000Z</time>
      </trkpt>
      <trkpt lat="45.463" lon="1.81579">
        <ele>689</ele>
        <time>2011-03-19T15:11:12.000Z</time>
      </trkpt>
      <trkpt lat="45.4625" lon="1.81548">
        <ele>686</ele>
        <time>2011-03-19T15:11:18.000Z</time>
      </trkpt>
      <trkpt lat="45.4623" lon="1.81517">
        <ele>685</ele>
        <time>2011-03-19T15:11:23.000Z</time>
      </trkpt>
      <trkpt lat="45.462" lon="1.81494">
        <ele>687</ele>
        <time>2011-03-19T15:11:28.000Z</time>
      </trkpt>
      <trkpt lat="45.4619" lon="1.81482">
        <ele>687</ele>
        <time>2011-03-19T15:11:34.000Z</time>
      </trkpt>
      <trkpt lat="45.4616" lon="1.81487">
        <ele>687</ele>
        <time>2011-03-19T15:11:39.000Z</time>
      </trkpt>
      <trkpt lat="45.4613" lon="1.81509">
        <ele>689</ele>
        <time>2011-03-19T15:11:44.000Z</time>
      </trkpt>
      <trkpt lat="45.4609" lon="1.81552">
        <ele>691</ele>
        <time>2011-03-19T15:11:50.000Z</time>
      </trkpt>
      <trkpt lat="45.4606" lon="1.81587">
        <ele>691</ele>
        <time>2011-03-19T15:11:55.000Z</time>
      </trkpt>
      <trkpt lat="45.4601" lon="1.81588">
        <ele>690</ele>
        <time>2011-03-19T15:12:00.000Z</time>
      </trkpt>
      <trkpt lat="45.4596" lon="1.81599">
        <ele>684</ele>
        <time>2011-03-19T15:12:05.000Z</time>
      </trkpt>
      <trkpt lat="45.4591" lon="1.81616">
        <ele>679</ele>
        <time>2011-03-19T15:12:10.000Z</time>
      </trkpt>
      <trkpt lat="45.4587" lon="1.8167">
        <ele>671</ele>
        <time>2011-03-19T15:12:15.000Z</time>
      </trkpt>
      <trkpt lat="45.4583" lon="1.81748">
        <ele>654</ele>
        <time>2011-03-19T15:12:21.000Z</time>
      </trkpt>
      <trkpt lat="45.458" lon="1.81807">
        <ele>650</ele>
        <time>2011-03-19T15:12:26.000Z</time>
      </trkpt>
      <trkpt lat="45.4575" lon="1.81825">
        <ele>649</ele>
        <time>2011-03-19T15:12:31.000Z</time>
      </trkpt>
      <trkpt lat="45.457" lon="1.81832">
        <ele>650</ele>
        <time>2011-03-19T15:12:37.000Z</time>
      </trkpt>
      <trkpt lat="45.4567" lon="1.81837">
        <ele>652</ele>
        <time>2011-03-19T15:12:42.000Z</time>
      </trkpt>
      <trkpt lat="45.4564" lon="1.81841">
        <ele>655</ele>
        <time>2011-03-19T15:12:47.000Z</time>
      </trkpt>
      <trkpt lat="45.456" lon="1.81847">
        <ele>661</ele>
        <time>2011-03-19T15:12:53.000Z</time>
      </trkpt>
      <trkpt lat="45.4557" lon="1.81855">
        <ele>662</ele>
        <time>2011-03-19T15:12:58.000Z</time>
      </trkpt>
      <trkpt lat="45.4556" lon="1.8186">
        <ele>662</ele>
        <time>2011-03-19T15:13:03.000Z</time>
      </trkpt>
      <trkpt lat="45.4554" lon="1.81871">
        <ele>663</ele>
        <time>2011-03-19T15:13:09.000Z</time>
      </trkpt>
      <trkpt lat="45.4552" lon="1.81856">
        <ele>663</ele>
        <time>2011-03-19T15:13:14.000Z</time>
      </trkpt>
      <trkpt lat="45.455" lon="1.81833">
        <ele>661</ele>
        <time>2011-03-19T15:13:19.000Z</time>
      </trkpt>
      <trkpt lat="45.4548" lon="1.81804">
        <ele>660</ele>
        <time>2011-03-19T15:13:24.000Z</time>
      </trkpt>
      <trkpt lat="45.4546" lon="1.81775">
        <ele>657</ele>
        <time>2011-03-19T15:13:29.000Z</time>
      </trkpt>
      <trkpt lat="45.4544" lon="1.81757">
        <ele>661</ele>
        <time>2011-03-19T15:13:34.000Z</time>
      </trkpt>
      <trkpt lat="45.454" lon="1.81745">
        <ele>664</ele>
        <time>2011-03-19T15:13:40.000Z</time>
      </trkpt>
      <trkpt lat="45.4537" lon="1.81757">
        <ele>663</ele>
        <time>2011-03-19T15:13:45.000Z</time>
      </trkpt>
      <trkpt lat="45.4533" lon="1.81778">
        <ele>657</ele>
        <time>2011-03-19T15:13:50.000Z</time>
      </trkpt>
      <trkpt lat="45.4531" lon="1.81788">
        <ele>657</ele>
        <time>2011-03-19T15:13:56.000Z</time>
      </trkpt>
      <trkpt lat="45.4529" lon="1.81801">
        <ele>657</ele>
        <time>2011-03-19T15:14:01.000Z</time>
      </trkpt>
      <trkpt lat="45.4528" lon="1.81808">
        <ele>658</ele>
        <time>2011-03-19T15:14:06.000Z</time>
      </trkpt>
      <trkpt lat="45.4526" lon="1.8181">
        <ele>661</ele>
        <time>2011-03-19T15:14:12.000Z</time>
      </trkpt>
      <trkpt lat="45.4524" lon="1.81802">
        <ele>664</ele>
        <time>2011-03-19T15:14:17.000Z</time>
      </trkpt>
      <trkpt lat="45.4522" lon="1.81794">
        <ele>662</ele>
        <time>2011-03-19T15:14:22.000Z</time>
      </trkpt>
      <trkpt lat="45.4517" lon="1.81779">
        <ele>660</ele>
        <time>2011-03-19T15:14:28.000Z</time>
      </trkpt>
      <trkpt lat="45.4511" lon="1.81774">
        <ele>657</ele>
        <time>2011-03-19T15:14:33.000Z</time>
      </trkpt>
      <trkpt lat="45.4506" lon="1.81787">
        <ele>652</ele>
        <time>2011-03-19T15:14:38.000Z</time>
      </trkpt>
      <trkpt lat="45.4502" lon="1.81836">
        <ele>645</ele>
        <time>2011-03-19T15:14:43.000Z</time>
      </trkpt>
      <trkpt lat="45.4498" lon="1.81873">
        <ele>644</ele>
        <time>2011-03-19T15:14:48.000Z</time>
      </trkpt>
      <trkpt lat="45.4495" lon="1.81884">
        <ele>644</ele>
        <time>2011-03-19T15:14:53.000Z</time>
      </trkpt>
      <trkpt lat="45.4491" lon="1.81889">
        <ele>645</ele>
        <time>2011-03-19T15:14:58.000Z</time>
      </trkpt>
      <trkpt lat="45.4489" lon="1.81896">
        <ele>646</ele>
        <time>2011-03-19T15:15:03.000Z</time>
      </trkpt>
      <trkpt lat="45.4487" lon="1.81898">
        <ele>649</ele>
        <time>2011-03-19T15:15:09.000Z</time>
      </trkpt>
      <trkpt lat="45.4486" lon="1.81909">
        <ele>650</ele>
        <time>2011-03-19T15:15:14.000Z</time>
      </trkpt>
      <trkpt lat="45.4484" lon="1.81914">
        <ele>652</ele>
        <time>2011-03-19T15:15:19.000Z</time>
      </trkpt>
      <trkpt lat="45.4484" lon="1.81917">
        <ele>654</ele>
        <time>2011-03-19T15:15:25.000Z</time>
      </trkpt>
      <trkpt lat="45.4483" lon="1.81922">
        <ele>655</ele>
        <time>2011-03-19T15:15:30.000Z</time>
      </trkpt>
      <trkpt lat="45.4482" lon="1.8193">
        <ele>658</ele>
        <time>2011-03-19T15:15:35.000Z</time>
      </trkpt>
      <trkpt lat="45.448" lon="1.81949">
        <ele>658</ele>
        <time>2011-03-19T15:15:41.000Z</time>
      </trkpt>
      <trkpt lat="45.4479" lon="1.81963">
        <ele>661</ele>
        <time>2011-03-19T15:15:46.000Z</time>
      </trkpt>
      <trkpt lat="45.4478" lon="1.81973">
        <ele>665</ele>
        <time>2011-03-19T15:15:51.000Z</time>
      </trkpt>
      <trkpt lat="45.4477" lon="1.81984">
        <ele>667</ele>
        <time>2011-03-19T15:15:56.000Z</time>
      </trkpt>
      <trkpt lat="45.4476" lon="1.81995">
        <ele>668</ele>
        <time>2011-03-19T15:16:01.000Z</time>
      </trkpt>
      <trkpt lat="45.4475" lon="1.81999">
        <ele>671</ele>
        <time>2011-03-19T15:16:06.000Z</time>
      </trkpt>
      <trkpt lat="45.4473" lon="1.82007">
        <ele>673</ele>
        <time>2011-03-19T15:16:11.000Z</time>
      </trkpt>
      <trkpt lat="45.4472" lon="1.82013">
        <ele>677</ele>
        <time>2011-03-19T15:16:16.000Z</time>
      </trkpt>
      <trkpt lat="45.4471" lon="1.82019">
        <ele>677</ele>
        <time>2011-03-19T15:16:21.000Z</time>
      </trkpt>
      <trkpt lat="45.4469" lon="1.82022">
        <ele>681</ele>
        <time>2011-03-19T15:16:27.000Z</time>
      </trkpt>
      <trkpt lat="45.4467" lon="1.82022">
        <ele>684</ele>
        <time>2011-03-19T15:16:32.000Z</time>
      </trkpt>
      <trkpt lat="45.4466" lon="1.82024">
        <ele>686</ele>
        <time>2011-03-19T15:16:37.000Z</time>
      </trkpt>
      <trkpt lat="45.4464" lon="1.82028">
        <ele>692</ele>
        <time>2011-03-19T15:16:43.000Z</time>
      </trkpt>
      <trkpt lat="45.4463" lon="1.82023">
        <ele>692</ele>
        <time>2011-03-19T15:16:48.000Z</time>
      </trkpt>
      <trkpt lat="45.4462" lon="1.82025">
        <ele>693</ele>
        <time>2011-03-19T15:16:53.000Z</time>
      </trkpt>
      <trkpt lat="45.4458" lon="1.82042">
        <ele>693</ele>
        <time>2011-03-19T15:16:59.000Z</time>
      </trkpt>
      <trkpt lat="45.4456" lon="1.82055">
        <ele>693</ele>
        <time>2011-03-19T15:17:04.000Z</time>
      </trkpt>
      <trkpt lat="45.4454" lon="1.82064">
        <ele>696</ele>
        <time>2011-03-19T15:17:09.000Z</time>
      </trkpt>
      <trkpt lat="45.4451" lon="1.82079">
        <ele>698</ele>
        <time>2011-03-19T15:17:15.000Z</time>
      </trkpt>
      <trkpt lat="45.445" lon="1.82084">
        <ele>694</ele>
        <time>2011-03-19T15:17:20.000Z</time>
      </trkpt>
      <trkpt lat="45.4447" lon="1.82089">
        <ele>689</ele>
        <time>2011-03-19T15:17:25.000Z</time>
      </trkpt>
      <trkpt lat="45.4442" lon="1.82101">
        <ele>687</ele>
        <time>2011-03-19T15:17:31.000Z</time>
      </trkpt>
      <trkpt lat="45.4437" lon="1.82105">
        <ele>686</ele>
        <time>2011-03-19T15:17:36.000Z</time>
      </trkpt>
      <trkpt lat="45.4431" lon="1.8211">
        <ele>684</ele>
        <time>2011-03-19T15:17:41.000Z</time>
      </trkpt>
      <trkpt lat="45.4425" lon="1.82124">
        <ele>678</ele>
        <time>2011-03-19T15:17:47.000Z</time>
      </trkpt>
      <trkpt lat="45.442" lon="1.82134">
        <ele>672</ele>
        <time>2011-03-19T15:17:52.000Z</time>
      </trkpt>
      <trkpt lat="45.4415" lon="1.82165">
        <ele>672</ele>
        <time>2011-03-19T15:17:57.000Z</time>
      </trkpt>
      <trkpt lat="45.4409" lon="1.82191">
        <ele>670</ele>
        <time>2011-03-19T15:18:03.000Z</time>
      </trkpt>
      <trkpt lat="45.4404" lon="1.82204">
        <ele>671</ele>
        <time>2011-03-19T15:18:08.000Z</time>
      </trkpt>
      <trkpt lat="45.44" lon="1.82226">
        <ele>670</ele>
        <time>2011-03-19T15:18:13.000Z</time>
      </trkpt>
      <trkpt lat="45.4394" lon="1.82262">
        <ele>664</ele>
        <time>2011-03-19T15:18:19.000Z</time>
      </trkpt>
      <trkpt lat="45.4389" lon="1.82288">
        <ele>659</ele>
        <time>2011-03-19T15:18:24.000Z</time>
      </trkpt>
      <trkpt lat="45.4385" lon="1.82303">
        <ele>656</ele>
        <time>2011-03-19T15:18:29.000Z</time>
      </trkpt>
      <trkpt lat="45.4382" lon="1.82328">
        <ele>652</ele>
        <time>2011-03-19T15:18:35.000Z</time>
      </trkpt>
      <trkpt lat="45.438" lon="1.82354">
        <ele>647</ele>
        <time>2011-03-19T15:18:40.000Z</time>
      </trkpt>
      <trkpt lat="45.4378" lon="1.82399">
        <ele>644</ele>
        <time>2011-03-19T15:18:45.000Z</time>
      </trkpt>
      <trkpt lat="45.4377" lon="1.82452">
        <ele>639</ele>
        <time>2011-03-19T15:18:50.000Z</time>
      </trkpt>
      <trkpt lat="45.4373" lon="1.82492">
        <ele>637</ele>
        <time>2011-03-19T15:18:56.000Z</time>
      </trkpt>
      <trkpt lat="45.4369" lon="1.82524">
        <ele>632</ele>
        <time>2011-03-19T15:19:01.000Z</time>
      </trkpt>
      <trkpt lat="45.4365" lon="1.82543">
        <ele>629</ele>
        <time>2011-03-19T15:19:06.000Z</time>
      </trkpt>
      <trkpt lat="45.4361" lon="1.82543">
        <ele>627</ele>
        <time>2011-03-19T15:19:11.000Z</time>
      </trkpt>
      <trkpt lat="45.4357" lon="1.82537">
        <ele>625</ele>
        <time>2011-03-19T15:19:17.000Z</time>
      </trkpt>
      <trkpt lat="45.4355" lon="1.82509">
        <ele>623</ele>
        <time>2011-03-19T15:19:22.000Z</time>
      </trkpt>
      <trkpt lat="45.4356" lon="1.82476">
        <ele>621</ele>
        <time>2011-03-19T15:19:27.000Z</time>
      </trkpt>
      <trkpt lat="45.4358" lon="1.82455">
        <ele>618</ele>
        <time>2011-03-19T15:19:33.000Z</time>
      </trkpt>
      <trkpt lat="45.436" lon="1.82428">
        <ele>614</ele>
        <time>2011-03-19T15:19:38.000Z</time>
      </trkpt>
      <trkpt lat="45.4361" lon="1.82393">
        <ele>614</ele>
        <time>2011-03-19T15:19:43.000Z</time>
      </trkpt>
      <trkpt lat="45.4362" lon="1.82355">
        <ele>615</ele>
        <time>2011-03-19T15:19:49.000Z</time>
      </trkpt>
      <trkpt lat="45.436" lon="1.82327">
        <ele>614</ele>
        <time>2011-03-19T15:19:54.000Z</time>
      </trkpt>
      <trkpt lat="45.4358" lon="1.82287">
        <ele>612</ele>
        <time>2011-03-19T15:19:59.000Z</time>
      </trkpt>
      <trkpt lat="45.4357" lon="1.82231">
        <ele>611</ele>
        <time>2011-03-19T15:20:05.000Z</time>
      </trkpt>
      <trkpt lat="45.4357" lon="1.8218">
        <ele>610</ele>
        <time>2011-03-19T15:20:10.000Z</time>
      </trkpt>
      <trkpt lat="45.4356" lon="1.82141">
        <ele>609</ele>
        <time>2011-03-19T15:20:15.000Z</time>
      </trkpt>
      <trkpt lat="45.4355" lon="1.82114">
        <ele>608</ele>
        <time>2011-03-19T15:20:20.000Z</time>
      </trkpt>
      <trkpt lat="45.4354" lon="1.82109">
        <ele>608</ele>
        <time>2011-03-19T15:20:25.000Z</time>
      </trkpt>
      <trkpt lat="45.4351" lon="1.82107">
        <ele>609</ele>
        <time>2011-03-19T15:20:30.000Z</time>
      </trkpt>
      <trkpt lat="45.4348" lon="1.82105">
        <ele>605</ele>
        <time>2011-03-19T15:20:36.000Z</time>
      </trkpt>
      <trkpt lat="45.4346" lon="1.82091">
        <ele>600</ele>
        <time>2011-03-19T15:20:41.000Z</time>
      </trkpt>
      <trkpt lat="45.4345" lon="1.82115">
        <ele>600</ele>
        <time>2011-03-19T15:20:46.000Z</time>
      </trkpt>
      <trkpt lat="45.4344" lon="1.82154">
        <ele>600</ele>
        <time>2011-03-19T15:20:51.000Z</time>
      </trkpt>
      <trkpt lat="45.4342" lon="1.82207">
        <ele>596</ele>
        <time>2011-03-19T15:20:56.000Z</time>
      </trkpt>
      <trkpt lat="45.4337" lon="1.82234">
        <ele>593</ele>
        <time>2011-03-19T15:21:01.000Z</time>
      </trkpt>
      <trkpt lat="45.4331" lon="1.82267">
        <ele>591</ele>
        <time>2011-03-19T15:21:07.000Z</time>
      </trkpt>
      <trkpt lat="45.4328" lon="1.82324">
        <ele>587</ele>
        <time>2011-03-19T15:21:12.000Z</time>
      </trkpt>
      <trkpt lat="45.4325" lon="1.82386">
        <ele>586</ele>
        <time>2011-03-19T15:21:17.000Z</time>
      </trkpt>
      <trkpt lat="45.4321" lon="1.82461">
        <ele>581</ele>
        <time>2011-03-19T15:21:23.000Z</time>
      </trkpt>
      <trkpt lat="45.4317" lon="1.82527">
        <ele>575</ele>
        <time>2011-03-19T15:21:28.000Z</time>
      </trkpt>
      <trkpt lat="45.4314" lon="1.82567">
        <ele>577</ele>
        <time>2011-03-19T15:21:33.000Z</time>
      </trkpt>
      <trkpt lat="45.4311" lon="1.82602">
        <ele>578</ele>
        <time>2011-03-19T15:21:39.000Z</time>
      </trkpt>
      <trkpt lat="45.4309" lon="1.8262">
        <ele>580</ele>
        <time>2011-03-19T15:21:44.000Z</time>
      </trkpt>
      <trkpt lat="45.4307" lon="1.82653">
        <ele>582</ele>
        <time>2011-03-19T15:21:49.000Z</time>
      </trkpt>
      <trkpt lat="45.4305" lon="1.82692">
        <ele>584</ele>
        <time>2011-03-19T15:21:55.000Z</time>
      </trkpt>
      <trkpt lat="45.4303" lon="1.82715">
        <ele>585</ele>
        <time>2011-03-19T15:22:00.000Z</time>
      </trkpt>
      <trkpt lat="45.4301" lon="1.82742">
        <ele>587</ele>
        <time>2011-03-19T15:22:05.000Z</time>
      </trkpt>
      <trkpt lat="45.43" lon="1.82774">
        <ele>588</ele>
        <time>2011-03-19T15:22:11.000Z</time>
      </trkpt>
      <trkpt lat="45.4299" lon="1.82804">
        <ele>591</ele>
        <time>2011-03-19T15:22:16.000Z</time>
      </trkpt>
      <trkpt lat="45.4298" lon="1.82832">
        <ele>593</ele>
        <time>2011-03-19T15:22:21.000Z</time>
      </trkpt>
      <trkpt lat="45.4297" lon="1.82863">
        <ele>594</ele>
        <time>2011-03-19T15:22:27.000Z</time>
      </trkpt>
      <trkpt lat="45.4297" lon="1.82898">
        <ele>594</ele>
        <time>2011-03-19T15:22:32.000Z</time>
      </trkpt>
      <trkpt lat="45.4296" lon="1.82929">
        <ele>592</ele>
        <time>2011-03-19T15:22:37.000Z</time>
      </trkpt>
      <trkpt lat="45.4296" lon="1.82955">
        <ele>591</ele>
        <time>2011-03-19T15:22:43.000Z</time>
      </trkpt>
      <trkpt lat="45.4296" lon="1.82981">
        <ele>591</ele>
        <time>2011-03-19T15:22:48.000Z</time>
      </trkpt>
      <trkpt lat="45.4296" lon="1.83015">
        <ele>591</ele>
        <time>2011-03-19T15:22:53.000Z</time>
      </trkpt>
      <trkpt lat="45.4295" lon="1.83043">
        <ele>591</ele>
        <time>2011-03-19T15:22:58.000Z</time>
      </trkpt>
      <trkpt lat="45.4293" lon="1.83067">
        <ele>593</ele>
        <time>2011-03-19T15:23:04.000Z</time>
      </trkpt>
      <trkpt lat="45.4293" lon="1.83088">
        <ele>592</ele>
        <time>2011-03-19T15:23:09.000Z</time>
      </trkpt>
      <trkpt lat="45.4293" lon="1.83103">
        <ele>591</ele>
        <time>2011-03-19T15:23:14.000Z</time>
      </trkpt>
      <trkpt lat="45.4292" lon="1.83116">
        <ele>592</ele>
        <time>2011-03-19T15:23:20.000Z</time>
      </trkpt>
      <trkpt lat="45.429" lon="1.83127">
        <ele>595</ele>
        <time>2011-03-19T15:23:25.000Z</time>
      </trkpt>
      <trkpt lat="45.4289" lon="1.83136">
        <ele>597</ele>
        <time>2011-03-19T15:23:30.000Z</time>
      </trkpt>
      <trkpt lat="45.4288" lon="1.83149">
        <ele>604</ele>
        <time>2011-03-19T15:23:36.000Z</time>
      </trkpt>
      <trkpt lat="45.4285" lon="1.8316">
        <ele>611</ele>
        <time>2011-03-19T15:23:41.000Z</time>
      </trkpt>
      <trkpt lat="45.4283" lon="1.83168">
        <ele>614</ele>
        <time>2011-03-19T15:23:46.000Z</time>
      </trkpt>
      <trkpt lat="45.428" lon="1.83174">
        <ele>618</ele>
        <time>2011-03-19T15:23:52.000Z</time>
      </trkpt>
      <trkpt lat="45.4278" lon="1.83188">
        <ele>618</ele>
        <time>2011-03-19T15:23:57.000Z</time>
      </trkpt>
      <trkpt lat="45.4277" lon="1.83202">
        <ele>618</ele>
        <time>2011-03-19T15:24:02.000Z</time>
      </trkpt>
      <trkpt lat="45.4275" lon="1.83229">
        <ele>620</ele>
        <time>2011-03-19T15:24:08.000Z</time>
      </trkpt>
      <trkpt lat="45.4274" lon="1.83253">
        <ele>617</ele>
        <time>2011-03-19T15:24:13.000Z</time>
      </trkpt>
      <trkpt lat="45.4273" lon="1.83277">
        <ele>616</ele>
        <time>2011-03-19T15:24:18.000Z</time>
      </trkpt>
      <trkpt lat="45.4272" lon="1.83301">
        <ele>617</ele>
        <time>2011-03-19T15:24:23.000Z</time>
      </trkpt>
      <trkpt lat="45.4271" lon="1.83325">
        <ele>617</ele>
        <time>2011-03-19T15:24:28.000Z</time>
      </trkpt>
      <trkpt lat="45.427" lon="1.83344">
        <ele>619</ele>
        <time>2011-03-19T15:24:33.000Z</time>
      </trkpt>
      <trkpt lat="45.4271" lon="1.83373">
        <ele>615</ele>
        <time>2011-03-19T15:24:38.000Z</time>
      </trkpt>
      <trkpt lat="45.4271" lon="1.83389">
        <ele>617</ele>
        <time>2011-03-19T15:24:43.000Z</time>
      </trkpt>
      <trkpt lat="45.4269" lon="1.83403">
        <ele>620</ele>
        <time>2011-03-19T15:24:48.000Z</time>
      </trkpt>
      <trkpt lat="45.4266" lon="1.83433">
        <ele>622</ele>
        <time>2011-03-19T15:24:54.000Z</time>
      </trkpt>
      <trkpt lat="45.4265" lon="1.83458">
        <ele>622</ele>
        <time>2011-03-19T15:24:59.000Z</time>
      </trkpt>
      <trkpt lat="45.4264" lon="1.83486">
        <ele>622</ele>
        <time>2011-03-19T15:25:04.000Z</time>
      </trkpt>
      <trkpt lat="45.4262" lon="1.83512">
        <ele>621</ele>
        <time>2011-03-19T15:25:09.000Z</time>
      </trkpt>
      <trkpt lat="45.4259" lon="1.83542">
        <ele>621</ele>
        <time>2011-03-19T15:25:15.000Z</time>
      </trkpt>
      <trkpt lat="45.4257" lon="1.83567">
        <ele>620</ele>
        <time>2011-03-19T15:25:20.000Z</time>
      </trkpt>
      <trkpt lat="45.4255" lon="1.83591">
        <ele>620</ele>
        <time>2011-03-19T15:25:25.000Z</time>
      </trkpt>
      <trkpt lat="45.4253" lon="1.83605">
        <ele>621</ele>
        <time>2011-03-19T15:25:30.000Z</time>
      </trkpt>
      <trkpt lat="45.4251" lon="1.83611">
        <ele>623</ele>
        <time>2011-03-19T15:25:35.000Z</time>
      </trkpt>
      <trkpt lat="45.4249" lon="1.83618">
        <ele>625</ele>
        <time>2011-03-19T15:25:40.000Z</time>
      </trkpt>
      <trkpt lat="45.4246" lon="1.83621">
        <ele>625</ele>
        <time>2011-03-19T15:25:46.000Z</time>
      </trkpt>
      <trkpt lat="45.4245" lon="1.83652">
        <ele>627</ele>
        <time>2011-03-19T15:25:51.000Z</time>
      </trkpt>
      <trkpt lat="45.4244" lon="1.83686">
        <ele>628</ele>
        <time>2011-03-19T15:25:56.000Z</time>
      </trkpt>
      <trkpt lat="45.4243" lon="1.83718">
        <ele>630</ele>
        <time>2011-03-19T15:26:02.000Z</time>
      </trkpt>
      <trkpt lat="45.4242" lon="1.8375">
        <ele>631</ele>
        <time>2011-03-19T15:26:07.000Z</time>
      </trkpt>
      <trkpt lat="45.4239" lon="1.83794">
        <ele>626</ele>
        <time>2011-03-19T15:26:12.000Z</time>
      </trkpt>
      <trkpt lat="45.4236" lon="1.83834">
        <ele>627</ele>
        <time>2011-03-19T15:26:18.000Z</time>
      </trkpt>
      <trkpt lat="45.4234" lon="1.83872">
        <ele>626</ele>
        <time>2011-03-19T15:26:23.000Z</time>
      </trkpt>
      <trkpt lat="45.4233" lon="1.83914">
        <ele>626</ele>
        <time>2011-03-19T15:26:28.000Z</time>
      </trkpt>
      <trkpt lat="45.4231" lon="1.83974">
        <ele>620</ele>
        <time>2011-03-19T15:26:34.000Z</time>
      </trkpt>
      <trkpt lat="45.4228" lon="1.84029">
        <ele>620</ele>
        <time>2011-03-19T15:26:39.000Z</time>
      </trkpt>
      <trkpt lat="45.4225" lon="1.84074">
        <ele>617</ele>
        <time>2011-03-19T15:26:44.000Z</time>
      </trkpt>
      <trkpt lat="45.4221" lon="1.84135">
        <ele>615</ele>
        <time>2011-03-19T15:26:50.000Z</time>
      </trkpt>
      <trkpt lat="45.4221" lon="1.84199">
        <ele>611</ele>
        <time>2011-03-19T15:26:55.000Z</time>
      </trkpt>
      <trkpt lat="45.4221" lon="1.84266">
        <ele>609</ele>
        <time>2011-03-19T15:27:00.000Z</time>
      </trkpt>
      <trkpt lat="45.4223" lon="1.84342">
        <ele>606</ele>
        <time>2011-03-19T15:27:06.000Z</time>
      </trkpt>
      <trkpt lat="45.4226" lon="1.84404">
        <ele>606</ele>
        <time>2011-03-19T15:27:11.000Z</time>
      </trkpt>
      <trkpt lat="45.4227" lon="1.84465">
        <ele>606</ele>
        <time>2011-03-19T15:27:16.000Z</time>
      </trkpt>
      <trkpt lat="45.4228" lon="1.84539">
        <ele>608</ele>
        <time>2011-03-19T15:27:22.000Z</time>
      </trkpt>
      <trkpt lat="45.4229" lon="1.84601">
        <ele>603</ele>
        <time>2011-03-19T15:27:27.000Z</time>
      </trkpt>
      <trkpt lat="45.4228" lon="1.84648">
        <ele>595</ele>
        <time>2011-03-19T15:27:32.000Z</time>
      </trkpt>
      <trkpt lat="45.4225" lon="1.84693">
        <ele>595</ele>
        <time>2011-03-19T15:27:38.000Z</time>
      </trkpt>
      <trkpt lat="45.4222" lon="1.84727">
        <ele>594</ele>
        <time>2011-03-19T15:27:43.000Z</time>
      </trkpt>
      <trkpt lat="45.422" lon="1.84763">
        <ele>593</ele>
        <time>2011-03-19T15:27:48.000Z</time>
      </trkpt>
      <trkpt lat="45.4218" lon="1.84804">
        <ele>591</ele>
        <time>2011-03-19T15:27:54.000Z</time>
      </trkpt>
      <trkpt lat="45.4217" lon="1.84827">
        <ele>592</ele>
        <time>2011-03-19T15:27:59.000Z</time>
      </trkpt>
      <trkpt lat="45.4216" lon="1.84837">
        <ele>595</ele>
        <time>2011-03-19T15:28:04.000Z</time>
      </trkpt>
      <trkpt lat="45.4216" lon="1.8486">
        <ele>599</ele>
        <time>2011-03-19T15:28:10.000Z</time>
      </trkpt>
      <trkpt lat="45.4215" lon="1.84877">
        <ele>603</ele>
        <time>2011-03-19T15:28:15.000Z</time>
      </trkpt>
      <trkpt lat="45.4214" lon="1.84894">
        <ele>606</ele>
        <time>2011-03-19T15:28:20.000Z</time>
      </trkpt>
      <trkpt lat="45.4213" lon="1.8491">
        <ele>612</ele>
        <time>2011-03-19T15:28:26.000Z</time>
      </trkpt>
      <trkpt lat="45.4213" lon="1.84927">
        <ele>618</ele>
        <time>2011-03-19T15:28:31.000Z</time>
      </trkpt>
      <trkpt lat="45.4212" lon="1.84942">
        <ele>623</ele>
        <time>2011-03-19T15:28:36.000Z</time>
      </trkpt>
      <trkpt lat="45.4212" lon="1.84961">
        <ele>627</ele>
        <time>2011-03-19T15:28:41.000Z</time>
      </trkpt>
      <trkpt lat="45.4212" lon="1.84986">
        <ele>631</ele>
        <time>2011-03-19T15:28:47.000Z</time>
      </trkpt>
      <trkpt lat="45.4212" lon="1.85011">
        <ele>632</ele>
        <time>2011-03-19T15:28:52.000Z</time>
      </trkpt>
      <trkpt lat="45.4211" lon="1.8503">
        <ele>634</ele>
        <time>2011-03-19T15:28:57.000Z</time>
      </trkpt>
      <trkpt lat="45.421" lon="1.85053">
        <ele>636</ele>
        <time>2011-03-19T15:29:02.000Z</time>
      </trkpt>
      <trkpt lat="45.4208" lon="1.85086">
        <ele>631</ele>
        <time>2011-03-19T15:29:08.000Z</time>
      </trkpt>
      <trkpt lat="45.4206" lon="1.85111">
        <ele>625</ele>
        <time>2011-03-19T15:29:13.000Z</time>
      </trkpt>
      <trkpt lat="45.4205" lon="1.85131">
        <ele>623</ele>
        <time>2011-03-19T15:29:18.000Z</time>
      </trkpt>
      <trkpt lat="45.4205" lon="1.8516">
        <ele>622</ele>
        <time>2011-03-19T15:29:24.000Z</time>
      </trkpt>
      <trkpt lat="45.4204" lon="1.85181">
        <ele>621</ele>
        <time>2011-03-19T15:29:29.000Z</time>
      </trkpt>
      <trkpt lat="45.4203" lon="1.85193">
        <ele>625</ele>
        <time>2011-03-19T15:29:34.000Z</time>
      </trkpt>
      <trkpt lat="45.4201" lon="1.85204">
        <ele>626</ele>
        <time>2011-03-19T15:29:40.000Z</time>
      </trkpt>
      <trkpt lat="45.4201" lon="1.8521">
        <ele>628</ele>
        <time>2011-03-19T15:29:45.000Z</time>
      </trkpt>
      <trkpt lat="45.42" lon="1.8521">
        <ele>630</ele>
        <time>2011-03-19T15:29:50.000Z</time>
      </trkpt>
      <trkpt lat="45.4199" lon="1.85205">
        <ele>635</ele>
        <time>2011-03-19T15:29:56.000Z</time>
      </trkpt>
      <trkpt lat="45.4197" lon="1.85198">
        <ele>637</ele>
        <time>2011-03-19T15:30:01.000Z</time>
      </trkpt>
      <trkpt lat="45.4196" lon="1.85194">
        <ele>639</ele>
        <time>2011-03-19T15:30:06.000Z</time>
      </trkpt>
      <trkpt lat="45.4194" lon="1.85183">
        <ele>642</ele>
        <time>2011-03-19T15:30:12.000Z</time>
      </trkpt>
      <trkpt lat="45.4193" lon="1.85176">
        <ele>646</ele>
        <time>2011-03-19T15:30:17.000Z</time>
      </trkpt>
      <trkpt lat="45.4192" lon="1.85181">
        <ele>650</ele>
        <time>2011-03-19T15:30:22.000Z</time>
      </trkpt>
      <trkpt lat="45.4189" lon="1.85185">
        <ele>652</ele>
        <time>2011-03-19T15:30:28.000Z</time>
      </trkpt>
      <trkpt lat="45.4187" lon="1.8519">
        <ele>654</ele>
        <time>2011-03-19T15:30:33.000Z</time>
      </trkpt>
      <trkpt lat="45.4185" lon="1.85194">
        <ele>655</ele>
        <time>2011-03-19T15:30:38.000Z</time>
      </trkpt>
      <trkpt lat="45.4182" lon="1.85198">
        <ele>656</ele>
        <time>2011-03-19T15:30:44.000Z</time>
      </trkpt>
      <trkpt lat="45.418" lon="1.85207">
        <ele>655</ele>
        <time>2011-03-19T15:30:49.000Z</time>
      </trkpt>
      <trkpt lat="45.4178" lon="1.85211">
        <ele>656</ele>
        <time>2011-03-19T15:30:54.000Z</time>
      </trkpt>
      <trkpt lat="45.4176" lon="1.85217">
        <ele>657</ele>
        <time>2011-03-19T15:31:00.000Z</time>
      </trkpt>
      <trkpt lat="45.4174" lon="1.85219">
        <ele>656</ele>
        <time>2011-03-19T15:31:05.000Z</time>
      </trkpt>
      <trkpt lat="45.4172" lon="1.85219">
        <ele>655</ele>
        <time>2011-03-19T15:31:10.000Z</time>
      </trkpt>
      <trkpt lat="45.4169" lon="1.85223">
        <ele>654</ele>
        <time>2011-03-19T15:31:16.000Z</time>
      </trkpt>
      <trkpt lat="45.4168" lon="1.85227">
        <ele>653</ele>
        <time>2011-03-19T15:31:21.000Z</time>
      </trkpt>
      <trkpt lat="45.4166" lon="1.85231">
        <ele>651</ele>
        <time>2011-03-19T15:31:26.000Z</time>
      </trkpt>
      <trkpt lat="45.4164" lon="1.85234">
        <ele>650</ele>
        <time>2011-03-19T15:31:32.000Z</time>
      </trkpt>
      <trkpt lat="45.4162" lon="1.85238">
        <ele>653</ele>
        <time>2011-03-19T15:31:37.000Z</time>
      </trkpt>
      <trkpt lat="45.4161" lon="1.85241">
        <ele>655</ele>
        <time>2011-03-19T15:31:42.000Z</time>
      </trkpt>
      <trkpt lat="45.4158" lon="1.85246">
        <ele>654</ele>
        <time>2011-03-19T15:31:48.000Z</time>
      </trkpt>
      <trkpt lat="45.4156" lon="1.85251">
        <ele>656</ele>
        <time>2011-03-19T15:31:53.000Z</time>
      </trkpt>
      <trkpt lat="45.4153" lon="1.85261">
        <ele>656</ele>
        <time>2011-03-19T15:31:58.000Z</time>
      </trkpt>
      <trkpt lat="45.415" lon="1.85283">
        <ele>657</ele>
        <time>2011-03-19T15:32:04.000Z</time>
      </trkpt>
      <trkpt lat="45.4147" lon="1.85308">
        <ele>656</ele>
        <time>2011-03-19T15:32:09.000Z</time>
      </trkpt>
      <trkpt lat="45.4143" lon="1.85332">
        <ele>653</ele>
        <time>2011-03-19T15:32:14.000Z</time>
      </trkpt>
      <trkpt lat="45.414" lon="1.85359">
        <ele>652</ele>
        <time>2011-03-19T15:32:20.000Z</time>
      </trkpt>
      <trkpt lat="45.4136" lon="1.85389">
        <ele>651</ele>
        <time>2011-03-19T15:32:25.000Z</time>
      </trkpt>
      <trkpt lat="45.4134" lon="1.85415">
        <ele>647</ele>
        <time>2011-03-19T15:32:30.000Z</time>
      </trkpt>
      <trkpt lat="45.4132" lon="1.85457">
        <ele>643</ele>
        <time>2011-03-19T15:32:36.000Z</time>
      </trkpt>
      <trkpt lat="45.4131" lon="1.85505">
        <ele>640</ele>
        <time>2011-03-19T15:32:41.000Z</time>
      </trkpt>
      <trkpt lat="45.4131" lon="1.85546">
        <ele>639</ele>
        <time>2011-03-19T15:32:46.000Z</time>
      </trkpt>
      <trkpt lat="45.4129" lon="1.85587">
        <ele>638</ele>
        <time>2011-03-19T15:32:52.000Z</time>
      </trkpt>
      <trkpt lat="45.4127" lon="1.85614">
        <ele>638</ele>
        <time>2011-03-19T15:32:57.000Z</time>
      </trkpt>
      <trkpt lat="45.4126" lon="1.85637">
        <ele>639</ele>
        <time>2011-03-19T15:33:02.000Z</time>
      </trkpt>
      <trkpt lat="45.4123" lon="1.85656">
        <ele>640</ele>
        <time>2011-03-19T15:33:08.000Z</time>
      </trkpt>
      <trkpt lat="45.4121" lon="1.85673">
        <ele>643</ele>
        <time>2011-03-19T15:33:13.000Z</time>
      </trkpt>
      <trkpt lat="45.412" lon="1.8569">
        <ele>647</ele>
        <time>2011-03-19T15:33:18.000Z</time>
      </trkpt>
      <trkpt lat="45.4118" lon="1.85716">
        <ele>649</ele>
        <time>2011-03-19T15:33:24.000Z</time>
      </trkpt>
      <trkpt lat="45.4116" lon="1.85735">
        <ele>652</ele>
        <time>2011-03-19T15:33:29.000Z</time>
      </trkpt>
      <trkpt lat="45.4114" lon="1.85752">
        <ele>652</ele>
        <time>2011-03-19T15:33:34.000Z</time>
      </trkpt>
      <trkpt lat="45.4112" lon="1.85761">
        <ele>658</ele>
        <time>2011-03-19T15:33:40.000Z</time>
      </trkpt>
      <trkpt lat="45.4109" lon="1.85759">
        <ele>663</ele>
        <time>2011-03-19T15:33:45.000Z</time>
      </trkpt>
      <trkpt lat="45.4107" lon="1.85758">
        <ele>667</ele>
        <time>2011-03-19T15:33:50.000Z</time>
      </trkpt>
      <trkpt lat="45.4104" lon="1.85764">
        <ele>667</ele>
        <time>2011-03-19T15:33:56.000Z</time>
      </trkpt>
      <trkpt lat="45.41" lon="1.8577">
        <ele>665</ele>
        <time>2011-03-19T15:34:01.000Z</time>
      </trkpt>
      <trkpt lat="45.4097" lon="1.85771">
        <ele>663</ele>
        <time>2011-03-19T15:34:06.000Z</time>
      </trkpt>
      <trkpt lat="45.4093" lon="1.8577">
        <ele>661</ele>
        <time>2011-03-19T15:34:12.000Z</time>
      </trkpt>
      <trkpt lat="45.409" lon="1.85774">
        <ele>658</ele>
        <time>2011-03-19T15:34:17.000Z</time>
      </trkpt>
      <trkpt lat="45.4086" lon="1.85776">
        <ele>655</ele>
        <time>2011-03-19T15:34:22.000Z</time>
      </trkpt>
      <trkpt lat="45.4081" lon="1.85775">
        <ele>654</ele>
        <time>2011-03-19T15:34:28.000Z</time>
      </trkpt>
      <trkpt lat="45.4077" lon="1.85761">
        <ele>654</ele>
        <time>2011-03-19T15:34:33.000Z</time>
      </trkpt>
      <trkpt lat="45.4073" lon="1.85738">
        <ele>655</ele>
        <time>2011-03-19T15:34:38.000Z</time>
      </trkpt>
      <trkpt lat="45.4067" lon="1.85725">
        <ele>652</ele>
        <time>2011-03-19T15:34:44.000Z</time>
      </trkpt>
      <trkpt lat="45.4063" lon="1.85726">
        <ele>650</ele>
        <time>2011-03-19T15:34:49.000Z</time>
      </trkpt>
      <trkpt lat="45.406" lon="1.85731">
        <ele>647</ele>
        <time>2011-03-19T15:34:54.000Z</time>
      </trkpt>
      <trkpt lat="45.4056" lon="1.85734">
        <ele>646</ele>
        <time>2011-03-19T15:35:00.000Z</time>
      </trkpt>
      <trkpt lat="45.4053" lon="1.85737">
        <ele>646</ele>
        <time>2011-03-19T15:35:05.000Z</time>
      </trkpt>
      <trkpt lat="45.405" lon="1.85743">
        <ele>647</ele>
        <time>2011-03-19T15:35:10.000Z</time>
      </trkpt>
      <trkpt lat="45.4047" lon="1.8576">
        <ele>646</ele>
        <time>2011-03-19T15:35:16.000Z</time>
      </trkpt>
      <trkpt lat="45.4045" lon="1.85781">
        <ele>647</ele>
        <time>2011-03-19T15:35:21.000Z</time>
      </trkpt>
      <trkpt lat="45.4042" lon="1.85803">
        <ele>645</ele>
        <time>2011-03-19T15:35:26.000Z</time>
      </trkpt>
      <trkpt lat="45.4039" lon="1.85818">
        <ele>645</ele>
        <time>2011-03-19T15:35:32.000Z</time>
      </trkpt>
      <trkpt lat="45.4036" lon="1.85826">
        <ele>646</ele>
        <time>2011-03-19T15:35:37.000Z</time>
      </trkpt>
      <trkpt lat="45.4032" lon="1.85834">
        <ele>646</ele>
        <time>2011-03-19T15:35:42.000Z</time>
      </trkpt>
      <trkpt lat="45.4029" lon="1.85849">
        <ele>645</ele>
        <time>2011-03-19T15:35:48.000Z</time>
      </trkpt>
      <trkpt lat="45.4026" lon="1.85865">
        <ele>646</ele>
        <time>2011-03-19T15:35:53.000Z</time>
      </trkpt>
      <trkpt lat="45.4024" lon="1.85881">
        <ele>645</ele>
        <time>2011-03-19T15:35:58.000Z</time>
      </trkpt>
      <trkpt lat="45.4021" lon="1.85903">
        <ele>647</ele>
        <time>2011-03-19T15:36:04.000Z</time>
      </trkpt>
      <trkpt lat="45.4018" lon="1.85927">
        <ele>646</ele>
        <time>2011-03-19T15:36:09.000Z</time>
      </trkpt>
      <trkpt lat="45.4015" lon="1.85953">
        <ele>645</ele>
        <time>2011-03-19T15:36:14.000Z</time>
      </trkpt>
      <trkpt lat="45.4011" lon="1.85978">
        <ele>644</ele>
        <time>2011-03-19T15:36:20.000Z</time>
      </trkpt>
      <trkpt lat="45.4008" lon="1.85987">
        <ele>644</ele>
        <time>2011-03-19T15:36:25.000Z</time>
      </trkpt>
      <trkpt lat="45.4004" lon="1.85985">
        <ele>644</ele>
        <time>2011-03-19T15:36:30.000Z</time>
      </trkpt>
      <trkpt lat="45.3999" lon="1.85986">
        <ele>642</ele>
        <time>2011-03-19T15:36:36.000Z</time>
      </trkpt>
      <trkpt lat="45.3996" lon="1.85997">
        <ele>640</ele>
        <time>2011-03-19T15:36:41.000Z</time>
      </trkpt>
      <trkpt lat="45.3992" lon="1.86022">
        <ele>638</ele>
        <time>2011-03-19T15:36:46.000Z</time>
      </trkpt>
      <trkpt lat="45.3987" lon="1.86047">
        <ele>636</ele>
        <time>2011-03-19T15:36:52.000Z</time>
      </trkpt>
      <trkpt lat="45.3984" lon="1.86064">
        <ele>638</ele>
        <time>2011-03-19T15:36:57.000Z</time>
      </trkpt>
      <trkpt lat="45.398" lon="1.86078">
        <ele>639</ele>
        <time>2011-03-19T15:37:02.000Z</time>
      </trkpt>
      <trkpt lat="45.3977" lon="1.86089">
        <ele>640</ele>
        <time>2011-03-19T15:37:08.000Z</time>
      </trkpt>
      <trkpt lat="45.3975" lon="1.86103">
        <ele>640</ele>
        <time>2011-03-19T15:37:13.000Z</time>
      </trkpt>
      <trkpt lat="45.3972" lon="1.86117">
        <ele>641</ele>
        <time>2011-03-19T15:37:18.000Z</time>
      </trkpt>
      <trkpt lat="45.397" lon="1.86142">
        <ele>639</ele>
        <time>2011-03-19T15:37:24.000Z</time>
      </trkpt>
      <trkpt lat="45.3967" lon="1.86172">
        <ele>636</ele>
        <time>2011-03-19T15:37:29.000Z</time>
      </trkpt>
      <trkpt lat="45.3965" lon="1.86191">
        <ele>636</ele>
        <time>2011-03-19T15:37:34.000Z</time>
      </trkpt>
      <trkpt lat="45.3963" lon="1.86231">
        <ele>632</ele>
        <time>2011-03-19T15:37:40.000Z</time>
      </trkpt>
      <trkpt lat="45.3963" lon="1.86289">
        <ele>636</ele>
        <time>2011-03-19T15:37:45.000Z</time>
      </trkpt>
      <trkpt lat="45.3961" lon="1.86318">
        <ele>637</ele>
        <time>2011-03-19T15:37:50.000Z</time>
      </trkpt>
      <trkpt lat="45.3959" lon="1.86341">
        <ele>640</ele>
        <time>2011-03-19T15:37:56.000Z</time>
      </trkpt>
      <trkpt lat="45.3956" lon="1.86339">
        <ele>642</ele>
        <time>2011-03-19T15:38:01.000Z</time>
      </trkpt>
      <trkpt lat="45.3952" lon="1.86339">
        <ele>644</ele>
        <time>2011-03-19T15:38:06.000Z</time>
      </trkpt>
      <trkpt lat="45.3947" lon="1.86348">
        <ele>646</ele>
        <time>2011-03-19T15:38:12.000Z</time>
      </trkpt>
      <trkpt lat="45.3944" lon="1.86351">
        <ele>647</ele>
        <time>2011-03-19T15:38:17.000Z</time>
      </trkpt>
      <trkpt lat="45.3941" lon="1.86346">
        <ele>648</ele>
        <time>2011-03-19T15:38:22.000Z</time>
      </trkpt>
      <trkpt lat="45.3939" lon="1.8633">
        <ele>653</ele>
        <time>2011-03-19T15:38:28.000Z</time>
      </trkpt>
      <trkpt lat="45.3937" lon="1.86313">
        <ele>655</ele>
        <time>2011-03-19T15:38:33.000Z</time>
      </trkpt>
      <trkpt lat="45.3935" lon="1.86288">
        <ele>660</ele>
        <time>2011-03-19T15:38:38.000Z</time>
      </trkpt>
      <trkpt lat="45.3931" lon="1.86258">
        <ele>668</ele>
        <time>2011-03-19T15:38:44.000Z</time>
      </trkpt>
      <trkpt lat="45.3925" lon="1.86258">
        <ele>667</ele>
        <time>2011-03-19T15:38:49.000Z</time>
      </trkpt>
      <trkpt lat="45.3921" lon="1.86257">
        <ele>665</ele>
        <time>2011-03-19T15:38:54.000Z</time>
      </trkpt>
      <trkpt lat="45.3915" lon="1.8627">
        <ele>660</ele>
        <time>2011-03-19T15:39:00.000Z</time>
      </trkpt>
      <trkpt lat="45.3911" lon="1.86281">
        <ele>657</ele>
        <time>2011-03-19T15:39:05.000Z</time>
      </trkpt>
      <trkpt lat="45.3907" lon="1.86299">
        <ele>656</ele>
        <time>2011-03-19T15:39:10.000Z</time>
      </trkpt>
      <trkpt lat="45.3902" lon="1.86326">
        <ele>653</ele>
        <time>2011-03-19T15:39:16.000Z</time>
      </trkpt>
      <trkpt lat="45.3899" lon="1.86358">
        <ele>650</ele>
        <time>2011-03-19T15:39:21.000Z</time>
      </trkpt>
      <trkpt lat="45.3895" lon="1.86388">
        <ele>646</ele>
        <time>2011-03-19T15:39:26.000Z</time>
      </trkpt>
      <trkpt lat="45.389" lon="1.86416">
        <ele>640</ele>
        <time>2011-03-19T15:39:32.000Z</time>
      </trkpt>
      <trkpt lat="45.3887" lon="1.86435">
        <ele>639</ele>
        <time>2011-03-19T15:39:37.000Z</time>
      </trkpt>
      <trkpt lat="45.3883" lon="1.86445">
        <ele>639</ele>
        <time>2011-03-19T15:39:42.000Z</time>
      </trkpt>
      <trkpt lat="45.3878" lon="1.8648">
        <ele>639</ele>
        <time>2011-03-19T15:39:48.000Z</time>
      </trkpt>
      <trkpt lat="45.3874" lon="1.86507">
        <ele>642</ele>
        <time>2011-03-19T15:39:53.000Z</time>
      </trkpt>
      <trkpt lat="45.3872" lon="1.86551">
        <ele>638</ele>
        <time>2011-03-19T15:39:58.000Z</time>
      </trkpt>
      <trkpt lat="45.3869" lon="1.86606">
        <ele>635</ele>
        <time>2011-03-19T15:40:04.000Z</time>
      </trkpt>
      <trkpt lat="45.3866" lon="1.86645">
        <ele>631</ele>
        <time>2011-03-19T15:40:09.000Z</time>
      </trkpt>
      <trkpt lat="45.3863" lon="1.86674">
        <ele>628</ele>
        <time>2011-03-19T15:40:14.000Z</time>
      </trkpt>
      <trkpt lat="45.3858" lon="1.86705">
        <ele>628</ele>
        <time>2011-03-19T15:40:20.000Z</time>
      </trkpt>
      <trkpt lat="45.3854" lon="1.8671">
        <ele>628</ele>
        <time>2011-03-19T15:40:25.000Z</time>
      </trkpt>
      <trkpt lat="45.3852" lon="1.86681">
        <ele>633</ele>
        <time>2011-03-19T15:40:30.000Z</time>
      </trkpt>
      <trkpt lat="45.3848" lon="1.86631">
        <ele>635</ele>
        <time>2011-03-19T15:40:36.000Z</time>
      </trkpt>
      <trkpt lat="45.3847" lon="1.86585">
        <ele>637</ele>
        <time>2011-03-19T15:40:41.000Z</time>
      </trkpt>
      <trkpt lat="45.3845" lon="1.86541">
        <ele>640</ele>
        <time>2011-03-19T15:40:46.000Z</time>
      </trkpt>
      <trkpt lat="45.3841" lon="1.8649">
        <ele>642</ele>
        <time>2011-03-19T15:40:52.000Z</time>
      </trkpt>
      <trkpt lat="45.3836" lon="1.86458">
        <ele>641</ele>
        <time>2011-03-19T15:40:57.000Z</time>
      </trkpt>
      <trkpt lat="45.3832" lon="1.86436">
        <ele>642</ele>
        <time>2011-03-19T15:41:02.000Z</time>
      </trkpt>
      <trkpt lat="45.3826" lon="1.86439">
        <ele>637</ele>
        <time>2011-03-19T15:41:08.000Z</time>
      </trkpt>
      <trkpt lat="45.3821" lon="1.86458">
        <ele>631</ele>
        <time>2011-03-19T15:41:13.000Z</time>
      </trkpt>
      <trkpt lat="45.3817" lon="1.86469">
        <ele>627</ele>
        <time>2011-03-19T15:41:18.000Z</time>
      </trkpt>
      <trkpt lat="45.3813" lon="1.86474">
        <ele>627</ele>
        <time>2011-03-19T15:41:24.000Z</time>
      </trkpt>
      <trkpt lat="45.3809" lon="1.86475">
        <ele>626</ele>
        <time>2011-03-19T15:41:29.000Z</time>
      </trkpt>
      <trkpt lat="45.3805" lon="1.86476">
        <ele>626</ele>
        <time>2011-03-19T15:41:34.000Z</time>
      </trkpt>
      <trkpt lat="45.38" lon="1.86481">
        <ele>627</ele>
        <time>2011-03-19T15:41:40.000Z</time>
      </trkpt>
      <trkpt lat="45.3796" lon="1.86483">
        <ele>627</ele>
        <time>2011-03-19T15:41:45.000Z</time>
      </trkpt>
      <trkpt lat="45.3791" lon="1.86477">
        <ele>628</ele>
        <time>2011-03-19T15:41:50.000Z</time>
      </trkpt>
      <trkpt lat="45.3787" lon="1.86481">
        <ele>629</ele>
        <time>2011-03-19T15:41:56.000Z</time>
      </trkpt>
      <trkpt lat="45.3782" lon="1.86488">
        <ele>626</ele>
        <time>2011-03-19T15:42:01.000Z</time>
      </trkpt>
      <trkpt lat="45.3778" lon="1.86502">
        <ele>623</ele>
        <time>2011-03-19T15:42:06.000Z</time>
      </trkpt>
      <trkpt lat="45.3774" lon="1.86528">
        <ele>622</ele>
        <time>2011-03-19T15:42:12.000Z</time>
      </trkpt>
      <trkpt lat="45.377" lon="1.86545">
        <ele>620</ele>
        <time>2011-03-19T15:42:17.000Z</time>
      </trkpt>
      <trkpt lat="45.3766" lon="1.86564">
        <ele>619</ele>
        <time>2011-03-19T15:42:22.000Z</time>
      </trkpt>
      <trkpt lat="45.3762" lon="1.86596">
        <ele>614</ele>
        <time>2011-03-19T15:42:28.000Z</time>
      </trkpt>
      <trkpt lat="45.376" lon="1.86652">
        <ele>608</ele>
        <time>2011-03-19T15:42:33.000Z</time>
      </trkpt>
      <trkpt lat="45.376" lon="1.86712">
        <ele>602</ele>
        <time>2011-03-19T15:42:38.000Z</time>
      </trkpt>
      <trkpt lat="45.3759" lon="1.86786">
        <ele>600</ele>
        <time>2011-03-19T15:42:44.000Z</time>
      </trkpt>
      <trkpt lat="45.3759" lon="1.86853">
        <ele>597</ele>
        <time>2011-03-19T15:42:49.000Z</time>
      </trkpt>
      <trkpt lat="45.376" lon="1.86917">
        <ele>594</ele>
        <time>2011-03-19T15:42:54.000Z</time>
      </trkpt>
      <trkpt lat="45.3762" lon="1.86999">
        <ele>590</ele>
        <time>2011-03-19T15:43:00.000Z</time>
      </trkpt>
      <trkpt lat="45.3764" lon="1.87078">
        <ele>586</ele>
        <time>2011-03-19T15:43:05.000Z</time>
      </trkpt>
      <trkpt lat="45.3765" lon="1.87155">
        <ele>581</ele>
        <time>2011-03-19T15:43:10.000Z</time>
      </trkpt>
      <trkpt lat="45.3761" lon="1.8724">
        <ele>576</ele>
        <time>2011-03-19T15:43:16.000Z</time>
      </trkpt>
      <trkpt lat="45.3758" lon="1.87306">
        <ele>573</ele>
        <time>2011-03-19T15:43:21.000Z</time>
      </trkpt>
      <trkpt lat="45.3753" lon="1.87329">
        <ele>572</ele>
        <time>2011-03-19T15:43:26.000Z</time>
      </trkpt>
      <trkpt lat="45.3747" lon="1.87308">
        <ele>571</ele>
        <time>2011-03-19T15:43:32.000Z</time>
      </trkpt>
      <trkpt lat="45.3741" lon="1.87301">
        <ele>562</ele>
        <time>2011-03-19T15:43:37.000Z</time>
      </trkpt>
      <trkpt lat="45.3739" lon="1.87372">
        <ele>555</ele>
        <time>2011-03-19T15:43:42.000Z</time>
      </trkpt>
      <trkpt lat="45.3735" lon="1.87415">
        <ele>554</ele>
        <time>2011-03-19T15:43:47.000Z</time>
      </trkpt>
      <trkpt lat="45.373" lon="1.87432">
        <ele>554</ele>
        <time>2011-03-19T15:43:52.000Z</time>
      </trkpt>
      <trkpt lat="45.3726" lon="1.87452">
        <ele>552</ele>
        <time>2011-03-19T15:43:57.000Z</time>
      </trkpt>
      <trkpt lat="45.3721" lon="1.8746">
        <ele>548</ele>
        <time>2011-03-19T15:44:03.000Z</time>
      </trkpt>
      <trkpt lat="45.3718" lon="1.87441">
        <ele>551</ele>
        <time>2011-03-19T15:44:08.000Z</time>
      </trkpt>
      <trkpt lat="45.3714" lon="1.87418">
        <ele>552</ele>
        <time>2011-03-19T15:44:13.000Z</time>
      </trkpt>
      <trkpt lat="45.3708" lon="1.87398">
        <ele>552</ele>
        <time>2011-03-19T15:44:19.000Z</time>
      </trkpt>
      <trkpt lat="45.3705" lon="1.87386">
        <ele>551</ele>
        <time>2011-03-19T15:44:24.000Z</time>
      </trkpt>
      <trkpt lat="45.3702" lon="1.87379">
        <ele>550</ele>
        <time>2011-03-19T15:44:29.000Z</time>
      </trkpt>
      <trkpt lat="45.3699" lon="1.87349">
        <ele>550</ele>
        <time>2011-03-19T15:44:35.000Z</time>
      </trkpt>
      <trkpt lat="45.3698" lon="1.87324">
        <ele>551</ele>
        <time>2011-03-19T15:44:40.000Z</time>
      </trkpt>
      <trkpt lat="45.3698" lon="1.87315">
        <ele>547</ele>
        <time>2011-03-19T15:44:45.000Z</time>
      </trkpt>
      <trkpt lat="45.3698" lon="1.87316">
        <ele>546</ele>
        <time>2011-03-19T15:44:51.000Z</time>
      </trkpt>
      <trkpt lat="45.3698" lon="1.87315">
        <ele>545</ele>
        <time>2011-03-19T15:44:56.000Z</time>
      </trkpt>
      <trkpt lat="45.3698" lon="1.87315">
        <ele>545</ele>
        <time>2011-03-19T15:45:01.000Z</time>
      </trkpt>
      <trkpt lat="45.3698" lon="1.87305">
        <ele>545</ele>
        <time>2011-03-19T15:45:07.000Z</time>
      </trkpt>
      <trkpt lat="45.3695" lon="1.87297">
        <ele>544</ele>
        <time>2011-03-19T15:45:12.000Z</time>
      </trkpt>
      <trkpt lat="45.3693" lon="1.87271">
        <ele>543</ele>
        <time>2011-03-19T15:45:17.000Z</time>
      </trkpt>
      <trkpt lat="45.3689" lon="1.8725">
        <ele>544</ele>
        <time>2011-03-19T15:45:23.000Z</time>
      </trkpt>
      <trkpt lat="45.3685" lon="1.87257">
        <ele>543</ele>
        <time>2011-03-19T15:45:28.000Z</time>
      </trkpt>
      <trkpt lat="45.368" lon="1.87268">
        <ele>544</ele>
        <time>2011-03-19T15:45:33.000Z</time>
      </trkpt>
      <trkpt lat="45.3676" lon="1.87276">
        <ele>544</ele>
        <time>2011-03-19T15:45:39.000Z</time>
      </trkpt>
      <trkpt lat="45.3671" lon="1.87271">
        <ele>543</ele>
        <time>2011-03-19T15:45:44.000Z</time>
      </trkpt>
      <trkpt lat="45.3667" lon="1.87286">
        <ele>532</ele>
        <time>2011-03-19T15:45:49.000Z</time>
      </trkpt>
      <trkpt lat="45.3663" lon="1.87347">
        <ele>527</ele>
        <time>2011-03-19T15:45:55.000Z</time>
      </trkpt>
      <trkpt lat="45.3659" lon="1.87391">
        <ele>520</ele>
        <time>2011-03-19T15:46:00.000Z</time>
      </trkpt>
      <trkpt lat="45.3655" lon="1.87434">
        <ele>515</ele>
        <time>2011-03-19T15:46:05.000Z</time>
      </trkpt>
      <trkpt lat="45.365" lon="1.87477">
        <ele>512</ele>
        <time>2011-03-19T15:46:11.000Z</time>
      </trkpt>
      <trkpt lat="45.3646" lon="1.87503">
        <ele>511</ele>
        <time>2011-03-19T15:46:16.000Z</time>
      </trkpt>
      <trkpt lat="45.3643" lon="1.87532">
        <ele>504</ele>
        <time>2011-03-19T15:46:21.000Z</time>
      </trkpt>
      <trkpt lat="45.3642" lon="1.87595">
        <ele>500</ele>
        <time>2011-03-19T15:46:27.000Z</time>
      </trkpt>
      <trkpt lat="45.3642" lon="1.87651">
        <ele>498</ele>
        <time>2011-03-19T15:46:32.000Z</time>
      </trkpt>
      <trkpt lat="45.3644" lon="1.87704">
        <ele>496</ele>
        <time>2011-03-19T15:46:37.000Z</time>
      </trkpt>
      <trkpt lat="45.3642" lon="1.87743">
        <ele>494</ele>
        <time>2011-03-19T15:46:43.000Z</time>
      </trkpt>
      <trkpt lat="45.3639" lon="1.87743">
        <ele>495</ele>
        <time>2011-03-19T15:46:48.000Z</time>
      </trkpt>
      <trkpt lat="45.3635" lon="1.87736">
        <ele>497</ele>
        <time>2011-03-19T15:46:53.000Z</time>
      </trkpt>
      <trkpt lat="45.3632" lon="1.87721">
        <ele>500</ele>
        <time>2011-03-19T15:46:59.000Z</time>
      </trkpt>
      <trkpt lat="45.3629" lon="1.87702">
        <ele>503</ele>
        <time>2011-03-19T15:47:04.000Z</time>
      </trkpt>
      <trkpt lat="45.3627" lon="1.8768">
        <ele>506</ele>
        <time>2011-03-19T15:47:09.000Z</time>
      </trkpt>
      <trkpt lat="45.3624" lon="1.87651">
        <ele>507</ele>
        <time>2011-03-19T15:47:15.000Z</time>
      </trkpt>
      <trkpt lat="45.3622" lon="1.87611">
        <ele>509</ele>
        <time>2011-03-19T15:47:20.000Z</time>
      </trkpt>
      <trkpt lat="45.3622" lon="1.87564">
        <ele>510</ele>
        <time>2011-03-19T15:47:25.000Z</time>
      </trkpt>
      <trkpt lat="45.3621" lon="1.87513">
        <ele>511</ele>
        <time>2011-03-19T15:47:31.000Z</time>
      </trkpt>
      <trkpt lat="45.3621" lon="1.8747">
        <ele>513</ele>
        <time>2011-03-19T15:47:36.000Z</time>
      </trkpt>
      <trkpt lat="45.3619" lon="1.87434">
        <ele>513</ele>
        <time>2011-03-19T15:47:41.000Z</time>
      </trkpt>
      <trkpt lat="45.3616" lon="1.87409">
        <ele>516</ele>
        <time>2011-03-19T15:47:47.000Z</time>
      </trkpt>
      <trkpt lat="45.3613" lon="1.87404">
        <ele>520</ele>
        <time>2011-03-19T15:47:52.000Z</time>
      </trkpt>
      <trkpt lat="45.361" lon="1.87403">
        <ele>524</ele>
        <time>2011-03-19T15:47:57.000Z</time>
      </trkpt>
      <trkpt lat="45.3606" lon="1.87382">
        <ele>523</ele>
        <time>2011-03-19T15:48:03.000Z</time>
      </trkpt>
      <trkpt lat="45.3603" lon="1.87348">
        <ele>519</ele>
        <time>2011-03-19T15:48:08.000Z</time>
      </trkpt>
      <trkpt lat="45.3602" lon="1.87308">
        <ele>519</ele>
        <time>2011-03-19T15:48:13.000Z</time>
      </trkpt>
      <trkpt lat="45.3601" lon="1.87258">
        <ele>519</ele>
        <time>2011-03-19T15:48:19.000Z</time>
      </trkpt>
      <trkpt lat="45.36" lon="1.87229">
        <ele>520</ele>
        <time>2011-03-19T15:48:24.000Z</time>
      </trkpt>
      <trkpt lat="45.3599" lon="1.87215">
        <ele>525</ele>
        <time>2011-03-19T15:48:29.000Z</time>
      </trkpt>
      <trkpt lat="45.3597" lon="1.87198">
        <ele>529</ele>
        <time>2011-03-19T15:48:35.000Z</time>
      </trkpt>
      <trkpt lat="45.3596" lon="1.87198">
        <ele>533</ele>
        <time>2011-03-19T15:48:40.000Z</time>
      </trkpt>
      <trkpt lat="45.3593" lon="1.87208">
        <ele>535</ele>
        <time>2011-03-19T15:48:45.000Z</time>
      </trkpt>
      <trkpt lat="45.3589" lon="1.87222">
        <ele>530</ele>
        <time>2011-03-19T15:48:51.000Z</time>
      </trkpt>
      <trkpt lat="45.3586" lon="1.87236">
        <ele>524</ele>
        <time>2011-03-19T15:48:56.000Z</time>
      </trkpt>
      <trkpt lat="45.3584" lon="1.87241">
        <ele>521</ele>
        <time>2011-03-19T15:49:01.000Z</time>
      </trkpt>
      <trkpt lat="45.3582" lon="1.87249">
        <ele>521</ele>
        <time>2011-03-19T15:49:07.000Z</time>
      </trkpt>
      <trkpt lat="45.3581" lon="1.87261">
        <ele>519</ele>
        <time>2011-03-19T15:49:12.000Z</time>
      </trkpt>
      <trkpt lat="45.3579" lon="1.87273">
        <ele>516</ele>
        <time>2011-03-19T15:49:17.000Z</time>
      </trkpt>
      <trkpt lat="45.3577" lon="1.87286">
        <ele>515</ele>
        <time>2011-03-19T15:49:23.000Z</time>
      </trkpt>
      <trkpt lat="45.3576" lon="1.87297">
        <ele>513</ele>
        <time>2011-03-19T15:49:28.000Z</time>
      </trkpt>
      <trkpt lat="45.3575" lon="1.87314">
        <ele>513</ele>
        <time>2011-03-19T15:49:33.000Z</time>
      </trkpt>
      <trkpt lat="45.3573" lon="1.8732">
        <ele>513</ele>
        <time>2011-03-19T15:49:39.000Z</time>
      </trkpt>
      <trkpt lat="45.3572" lon="1.8734">
        <ele>513</ele>
        <time>2011-03-19T15:49:44.000Z</time>
      </trkpt>
      <trkpt lat="45.3571" lon="1.87349">
        <ele>516</ele>
        <time>2011-03-19T15:49:49.000Z</time>
      </trkpt>
      <trkpt lat="45.357" lon="1.87364">
        <ele>521</ele>
        <time>2011-03-19T15:49:55.000Z</time>
      </trkpt>
      <trkpt lat="45.3569" lon="1.87374">
        <ele>522</ele>
        <time>2011-03-19T15:50:00.000Z</time>
      </trkpt>
      <trkpt lat="45.3568" lon="1.87384">
        <ele>525</ele>
        <time>2011-03-19T15:50:05.000Z</time>
      </trkpt>
      <trkpt lat="45.3566" lon="1.87397">
        <ele>527</ele>
        <time>2011-03-19T15:50:11.000Z</time>
      </trkpt>
      <trkpt lat="45.3565" lon="1.8741">
        <ele>530</ele>
        <time>2011-03-19T15:50:16.000Z</time>
      </trkpt>
      <trkpt lat="45.3564" lon="1.87423">
        <ele>532</ele>
        <time>2011-03-19T15:50:21.000Z</time>
      </trkpt>
      <trkpt lat="45.3563" lon="1.87441">
        <ele>536</ele>
        <time>2011-03-19T15:50:27.000Z</time>
      </trkpt>
      <trkpt lat="45.3562" lon="1.87455">
        <ele>538</ele>
        <time>2011-03-19T15:50:32.000Z</time>
      </trkpt>
      <trkpt lat="45.356" lon="1.87468">
        <ele>537</ele>
        <time>2011-03-19T15:50:37.000Z</time>
      </trkpt>
      <trkpt lat="45.3559" lon="1.87489">
        <ele>536</ele>
        <time>2011-03-19T15:50:43.000Z</time>
      </trkpt>
      <trkpt lat="45.3559" lon="1.87503">
        <ele>537</ele>
        <time>2011-03-19T15:50:48.000Z</time>
      </trkpt>
      <trkpt lat="45.3558" lon="1.87518">
        <ele>542</ele>
        <time>2011-03-19T15:50:53.000Z</time>
      </trkpt>
      <trkpt lat="45.3558" lon="1.87541">
        <ele>545</ele>
        <time>2011-03-19T15:50:59.000Z</time>
      </trkpt>
      <trkpt lat="45.3557" lon="1.87565">
        <ele>542</ele>
        <time>2011-03-19T15:51:04.000Z</time>
      </trkpt>
      <trkpt lat="45.3556" lon="1.87581">
        <ele>539</ele>
        <time>2011-03-19T15:51:09.000Z</time>
      </trkpt>
      <trkpt lat="45.3555" lon="1.876">
        <ele>539</ele>
        <time>2011-03-19T15:51:15.000Z</time>
      </trkpt>
      <trkpt lat="45.3554" lon="1.87607">
        <ele>541</ele>
        <time>2011-03-19T15:51:20.000Z</time>
      </trkpt>
      <trkpt lat="45.3554" lon="1.87615">
        <ele>543</ele>
        <time>2011-03-19T15:51:25.000Z</time>
      </trkpt>
      <trkpt lat="45.3553" lon="1.87609">
        <ele>545</ele>
        <time>2011-03-19T15:51:31.000Z</time>
      </trkpt>
      <trkpt lat="45.3552" lon="1.87604">
        <ele>546</ele>
        <time>2011-03-19T15:51:36.000Z</time>
      </trkpt>
      <trkpt lat="45.3551" lon="1.87596">
        <ele>548</ele>
        <time>2011-03-19T15:51:41.000Z</time>
      </trkpt>
      <trkpt lat="45.3549" lon="1.87586">
        <ele>552</ele>
        <time>2011-03-19T15:51:47.000Z</time>
      </trkpt>
      <trkpt lat="45.3548" lon="1.87574">
        <ele>553</ele>
        <time>2011-03-19T15:51:52.000Z</time>
      </trkpt>
      <trkpt lat="45.3547" lon="1.87566">
        <ele>559</ele>
        <time>2011-03-19T15:51:57.000Z</time>
      </trkpt>
      <trkpt lat="45.3546" lon="1.87552">
        <ele>563</ele>
        <time>2011-03-19T15:52:03.000Z</time>
      </trkpt>
      <trkpt lat="45.3545" lon="1.87542">
        <ele>564</ele>
        <time>2011-03-19T15:52:08.000Z</time>
      </trkpt>
      <trkpt lat="45.3543" lon="1.87534">
        <ele>566</ele>
        <time>2011-03-19T15:52:13.000Z</time>
      </trkpt>
      <trkpt lat="45.3542" lon="1.87522">
        <ele>568</ele>
        <time>2011-03-19T15:52:19.000Z</time>
      </trkpt>
      <trkpt lat="45.354" lon="1.87521">
        <ele>568</ele>
        <time>2011-03-19T15:52:24.000Z</time>
      </trkpt>
      <trkpt lat="45.3539" lon="1.8752">
        <ele>568</ele>
        <time>2011-03-19T15:52:29.000Z</time>
      </trkpt>
      <trkpt lat="45.3537" lon="1.87528">
        <ele>570</ele>
        <time>2011-03-19T15:52:35.000Z</time>
      </trkpt>
      <trkpt lat="45.3536" lon="1.87533">
        <ele>569</ele>
        <time>2011-03-19T15:52:40.000Z</time>
      </trkpt>
      <trkpt lat="45.3534" lon="1.87539">
        <ele>568</ele>
        <time>2011-03-19T15:52:45.000Z</time>
      </trkpt>
      <trkpt lat="45.3532" lon="1.8755">
        <ele>567</ele>
        <time>2011-03-19T15:52:51.000Z</time>
      </trkpt>
      <trkpt lat="45.3531" lon="1.87564">
        <ele>565</ele>
        <time>2011-03-19T15:52:56.000Z</time>
      </trkpt>
      <trkpt lat="45.353" lon="1.87578">
        <ele>565</ele>
        <time>2011-03-19T15:53:01.000Z</time>
      </trkpt>
      <trkpt lat="45.3528" lon="1.87602">
        <ele>561</ele>
        <time>2011-03-19T15:53:07.000Z</time>
      </trkpt>
      <trkpt lat="45.3528" lon="1.87623">
        <ele>561</ele>
        <time>2011-03-19T15:53:12.000Z</time>
      </trkpt>
      <trkpt lat="45.3527" lon="1.87642">
        <ele>561</ele>
        <time>2011-03-19T15:53:17.000Z</time>
      </trkpt>
      <trkpt lat="45.3526" lon="1.87657">
        <ele>561</ele>
        <time>2011-03-19T15:53:23.000Z</time>
      </trkpt>
      <trkpt lat="45.3526" lon="1.87672">
        <ele>565</ele>
        <time>2011-03-19T15:53:28.000Z</time>
      </trkpt>
      <trkpt lat="45.3526" lon="1.87679">
        <ele>569</ele>
        <time>2011-03-19T15:53:33.000Z</time>
      </trkpt>
      <trkpt lat="45.3525" lon="1.87678">
        <ele>572</ele>
        <time>2011-03-19T15:53:39.000Z</time>
      </trkpt>
      <trkpt lat="45.3524" lon="1.87665">
        <ele>574</ele>
        <time>2011-03-19T15:53:44.000Z</time>
      </trkpt>
      <trkpt lat="45.3523" lon="1.87659">
        <ele>576</ele>
        <time>2011-03-19T15:53:49.000Z</time>
      </trkpt>
      <trkpt lat="45.3522" lon="1.8764">
        <ele>576</ele>
        <time>2011-03-19T15:53:55.000Z</time>
      </trkpt>
      <trkpt lat="45.3521" lon="1.87627">
        <ele>575</ele>
        <time>2011-03-19T15:54:00.000Z</time>
      </trkpt>
      <trkpt lat="45.352" lon="1.87611">
        <ele>574</ele>
        <time>2011-03-19T15:54:05.000Z</time>
      </trkpt>
      <trkpt lat="45.3518" lon="1.87592">
        <ele>573</ele>
        <time>2011-03-19T15:54:11.000Z</time>
      </trkpt>
      <trkpt lat="45.3517" lon="1.87577">
        <ele>572</ele>
        <time>2011-03-19T15:54:16.000Z</time>
      </trkpt>
      <trkpt lat="45.3515" lon="1.87572">
        <ele>572</ele>
        <time>2011-03-19T15:54:21.000Z</time>
      </trkpt>
      <trkpt lat="45.3514" lon="1.87561">
        <ele>572</ele>
        <time>2011-03-19T15:54:27.000Z</time>
      </trkpt>
      <trkpt lat="45.3513" lon="1.87551">
        <ele>572</ele>
        <time>2011-03-19T15:54:32.000Z</time>
      </trkpt>
      <trkpt lat="45.3512" lon="1.87545">
        <ele>573</ele>
        <time>2011-03-19T15:54:37.000Z</time>
      </trkpt>
      <trkpt lat="45.351" lon="1.87535">
        <ele>573</ele>
        <time>2011-03-19T15:54:43.000Z</time>
      </trkpt>
      <trkpt lat="45.3509" lon="1.87528">
        <ele>575</ele>
        <time>2011-03-19T15:54:48.000Z</time>
      </trkpt>
      <trkpt lat="45.3508" lon="1.87523">
        <ele>576</ele>
        <time>2011-03-19T15:54:53.000Z</time>
      </trkpt>
      <trkpt lat="45.3507" lon="1.87514">
        <ele>576</ele>
        <time>2011-03-19T15:54:59.000Z</time>
      </trkpt>
      <trkpt lat="45.3506" lon="1.87514">
        <ele>576</ele>
        <time>2011-03-19T15:55:04.000Z</time>
      </trkpt>
      <trkpt lat="45.3503" lon="1.8752">
        <ele>577</ele>
        <time>2011-03-19T15:55:09.000Z</time>
      </trkpt>
      <trkpt lat="45.3501" lon="1.8753">
        <ele>576</ele>
        <time>2011-03-19T15:55:15.000Z</time>
      </trkpt>
      <trkpt lat="45.3499" lon="1.87539">
        <ele>576</ele>
        <time>2011-03-19T15:55:20.000Z</time>
      </trkpt>
      <trkpt lat="45.3498" lon="1.8754">
        <ele>579</ele>
        <time>2011-03-19T15:55:25.000Z</time>
      </trkpt>
      <trkpt lat="45.3497" lon="1.87529">
        <ele>582</ele>
        <time>2011-03-19T15:55:31.000Z</time>
      </trkpt>
      <trkpt lat="45.3496" lon="1.87527">
        <ele>587</ele>
        <time>2011-03-19T15:55:36.000Z</time>
      </trkpt>
      <trkpt lat="45.3495" lon="1.87532">
        <ele>597</ele>
        <time>2011-03-19T15:55:41.000Z</time>
      </trkpt>
      <trkpt lat="45.3493" lon="1.87539">
        <ele>605</ele>
        <time>2011-03-19T15:55:47.000Z</time>
      </trkpt>
      <trkpt lat="45.3491" lon="1.87549">
        <ele>608</ele>
        <time>2011-03-19T15:55:52.000Z</time>
      </trkpt>
      <trkpt lat="45.349" lon="1.87551">
        <ele>611</ele>
        <time>2011-03-19T15:55:57.000Z</time>
      </trkpt>
      <trkpt lat="45.3489" lon="1.87554">
        <ele>617</ele>
        <time>2011-03-19T15:56:03.000Z</time>
      </trkpt>
      <trkpt lat="45.3487" lon="1.87553">
        <ele>618</ele>
        <time>2011-03-19T15:56:08.000Z</time>
      </trkpt>
      <trkpt lat="45.3484" lon="1.87555">
        <ele>615</ele>
        <time>2011-03-19T15:56:13.000Z</time>
      </trkpt>
      <trkpt lat="45.3483" lon="1.87557">
        <ele>615</ele>
        <time>2011-03-19T15:56:18.000Z</time>
      </trkpt>
      <trkpt lat="45.3482" lon="1.87561">
        <ele>615</ele>
        <time>2011-03-19T15:56:23.000Z</time>
      </trkpt>
      <trkpt lat="45.348" lon="1.87562">
        <ele>616</ele>
        <time>2011-03-19T15:56:29.000Z</time>
      </trkpt>
      <trkpt lat="45.3479" lon="1.87565">
        <ele>616</ele>
        <time>2011-03-19T15:56:34.000Z</time>
      </trkpt>
      <trkpt lat="45.3477" lon="1.87564">
        <ele>616</ele>
        <time>2011-03-19T15:56:39.000Z</time>
      </trkpt>
      <trkpt lat="45.3474" lon="1.87562">
        <ele>615</ele>
        <time>2011-03-19T15:56:45.000Z</time>
      </trkpt>
      <trkpt lat="45.3472" lon="1.87562">
        <ele>616</ele>
        <time>2011-03-19T15:56:50.000Z</time>
      </trkpt>
      <trkpt lat="45.3471" lon="1.87563">
        <ele>615</ele>
        <time>2011-03-19T15:56:55.000Z</time>
      </trkpt>
      <trkpt lat="45.3469" lon="1.87559">
        <ele>616</ele>
        <time>2011-03-19T15:57:01.000Z</time>
      </trkpt>
      <trkpt lat="45.3468" lon="1.87562">
        <ele>617</ele>
        <time>2011-03-19T15:57:06.000Z</time>
      </trkpt>
      <trkpt lat="45.3467" lon="1.87559">
        <ele>617</ele>
        <time>2011-03-19T15:57:11.000Z</time>
      </trkpt>
      <trkpt lat="45.3465" lon="1.87555">
        <ele>620</ele>
        <time>2011-03-19T15:57:17.000Z</time>
      </trkpt>
      <trkpt lat="45.3463" lon="1.87549">
        <ele>621</ele>
        <time>2011-03-19T15:57:22.000Z</time>
      </trkpt>
      <trkpt lat="45.3462" lon="1.87541">
        <ele>623</ele>
        <time>2011-03-19T15:57:27.000Z</time>
      </trkpt>
      <trkpt lat="45.346" lon="1.8753">
        <ele>626</ele>
        <time>2011-03-19T15:57:33.000Z</time>
      </trkpt>
      <trkpt lat="45.3458" lon="1.87521">
        <ele>626</ele>
        <time>2011-03-19T15:57:38.000Z</time>
      </trkpt>
      <trkpt lat="45.3456" lon="1.87514">
        <ele>628</ele>
        <time>2011-03-19T15:57:43.000Z</time>
      </trkpt>
      <trkpt lat="45.3455" lon="1.87508">
        <ele>626</ele>
        <time>2011-03-19T15:57:48.000Z</time>
      </trkpt>
      <trkpt lat="45.3454" lon="1.87495">
        <ele>628</ele>
        <time>2011-03-19T15:57:53.000Z</time>
      </trkpt>
      <trkpt lat="45.3451" lon="1.87485">
        <ele>629</ele>
        <time>2011-03-19T15:57:58.000Z</time>
      </trkpt>
      <trkpt lat="45.3449" lon="1.8748">
        <ele>626</ele>
        <time>2011-03-19T15:58:04.000Z</time>
      </trkpt>
      <trkpt lat="45.3446" lon="1.8747">
        <ele>621</ele>
        <time>2011-03-19T15:58:09.000Z</time>
      </trkpt>
      <trkpt lat="45.3444" lon="1.8746">
        <ele>617</ele>
        <time>2011-03-19T15:58:14.000Z</time>
      </trkpt>
      <trkpt lat="45.3442" lon="1.87451">
        <ele>615</ele>
        <time>2011-03-19T15:58:20.000Z</time>
      </trkpt>
      <trkpt lat="45.3439" lon="1.87452">
        <ele>617</ele>
        <time>2011-03-19T15:58:25.000Z</time>
      </trkpt>
      <trkpt lat="45.3438" lon="1.87449">
        <ele>620</ele>
        <time>2011-03-19T15:58:30.000Z</time>
      </trkpt>
      <trkpt lat="45.3435" lon="1.87445">
        <ele>625</ele>
        <time>2011-03-19T15:58:36.000Z</time>
      </trkpt>
      <trkpt lat="45.3433" lon="1.87442">
        <ele>628</ele>
        <time>2011-03-19T15:58:41.000Z</time>
      </trkpt>
      <trkpt lat="45.3431" lon="1.87437">
        <ele>628</ele>
        <time>2011-03-19T15:58:46.000Z</time>
      </trkpt>
      <trkpt lat="45.3427" lon="1.87427">
        <ele>628</ele>
        <time>2011-03-19T15:58:52.000Z</time>
      </trkpt>
      <trkpt lat="45.3424" lon="1.87427">
        <ele>624</ele>
        <time>2011-03-19T15:58:57.000Z</time>
      </trkpt>
      <trkpt lat="45.342" lon="1.87427">
        <ele>619</ele>
        <time>2011-03-19T15:59:02.000Z</time>
      </trkpt>
      <trkpt lat="45.3416" lon="1.87431">
        <ele>615</ele>
        <time>2011-03-19T15:59:08.000Z</time>
      </trkpt>
      <trkpt lat="45.3413" lon="1.8744">
        <ele>613</ele>
        <time>2011-03-19T15:59:13.000Z</time>
      </trkpt>
      <trkpt lat="45.3409" lon="1.87446">
        <ele>612</ele>
        <time>2011-03-19T15:59:18.000Z</time>
      </trkpt>
      <trkpt lat="45.3405" lon="1.87455">
        <ele>610</ele>
        <time>2011-03-19T15:59:24.000Z</time>
      </trkpt>
      <trkpt lat="45.3402" lon="1.87467">
        <ele>606</ele>
        <time>2011-03-19T15:59:29.000Z</time>
      </trkpt>
      <trkpt lat="45.3399" lon="1.87486">
        <ele>604</ele>
        <time>2011-03-19T15:59:34.000Z</time>
      </trkpt>
      <trkpt lat="45.3395" lon="1.87503">
        <ele>602</ele>
        <time>2011-03-19T15:59:40.000Z</time>
      </trkpt>
      <trkpt lat="45.3392" lon="1.8752">
        <ele>601</ele>
        <time>2011-03-19T15:59:45.000Z</time>
      </trkpt>
      <trkpt lat="45.3389" lon="1.87542">
        <ele>601</ele>
        <time>2011-03-19T15:59:50.000Z</time>
      </trkpt>
      <trkpt lat="45.3385" lon="1.87562">
        <ele>601</ele>
        <time>2011-03-19T15:59:56.000Z</time>
      </trkpt>
      <trkpt lat="45.3382" lon="1.87578">
        <ele>599</ele>
        <time>2011-03-19T16:00:01.000Z</time>
      </trkpt>
      <trkpt lat="45.3379" lon="1.87594">
        <ele>598</ele>
        <time>2011-03-19T16:00:06.000Z</time>
      </trkpt>
      <trkpt lat="45.3375" lon="1.87612">
        <ele>596</ele>
        <time>2011-03-19T16:00:12.000Z</time>
      </trkpt>
      <trkpt lat="45.3373" lon="1.87632">
        <ele>596</ele>
        <time>2011-03-19T16:00:17.000Z</time>
      </trkpt>
      <trkpt lat="45.3369" lon="1.87651">
        <ele>593</ele>
        <time>2011-03-19T16:00:22.000Z</time>
      </trkpt>
      <trkpt lat="45.3365" lon="1.87668">
        <ele>592</ele>
        <time>2011-03-19T16:00:28.000Z</time>
      </trkpt>
      <trkpt lat="45.3362" lon="1.87685">
        <ele>591</ele>
        <time>2011-03-19T16:00:33.000Z</time>
      </trkpt>
      <trkpt lat="45.3359" lon="1.87699">
        <ele>591</ele>
        <time>2011-03-19T16:00:38.000Z</time>
      </trkpt>
      <trkpt lat="45.3356" lon="1.87721">
        <ele>591</ele>
        <time>2011-03-19T16:00:44.000Z</time>
      </trkpt>
      <trkpt lat="45.3353" lon="1.8774">
        <ele>590</ele>
        <time>2011-03-19T16:00:49.000Z</time>
      </trkpt>
      <trkpt lat="45.3351" lon="1.87755">
        <ele>590</ele>
        <time>2011-03-19T16:00:54.000Z</time>
      </trkpt>
      <trkpt lat="45.3347" lon="1.87774">
        <ele>592</ele>
        <time>2011-03-19T16:01:00.000Z</time>
      </trkpt>
      <trkpt lat="45.3345" lon="1.87789">
        <ele>591</ele>
        <time>2011-03-19T16:01:05.000Z</time>
      </trkpt>
      <trkpt lat="45.3342" lon="1.87805">
        <ele>586</ele>
        <time>2011-03-19T16:01:10.000Z</time>
      </trkpt>
      <trkpt lat="45.3338" lon="1.87826">
        <ele>585</ele>
        <time>2011-03-19T16:01:16.000Z</time>
      </trkpt>
      <trkpt lat="45.3335" lon="1.8784">
        <ele>585</ele>
        <time>2011-03-19T16:01:21.000Z</time>
      </trkpt>
      <trkpt lat="45.3332" lon="1.87862">
        <ele>585</ele>
        <time>2011-03-19T16:01:26.000Z</time>
      </trkpt>
      <trkpt lat="45.3328" lon="1.87887">
        <ele>585</ele>
        <time>2011-03-19T16:01:32.000Z</time>
      </trkpt>
      <trkpt lat="45.3325" lon="1.87903">
        <ele>584</ele>
        <time>2011-03-19T16:01:37.000Z</time>
      </trkpt>
      <trkpt lat="45.3322" lon="1.87921">
        <ele>583</ele>
        <time>2011-03-19T16:01:42.000Z</time>
      </trkpt>
      <trkpt lat="45.3318" lon="1.87935">
        <ele>584</ele>
        <time>2011-03-19T16:01:48.000Z</time>
      </trkpt>
      <trkpt lat="45.3315" lon="1.87948">
        <ele>583</ele>
        <time>2011-03-19T16:01:53.000Z</time>
      </trkpt>
      <trkpt lat="45.3312" lon="1.8796">
        <ele>584</ele>
        <time>2011-03-19T16:01:58.000Z</time>
      </trkpt>
      <trkpt lat="45.3309" lon="1.87978">
        <ele>582</ele>
        <time>2011-03-19T16:02:04.000Z</time>
      </trkpt>
      <trkpt lat="45.3306" lon="1.87999">
        <ele>581</ele>
        <time>2011-03-19T16:02:09.000Z</time>
      </trkpt>
      <trkpt lat="45.3303" lon="1.88019">
        <ele>581</ele>
        <time>2011-03-19T16:02:14.000Z</time>
      </trkpt>
      <trkpt lat="45.33" lon="1.88023">
        <ele>582</ele>
        <time>2011-03-19T16:02:20.000Z</time>
      </trkpt>
      <trkpt lat="45.3297" lon="1.88004">
        <ele>583</ele>
        <time>2011-03-19T16:02:25.000Z</time>
      </trkpt>
      <trkpt lat="45.3294" lon="1.8798">
        <ele>584</ele>
        <time>2011-03-19T16:02:30.000Z</time>
      </trkpt>
      <trkpt lat="45.329" lon="1.87943">
        <ele>584</ele>
        <time>2011-03-19T16:02:36.000Z</time>
      </trkpt>
      <trkpt lat="45.3288" lon="1.87899">
        <ele>584</ele>
        <time>2011-03-19T16:02:41.000Z</time>
      </trkpt>
      <trkpt lat="45.3286" lon="1.8785">
        <ele>585</ele>
        <time>2011-03-19T16:02:46.000Z</time>
      </trkpt>
      <trkpt lat="45.3284" lon="1.87803">
        <ele>584</ele>
        <time>2011-03-19T16:02:52.000Z</time>
      </trkpt>
      <trkpt lat="45.3282" lon="1.87782">
        <ele>586</ele>
        <time>2011-03-19T16:02:57.000Z</time>
      </trkpt>
      <trkpt lat="45.3281" lon="1.87767">
        <ele>589</ele>
        <time>2011-03-19T16:03:02.000Z</time>
      </trkpt>
      <trkpt lat="45.3277" lon="1.8776">
        <ele>592</ele>
        <time>2011-03-19T16:03:08.000Z</time>
      </trkpt>
      <trkpt lat="45.3274" lon="1.87756">
        <ele>590</ele>
        <time>2011-03-19T16:03:13.000Z</time>
      </trkpt>
      <trkpt lat="45.327" lon="1.87763">
        <ele>589</ele>
        <time>2011-03-19T16:03:18.000Z</time>
      </trkpt>
      <trkpt lat="45.3266" lon="1.87761">
        <ele>590</ele>
        <time>2011-03-19T16:03:24.000Z</time>
      </trkpt>
      <trkpt lat="45.3264" lon="1.8775">
        <ele>591</ele>
        <time>2011-03-19T16:03:29.000Z</time>
      </trkpt>
      <trkpt lat="45.3262" lon="1.87736">
        <ele>593</ele>
        <time>2011-03-19T16:03:34.000Z</time>
      </trkpt>
      <trkpt lat="45.3259" lon="1.87719">
        <ele>595</ele>
        <time>2011-03-19T16:03:40.000Z</time>
      </trkpt>
      <trkpt lat="45.3256" lon="1.8771">
        <ele>595</ele>
        <time>2011-03-19T16:03:45.000Z</time>
      </trkpt>
      <trkpt lat="45.3253" lon="1.87714">
        <ele>594</ele>
        <time>2011-03-19T16:03:50.000Z</time>
      </trkpt>
      <trkpt lat="45.325" lon="1.87733">
        <ele>595</ele>
        <time>2011-03-19T16:03:56.000Z</time>
      </trkpt>
      <trkpt lat="45.3247" lon="1.87751">
        <ele>594</ele>
        <time>2011-03-19T16:04:01.000Z</time>
      </trkpt>
      <trkpt lat="45.3244" lon="1.87754">
        <ele>597</ele>
        <time>2011-03-19T16:04:06.000Z</time>
      </trkpt>
      <trkpt lat="45.324" lon="1.87747">
        <ele>595</ele>
        <time>2011-03-19T16:04:12.000Z</time>
      </trkpt>
      <trkpt lat="45.3238" lon="1.8773">
        <ele>597</ele>
        <time>2011-03-19T16:04:17.000Z</time>
      </trkpt>
      <trkpt lat="45.3236" lon="1.87718">
        <ele>597</ele>
        <time>2011-03-19T16:04:22.000Z</time>
      </trkpt>
      <trkpt lat="45.3234" lon="1.87703">
        <ele>594</ele>
        <time>2011-03-19T16:04:28.000Z</time>
      </trkpt>
      <trkpt lat="45.3233" lon="1.87696">
        <ele>595</ele>
        <time>2011-03-19T16:04:33.000Z</time>
      </trkpt>
      <trkpt lat="45.3231" lon="1.87702">
        <ele>597</ele>
        <time>2011-03-19T16:04:38.000Z</time>
      </trkpt>
      <trkpt lat="45.3229" lon="1.87722">
        <ele>599</ele>
        <time>2011-03-19T16:04:44.000Z</time>
      </trkpt>
      <trkpt lat="45.3228" lon="1.87757">
        <ele>599</ele>
        <time>2011-03-19T16:04:49.000Z</time>
      </trkpt>
      <trkpt lat="45.3226" lon="1.87793">
        <ele>596</ele>
        <time>2011-03-19T16:04:54.000Z</time>
      </trkpt>
      <trkpt lat="45.3224" lon="1.8782">
        <ele>595</ele>
        <time>2011-03-19T16:05:00.000Z</time>
      </trkpt>
      <trkpt lat="45.3221" lon="1.87831">
        <ele>596</ele>
        <time>2011-03-19T16:05:05.000Z</time>
      </trkpt>
      <trkpt lat="45.3218" lon="1.87851">
        <ele>596</ele>
        <time>2011-03-19T16:05:10.000Z</time>
      </trkpt>
      <trkpt lat="45.3216" lon="1.87879">
        <ele>595</ele>
        <time>2011-03-19T16:05:16.000Z</time>
      </trkpt>
      <trkpt lat="45.3214" lon="1.8791">
        <ele>594</ele>
        <time>2011-03-19T16:05:21.000Z</time>
      </trkpt>
      <trkpt lat="45.3211" lon="1.87934">
        <ele>592</ele>
        <time>2011-03-19T16:05:26.000Z</time>
      </trkpt>
      <trkpt lat="45.3208" lon="1.87955">
        <ele>589</ele>
        <time>2011-03-19T16:05:32.000Z</time>
      </trkpt>
      <trkpt lat="45.3205" lon="1.87967">
        <ele>586</ele>
        <time>2011-03-19T16:05:37.000Z</time>
      </trkpt>
      <trkpt lat="45.3202" lon="1.87987">
        <ele>586</ele>
        <time>2011-03-19T16:05:42.000Z</time>
      </trkpt>
      <trkpt lat="45.3198" lon="1.88019">
        <ele>585</ele>
        <time>2011-03-19T16:05:48.000Z</time>
      </trkpt>
      <trkpt lat="45.3196" lon="1.88051">
        <ele>584</ele>
        <time>2011-03-19T16:05:53.000Z</time>
      </trkpt>
      <trkpt lat="45.3195" lon="1.88098">
        <ele>583</ele>
        <time>2011-03-19T16:05:58.000Z</time>
      </trkpt>
      <trkpt lat="45.3193" lon="1.88142">
        <ele>582</ele>
        <time>2011-03-19T16:06:04.000Z</time>
      </trkpt>
      <trkpt lat="45.3191" lon="1.88172">
        <ele>580</ele>
        <time>2011-03-19T16:06:09.000Z</time>
      </trkpt>
      <trkpt lat="45.3188" lon="1.882">
        <ele>581</ele>
        <time>2011-03-19T16:06:14.000Z</time>
      </trkpt>
      <trkpt lat="45.3185" lon="1.88221">
        <ele>581</ele>
        <time>2011-03-19T16:06:20.000Z</time>
      </trkpt>
      <trkpt lat="45.3181" lon="1.8824">
        <ele>580</ele>
        <time>2011-03-19T16:06:25.000Z</time>
      </trkpt>
      <trkpt lat="45.3178" lon="1.88269">
        <ele>579</ele>
        <time>2011-03-19T16:06:30.000Z</time>
      </trkpt>
      <trkpt lat="45.3174" lon="1.88303">
        <ele>577</ele>
        <time>2011-03-19T16:06:36.000Z</time>
      </trkpt>
      <trkpt lat="45.317" lon="1.88335">
        <ele>575</ele>
        <time>2011-03-19T16:06:41.000Z</time>
      </trkpt>
      <trkpt lat="45.3166" lon="1.88367">
        <ele>573</ele>
        <time>2011-03-19T16:06:46.000Z</time>
      </trkpt>
      <trkpt lat="45.3162" lon="1.88394">
        <ele>573</ele>
        <time>2011-03-19T16:06:52.000Z</time>
      </trkpt>
      <trkpt lat="45.316" lon="1.88419">
        <ele>572</ele>
        <time>2011-03-19T16:06:57.000Z</time>
      </trkpt>
      <trkpt lat="45.3156" lon="1.88441">
        <ele>572</ele>
        <time>2011-03-19T16:07:02.000Z</time>
      </trkpt>
      <trkpt lat="45.3152" lon="1.88475">
        <ele>570</ele>
        <time>2011-03-19T16:07:08.000Z</time>
      </trkpt>
      <trkpt lat="45.3149" lon="1.88501">
        <ele>567</ele>
        <time>2011-03-19T16:07:13.000Z</time>
      </trkpt>
      <trkpt lat="45.3145" lon="1.88525">
        <ele>565</ele>
        <time>2011-03-19T16:07:18.000Z</time>
      </trkpt>
      <trkpt lat="45.3142" lon="1.88559">
        <ele>562</ele>
        <time>2011-03-19T16:07:24.000Z</time>
      </trkpt>
      <trkpt lat="45.3138" lon="1.88583">
        <ele>561</ele>
        <time>2011-03-19T16:07:29.000Z</time>
      </trkpt>
      <trkpt lat="45.3135" lon="1.88608">
        <ele>560</ele>
        <time>2011-03-19T16:07:34.000Z</time>
      </trkpt>
      <trkpt lat="45.3131" lon="1.88646">
        <ele>560</ele>
        <time>2011-03-19T16:07:40.000Z</time>
      </trkpt>
      <trkpt lat="45.3128" lon="1.88675">
        <ele>558</ele>
        <time>2011-03-19T16:07:45.000Z</time>
      </trkpt>
      <trkpt lat="45.3124" lon="1.88683">
        <ele>559</ele>
        <time>2011-03-19T16:07:50.000Z</time>
      </trkpt>
      <trkpt lat="45.312" lon="1.88694">
        <ele>558</ele>
        <time>2011-03-19T16:07:56.000Z</time>
      </trkpt>
      <trkpt lat="45.3117" lon="1.88719">
        <ele>557</ele>
        <time>2011-03-19T16:08:01.000Z</time>
      </trkpt>
      <trkpt lat="45.3116" lon="1.88761">
        <ele>557</ele>
        <time>2011-03-19T16:08:06.000Z</time>
      </trkpt>
      <trkpt lat="45.3114" lon="1.88807">
        <ele>558</ele>
        <time>2011-03-19T16:08:12.000Z</time>
      </trkpt>
      <trkpt lat="45.3112" lon="1.88841">
        <ele>558</ele>
        <time>2011-03-19T16:08:17.000Z</time>
      </trkpt>
      <trkpt lat="45.3109" lon="1.88861">
        <ele>557</ele>
        <time>2011-03-19T16:08:22.000Z</time>
      </trkpt>
      <trkpt lat="45.3106" lon="1.88877">
        <ele>558</ele>
        <time>2011-03-19T16:08:28.000Z</time>
      </trkpt>
      <trkpt lat="45.3104" lon="1.88893">
        <ele>557</ele>
        <time>2011-03-19T16:08:33.000Z</time>
      </trkpt>
      <trkpt lat="45.3102" lon="1.88893">
        <ele>558</ele>
        <time>2011-03-19T16:08:38.000Z</time>
      </trkpt>
      <trkpt lat="45.3099" lon="1.88898">
        <ele>558</ele>
        <time>2011-03-19T16:08:44.000Z</time>
      </trkpt>
      <trkpt lat="45.3097" lon="1.88912">
        <ele>559</ele>
        <time>2011-03-19T16:08:49.000Z</time>
      </trkpt>
      <trkpt lat="45.3097" lon="1.88946">
        <ele>559</ele>
        <time>2011-03-19T16:08:54.000Z</time>
      </trkpt>
      <trkpt lat="45.3099" lon="1.88978">
        <ele>560</ele>
        <time>2011-03-19T16:09:00.000Z</time>
      </trkpt>
      <trkpt lat="45.3101" lon="1.89008">
        <ele>560</ele>
        <time>2011-03-19T16:09:05.000Z</time>
      </trkpt>
      <trkpt lat="45.3101" lon="1.89024">
        <ele>560</ele>
        <time>2011-03-19T16:09:10.000Z</time>
      </trkpt>
      <trkpt lat="45.3103" lon="1.8905">
        <ele>561</ele>
        <time>2011-03-19T16:09:16.000Z</time>
      </trkpt>
      <trkpt lat="45.3104" lon="1.89074">
        <ele>562</ele>
        <time>2011-03-19T16:09:21.000Z</time>
      </trkpt>
      <trkpt lat="45.3105" lon="1.89102">
        <ele>563</ele>
        <time>2011-03-19T16:09:26.000Z</time>
      </trkpt>
      <trkpt lat="45.3107" lon="1.89132">
        <ele>564</ele>
        <time>2011-03-19T16:09:32.000Z</time>
      </trkpt>
      <trkpt lat="45.3107" lon="1.89152">
        <ele>563</ele>
        <time>2011-03-19T16:09:37.000Z</time>
      </trkpt>
      <trkpt lat="45.3106" lon="1.89169">
        <ele>566</ele>
        <time>2011-03-19T16:09:42.000Z</time>
      </trkpt>
      <trkpt lat="45.3106" lon="1.89194">
        <ele>567</ele>
        <time>2011-03-19T16:09:48.000Z</time>
      </trkpt>
      <trkpt lat="45.3105" lon="1.89212">
        <ele>570</ele>
        <time>2011-03-19T16:09:53.000Z</time>
      </trkpt>
      <trkpt lat="45.3104" lon="1.89229">
        <ele>571</ele>
        <time>2011-03-19T16:09:58.000Z</time>
      </trkpt>
      <trkpt lat="45.3103" lon="1.8924">
        <ele>570</ele>
        <time>2011-03-19T16:10:04.000Z</time>
      </trkpt>
      <trkpt lat="45.3103" lon="1.89238">
        <ele>573</ele>
        <time>2011-03-19T16:10:09.000Z</time>
      </trkpt>
      <trkpt lat="45.3101" lon="1.8924">
        <ele>576</ele>
        <time>2011-03-19T16:10:14.000Z</time>
      </trkpt>
      <trkpt lat="45.31" lon="1.89247">
        <ele>579</ele>
        <time>2011-03-19T16:10:20.000Z</time>
      </trkpt>
      <trkpt lat="45.3099" lon="1.89259">
        <ele>581</ele>
        <time>2011-03-19T16:10:25.000Z</time>
      </trkpt>
      <trkpt lat="45.3098" lon="1.89272">
        <ele>580</ele>
        <time>2011-03-19T16:10:30.000Z</time>
      </trkpt>
      <trkpt lat="45.3098" lon="1.89294">
        <ele>582</ele>
        <time>2011-03-19T16:10:36.000Z</time>
      </trkpt>
      <trkpt lat="45.3097" lon="1.89313">
        <ele>582</ele>
        <time>2011-03-19T16:10:41.000Z</time>
      </trkpt>
      <trkpt lat="45.3097" lon="1.89331">
        <ele>581</ele>
        <time>2011-03-19T16:10:46.000Z</time>
      </trkpt>
      <trkpt lat="45.3096" lon="1.89352">
        <ele>580</ele>
        <time>2011-03-19T16:10:52.000Z</time>
      </trkpt>
      <trkpt lat="45.3096" lon="1.89368">
        <ele>581</ele>
        <time>2011-03-19T16:10:57.000Z</time>
      </trkpt>
      <trkpt lat="45.3095" lon="1.89382">
        <ele>583</ele>
        <time>2011-03-19T16:11:02.000Z</time>
      </trkpt>
      <trkpt lat="45.3095" lon="1.89399">
        <ele>585</ele>
        <time>2011-03-19T16:11:08.000Z</time>
      </trkpt>
      <trkpt lat="45.3094" lon="1.89412">
        <ele>586</ele>
        <time>2011-03-19T16:11:13.000Z</time>
      </trkpt>
      <trkpt lat="45.3093" lon="1.89425">
        <ele>587</ele>
        <time>2011-03-19T16:11:18.000Z</time>
      </trkpt>
      <trkpt lat="45.3092" lon="1.89439">
        <ele>589</ele>
        <time>2011-03-19T16:11:24.000Z</time>
      </trkpt>
      <trkpt lat="45.3092" lon="1.89458">
        <ele>589</ele>
        <time>2011-03-19T16:11:29.000Z</time>
      </trkpt>
      <trkpt lat="45.3092" lon="1.89473">
        <ele>591</ele>
        <time>2011-03-19T16:11:34.000Z</time>
      </trkpt>
      <trkpt lat="45.3092" lon="1.89501">
        <ele>593</ele>
        <time>2011-03-19T16:11:40.000Z</time>
      </trkpt>
      <trkpt lat="45.3091" lon="1.89516">
        <ele>595</ele>
        <time>2011-03-19T16:11:45.000Z</time>
      </trkpt>
      <trkpt lat="45.3091" lon="1.89531">
        <ele>596</ele>
        <time>2011-03-19T16:11:50.000Z</time>
      </trkpt>
      <trkpt lat="45.309" lon="1.89553">
        <ele>598</ele>
        <time>2011-03-19T16:11:56.000Z</time>
      </trkpt>
      <trkpt lat="45.309" lon="1.89579">
        <ele>596</ele>
        <time>2011-03-19T16:12:01.000Z</time>
      </trkpt>
      <trkpt lat="45.3089" lon="1.89595">
        <ele>596</ele>
        <time>2011-03-19T16:12:06.000Z</time>
      </trkpt>
      <trkpt lat="45.3089" lon="1.89617">
        <ele>597</ele>
        <time>2011-03-19T16:12:12.000Z</time>
      </trkpt>
      <trkpt lat="45.3089" lon="1.89634">
        <ele>597</ele>
        <time>2011-03-19T16:12:17.000Z</time>
      </trkpt>
      <trkpt lat="45.3089" lon="1.89649">
        <ele>596</ele>
        <time>2011-03-19T16:12:22.000Z</time>
      </trkpt>
      <trkpt lat="45.3088" lon="1.89673">
        <ele>599</ele>
        <time>2011-03-19T16:12:28.000Z</time>
      </trkpt>
      <trkpt lat="45.3088" lon="1.89684">
        <ele>602</ele>
        <time>2011-03-19T16:12:33.000Z</time>
      </trkpt>
      <trkpt lat="45.3087" lon="1.89697">
        <ele>603</ele>
        <time>2011-03-19T16:12:38.000Z</time>
      </trkpt>
      <trkpt lat="45.3086" lon="1.89717">
        <ele>605</ele>
        <time>2011-03-19T16:12:44.000Z</time>
      </trkpt>
      <trkpt lat="45.3085" lon="1.89736">
        <ele>606</ele>
        <time>2011-03-19T16:12:49.000Z</time>
      </trkpt>
      <trkpt lat="45.3084" lon="1.89757">
        <ele>607</ele>
        <time>2011-03-19T16:12:54.000Z</time>
      </trkpt>
      <trkpt lat="45.3084" lon="1.8979">
        <ele>606</ele>
        <time>2011-03-19T16:13:00.000Z</time>
      </trkpt>
      <trkpt lat="45.3083" lon="1.89817">
        <ele>605</ele>
        <time>2011-03-19T16:13:05.000Z</time>
      </trkpt>
      <trkpt lat="45.3083" lon="1.89841">
        <ele>605</ele>
        <time>2011-03-19T16:13:10.000Z</time>
      </trkpt>
      <trkpt lat="45.3083" lon="1.89863">
        <ele>608</ele>
        <time>2011-03-19T16:13:16.000Z</time>
      </trkpt>
      <trkpt lat="45.3084" lon="1.89881">
        <ele>609</ele>
        <time>2011-03-19T16:13:21.000Z</time>
      </trkpt>
      <trkpt lat="45.3086" lon="1.89904">
        <ele>610</ele>
        <time>2011-03-19T16:13:26.000Z</time>
      </trkpt>
      <trkpt lat="45.3087" lon="1.89927">
        <ele>610</ele>
        <time>2011-03-19T16:13:32.000Z</time>
      </trkpt>
      <trkpt lat="45.3089" lon="1.89944">
        <ele>610</ele>
        <time>2011-03-19T16:13:37.000Z</time>
      </trkpt>
      <trkpt lat="45.3091" lon="1.89967">
        <ele>610</ele>
        <time>2011-03-19T16:13:42.000Z</time>
      </trkpt>
      <trkpt lat="45.3092" lon="1.89998">
        <ele>609</ele>
        <time>2011-03-19T16:13:48.000Z</time>
      </trkpt>
      <trkpt lat="45.3093" lon="1.90025">
        <ele>608</ele>
        <time>2011-03-19T16:13:53.000Z</time>
      </trkpt>
      <trkpt lat="45.3094" lon="1.90052">
        <ele>607</ele>
        <time>2011-03-19T16:13:58.000Z</time>
      </trkpt>
      <trkpt lat="45.3093" lon="1.90084">
        <ele>604</ele>
        <time>2011-03-19T16:14:04.000Z</time>
      </trkpt>
      <trkpt lat="45.3093" lon="1.90105">
        <ele>605</ele>
        <time>2011-03-19T16:14:09.000Z</time>
      </trkpt>
      <trkpt lat="45.3092" lon="1.9012">
        <ele>606</ele>
        <time>2011-03-19T16:14:14.000Z</time>
      </trkpt>
      <trkpt lat="45.309" lon="1.90138">
        <ele>606</ele>
        <time>2011-03-19T16:14:20.000Z</time>
      </trkpt>
      <trkpt lat="45.3089" lon="1.90161">
        <ele>604</ele>
        <time>2011-03-19T16:14:25.000Z</time>
      </trkpt>
      <trkpt lat="45.3089" lon="1.90186">
        <ele>605</ele>
        <time>2011-03-19T16:14:30.000Z</time>
      </trkpt>
      <trkpt lat="45.3087" lon="1.9021">
        <ele>607</ele>
        <time>2011-03-19T16:14:36.000Z</time>
      </trkpt>
      <trkpt lat="45.3086" lon="1.90225">
        <ele>611</ele>
        <time>2011-03-19T16:14:41.000Z</time>
      </trkpt>
      <trkpt lat="45.3085" lon="1.90246">
        <ele>612</ele>
        <time>2011-03-19T16:14:46.000Z</time>
      </trkpt>
      <trkpt lat="45.3084" lon="1.90271">
        <ele>613</ele>
        <time>2011-03-19T16:14:52.000Z</time>
      </trkpt>
      <trkpt lat="45.3083" lon="1.9029">
        <ele>612</ele>
        <time>2011-03-19T16:14:57.000Z</time>
      </trkpt>
      <trkpt lat="45.3082" lon="1.90308">
        <ele>612</ele>
        <time>2011-03-19T16:15:02.000Z</time>
      </trkpt>
      <trkpt lat="45.3081" lon="1.9033">
        <ele>613</ele>
        <time>2011-03-19T16:15:08.000Z</time>
      </trkpt>
      <trkpt lat="45.308" lon="1.90341">
        <ele>615</ele>
        <time>2011-03-19T16:15:13.000Z</time>
      </trkpt>
      <trkpt lat="45.3079" lon="1.90349">
        <ele>617</ele>
        <time>2011-03-19T16:15:18.000Z</time>
      </trkpt>
      <trkpt lat="45.3078" lon="1.90364">
        <ele>618</ele>
        <time>2011-03-19T16:15:24.000Z</time>
      </trkpt>
      <trkpt lat="45.3077" lon="1.90374">
        <ele>622</ele>
        <time>2011-03-19T16:15:29.000Z</time>
      </trkpt>
      <trkpt lat="45.3075" lon="1.90386">
        <ele>624</ele>
        <time>2011-03-19T16:15:34.000Z</time>
      </trkpt>
      <trkpt lat="45.3074" lon="1.90407">
        <ele>627</ele>
        <time>2011-03-19T16:15:40.000Z</time>
      </trkpt>
      <trkpt lat="45.3073" lon="1.9043">
        <ele>627</ele>
        <time>2011-03-19T16:15:45.000Z</time>
      </trkpt>
      <trkpt lat="45.3072" lon="1.90454">
        <ele>628</ele>
        <time>2011-03-19T16:15:50.000Z</time>
      </trkpt>
      <trkpt lat="45.3071" lon="1.90477">
        <ele>629</ele>
        <time>2011-03-19T16:15:56.000Z</time>
      </trkpt>
      <trkpt lat="45.307" lon="1.90497">
        <ele>629</ele>
        <time>2011-03-19T16:16:01.000Z</time>
      </trkpt>
      <trkpt lat="45.307" lon="1.90517">
        <ele>631</ele>
        <time>2011-03-19T16:16:06.000Z</time>
      </trkpt>
      <trkpt lat="45.3068" lon="1.90539">
        <ele>632</ele>
        <time>2011-03-19T16:16:12.000Z</time>
      </trkpt>
      <trkpt lat="45.3067" lon="1.90558">
        <ele>634</ele>
        <time>2011-03-19T16:16:17.000Z</time>
      </trkpt>
      <trkpt lat="45.3066" lon="1.90577">
        <ele>635</ele>
        <time>2011-03-19T16:16:22.000Z</time>
      </trkpt>
      <trkpt lat="45.3065" lon="1.90598">
        <ele>635</ele>
        <time>2011-03-19T16:16:28.000Z</time>
      </trkpt>
      <trkpt lat="45.3064" lon="1.90606">
        <ele>635</ele>
        <time>2011-03-19T16:16:33.000Z</time>
      </trkpt>
      <trkpt lat="45.3062" lon="1.90619">
        <ele>635</ele>
        <time>2011-03-19T16:16:38.000Z</time>
      </trkpt>
      <trkpt lat="45.306" lon="1.90642">
        <ele>634</ele>
        <time>2011-03-19T16:16:44.000Z</time>
      </trkpt>
      <trkpt lat="45.3059" lon="1.90655">
        <ele>638</ele>
        <time>2011-03-19T16:16:49.000Z</time>
      </trkpt>
      <trkpt lat="45.3057" lon="1.9067">
        <ele>636</ele>
        <time>2011-03-19T16:16:54.000Z</time>
      </trkpt>
      <trkpt lat="45.3055" lon="1.9069">
        <ele>636</ele>
        <time>2011-03-19T16:17:00.000Z</time>
      </trkpt>
      <trkpt lat="45.3054" lon="1.90714">
        <ele>634</ele>
        <time>2011-03-19T16:17:05.000Z</time>
      </trkpt>
      <trkpt lat="45.3053" lon="1.90727">
        <ele>636</ele>
        <time>2011-03-19T16:17:10.000Z</time>
      </trkpt>
      <trkpt lat="45.3052" lon="1.9076">
        <ele>634</ele>
        <time>2011-03-19T16:17:16.000Z</time>
      </trkpt>
      <trkpt lat="45.3051" lon="1.90774">
        <ele>635</ele>
        <time>2011-03-19T16:17:21.000Z</time>
      </trkpt>
      <trkpt lat="45.305" lon="1.90787">
        <ele>635</ele>
        <time>2011-03-19T16:17:26.000Z</time>
      </trkpt>
      <trkpt lat="45.3048" lon="1.90801">
        <ele>636</ele>
        <time>2011-03-19T16:17:32.000Z</time>
      </trkpt>
      <trkpt lat="45.3047" lon="1.90811">
        <ele>639</ele>
        <time>2011-03-19T16:17:37.000Z</time>
      </trkpt>
      <trkpt lat="45.3045" lon="1.90833">
        <ele>641</ele>
        <time>2011-03-19T16:17:42.000Z</time>
      </trkpt>
      <trkpt lat="45.3043" lon="1.90878">
        <ele>642</ele>
        <time>2011-03-19T16:17:48.000Z</time>
      </trkpt>
      <trkpt lat="45.3041" lon="1.90917">
        <ele>641</ele>
        <time>2011-03-19T16:17:53.000Z</time>
      </trkpt>
      <trkpt lat="45.304" lon="1.90951">
        <ele>640</ele>
        <time>2011-03-19T16:17:58.000Z</time>
      </trkpt>
      <trkpt lat="45.3038" lon="1.90988">
        <ele>637</ele>
        <time>2011-03-19T16:18:04.000Z</time>
      </trkpt>
      <trkpt lat="45.3036" lon="1.91016">
        <ele>635</ele>
        <time>2011-03-19T16:18:09.000Z</time>
      </trkpt>
      <trkpt lat="45.3035" lon="1.91039">
        <ele>634</ele>
        <time>2011-03-19T16:18:14.000Z</time>
      </trkpt>
      <trkpt lat="45.3034" lon="1.91068">
        <ele>635</ele>
        <time>2011-03-19T16:18:20.000Z</time>
      </trkpt>
      <trkpt lat="45.3032" lon="1.91091">
        <ele>634</ele>
        <time>2011-03-19T16:18:25.000Z</time>
      </trkpt>
      <trkpt lat="45.3031" lon="1.91113">
        <ele>635</ele>
        <time>2011-03-19T16:18:30.000Z</time>
      </trkpt>
      <trkpt lat="45.3029" lon="1.91136">
        <ele>636</ele>
        <time>2011-03-19T16:18:36.000Z</time>
      </trkpt>
      <trkpt lat="45.3027" lon="1.91156">
        <ele>635</ele>
        <time>2011-03-19T16:18:41.000Z</time>
      </trkpt>
      <trkpt lat="45.3025" lon="1.91176">
        <ele>638</ele>
        <time>2011-03-19T16:18:47.000Z</time>
      </trkpt>
      <trkpt lat="45.3023" lon="1.91189">
        <ele>638</ele>
        <time>2011-03-19T16:18:52.000Z</time>
      </trkpt>
      <trkpt lat="45.3022" lon="1.91207">
        <ele>639</ele>
        <time>2011-03-19T16:18:57.000Z</time>
      </trkpt>
      <trkpt lat="45.3021" lon="1.91223">
        <ele>640</ele>
        <time>2011-03-19T16:19:02.000Z</time>
      </trkpt>
      <trkpt lat="45.3019" lon="1.91247">
        <ele>642</ele>
        <time>2011-03-19T16:19:07.000Z</time>
      </trkpt>
      <trkpt lat="45.3017" lon="1.9127">
        <ele>641</ele>
        <time>2011-03-19T16:19:12.000Z</time>
      </trkpt>
      <trkpt lat="45.3016" lon="1.91297">
        <ele>640</ele>
        <time>2011-03-19T16:19:17.000Z</time>
      </trkpt>
      <trkpt lat="45.3015" lon="1.91326">
        <ele>642</ele>
        <time>2011-03-19T16:19:23.000Z</time>
      </trkpt>
      <trkpt lat="45.3016" lon="1.91355">
        <ele>641</ele>
        <time>2011-03-19T16:19:28.000Z</time>
      </trkpt>
      <trkpt lat="45.3015" lon="1.91375">
        <ele>639</ele>
        <time>2011-03-19T16:19:33.000Z</time>
      </trkpt>
      <trkpt lat="45.3014" lon="1.91392">
        <ele>638</ele>
        <time>2011-03-19T16:19:39.000Z</time>
      </trkpt>
      <trkpt lat="45.3013" lon="1.914">
        <ele>641</ele>
        <time>2011-03-19T16:19:44.000Z</time>
      </trkpt>
      <trkpt lat="45.301" lon="1.91407">
        <ele>642</ele>
        <time>2011-03-19T16:19:49.000Z</time>
      </trkpt>
      <trkpt lat="45.3008" lon="1.91412">
        <ele>644</ele>
        <time>2011-03-19T16:19:54.000Z</time>
      </trkpt>
      <trkpt lat="45.3006" lon="1.91423">
        <ele>643</ele>
        <time>2011-03-19T16:19:59.000Z</time>
      </trkpt>
      <trkpt lat="45.3002" lon="1.91436">
        <ele>644</ele>
        <time>2011-03-19T16:20:04.000Z</time>
      </trkpt>
      <trkpt lat="45.2999" lon="1.9145">
        <ele>647</ele>
        <time>2011-03-19T16:20:09.000Z</time>
      </trkpt>
      <trkpt lat="45.2996" lon="1.91471">
        <ele>656</ele>
        <time>2011-03-19T16:20:15.000Z</time>
      </trkpt>
      <trkpt lat="45.2994" lon="1.91487">
        <ele>656</ele>
        <time>2011-03-19T16:20:20.000Z</time>
      </trkpt>
      <trkpt lat="45.2992" lon="1.91528">
        <ele>657</ele>
        <time>2011-03-19T16:20:25.000Z</time>
      </trkpt>
      <trkpt lat="45.299" lon="1.91577">
        <ele>654</ele>
        <time>2011-03-19T16:20:31.000Z</time>
      </trkpt>
      <trkpt lat="45.2989" lon="1.91621">
        <ele>654</ele>
        <time>2011-03-19T16:20:36.000Z</time>
      </trkpt>
      <trkpt lat="45.2987" lon="1.91642">
        <ele>655</ele>
        <time>2011-03-19T16:20:41.000Z</time>
      </trkpt>
      <trkpt lat="45.2985" lon="1.91663">
        <ele>656</ele>
        <time>2011-03-19T16:20:47.000Z</time>
      </trkpt>
      <trkpt lat="45.2984" lon="1.91689">
        <ele>655</ele>
        <time>2011-03-19T16:20:52.000Z</time>
      </trkpt>
      <trkpt lat="45.2982" lon="1.91707">
        <ele>657</ele>
        <time>2011-03-19T16:20:57.000Z</time>
      </trkpt>
      <trkpt lat="45.298" lon="1.91737">
        <ele>657</ele>
        <time>2011-03-19T16:21:03.000Z</time>
      </trkpt>
      <trkpt lat="45.2978" lon="1.91762">
        <ele>658</ele>
        <time>2011-03-19T16:21:08.000Z</time>
      </trkpt>
      <trkpt lat="45.2978" lon="1.91787">
        <ele>656</ele>
        <time>2011-03-19T16:21:13.000Z</time>
      </trkpt>
      <trkpt lat="45.2977" lon="1.9181">
        <ele>657</ele>
        <time>2011-03-19T16:21:19.000Z</time>
      </trkpt>
      <trkpt lat="45.2976" lon="1.9183">
        <ele>657</ele>
        <time>2011-03-19T16:21:24.000Z</time>
      </trkpt>
      <trkpt lat="45.2975" lon="1.91861">
        <ele>655</ele>
        <time>2011-03-19T16:21:29.000Z</time>
      </trkpt>
      <trkpt lat="45.2974" lon="1.91884">
        <ele>652</ele>
        <time>2011-03-19T16:21:35.000Z</time>
      </trkpt>
      <trkpt lat="45.2972" lon="1.91883">
        <ele>651</ele>
        <time>2011-03-19T16:21:40.000Z</time>
      </trkpt>
      <trkpt lat="45.2969" lon="1.91887">
        <ele>649</ele>
        <time>2011-03-19T16:21:45.000Z</time>
      </trkpt>
      <trkpt lat="45.2966" lon="1.91905">
        <ele>648</ele>
        <time>2011-03-19T16:21:51.000Z</time>
      </trkpt>
      <trkpt lat="45.2963" lon="1.91923">
        <ele>646</ele>
        <time>2011-03-19T16:21:56.000Z</time>
      </trkpt>
      <trkpt lat="45.2961" lon="1.91934">
        <ele>645</ele>
        <time>2011-03-19T16:22:01.000Z</time>
      </trkpt>
      <trkpt lat="45.2958" lon="1.91952">
        <ele>645</ele>
        <time>2011-03-19T16:22:07.000Z</time>
      </trkpt>
      <trkpt lat="45.2956" lon="1.91981">
        <ele>643</ele>
        <time>2011-03-19T16:22:12.000Z</time>
      </trkpt>
      <trkpt lat="45.2955" lon="1.9203">
        <ele>643</ele>
        <time>2011-03-19T16:22:17.000Z</time>
      </trkpt>
      <trkpt lat="45.2953" lon="1.92085">
        <ele>642</ele>
        <time>2011-03-19T16:22:23.000Z</time>
      </trkpt>
      <trkpt lat="45.2952" lon="1.92101">
        <ele>644</ele>
        <time>2011-03-19T16:22:28.000Z</time>
      </trkpt>
      <trkpt lat="45.2951" lon="1.92115">
        <ele>644</ele>
        <time>2011-03-19T16:22:33.000Z</time>
      </trkpt>
      <trkpt lat="45.295" lon="1.92131">
        <ele>646</ele>
        <time>2011-03-19T16:22:39.000Z</time>
      </trkpt>
      <trkpt lat="45.2948" lon="1.92145">
        <ele>649</ele>
        <time>2011-03-19T16:22:44.000Z</time>
      </trkpt>
      <trkpt lat="45.2946" lon="1.92156">
        <ele>649</ele>
        <time>2011-03-19T16:22:49.000Z</time>
      </trkpt>
      <trkpt lat="45.2945" lon="1.92165">
        <ele>648</ele>
        <time>2011-03-19T16:22:55.000Z</time>
      </trkpt>
      <trkpt lat="45.2944" lon="1.92163">
        <ele>645</ele>
        <time>2011-03-19T16:23:00.000Z</time>
      </trkpt>
      <trkpt lat="45.2942" lon="1.92142">
        <ele>646</ele>
        <time>2011-03-19T16:23:05.000Z</time>
      </trkpt>
      <trkpt lat="45.2939" lon="1.92105">
        <ele>647</ele>
        <time>2011-03-19T16:23:11.000Z</time>
      </trkpt>
      <trkpt lat="45.2936" lon="1.92075">
        <ele>650</ele>
        <time>2011-03-19T16:23:16.000Z</time>
      </trkpt>
      <trkpt lat="45.2933" lon="1.92052">
        <ele>650</ele>
        <time>2011-03-19T16:23:21.000Z</time>
      </trkpt>
      <trkpt lat="45.293" lon="1.92018">
        <ele>650</ele>
        <time>2011-03-19T16:23:27.000Z</time>
      </trkpt>
      <trkpt lat="45.2927" lon="1.91997">
        <ele>649</ele>
        <time>2011-03-19T16:23:32.000Z</time>
      </trkpt>
      <trkpt lat="45.2925" lon="1.91978">
        <ele>648</ele>
        <time>2011-03-19T16:23:37.000Z</time>
      </trkpt>
      <trkpt lat="45.2921" lon="1.91959">
        <ele>647</ele>
        <time>2011-03-19T16:23:43.000Z</time>
      </trkpt>
      <trkpt lat="45.2917" lon="1.9194">
        <ele>648</ele>
        <time>2011-03-19T16:23:48.000Z</time>
      </trkpt>
      <trkpt lat="45.2914" lon="1.91921">
        <ele>649</ele>
        <time>2011-03-19T16:23:53.000Z</time>
      </trkpt>
      <trkpt lat="45.291" lon="1.91904">
        <ele>650</ele>
        <time>2011-03-19T16:23:59.000Z</time>
      </trkpt>
      <trkpt lat="45.2907" lon="1.91886">
        <ele>647</ele>
        <time>2011-03-19T16:24:04.000Z</time>
      </trkpt>
      <trkpt lat="45.2905" lon="1.91876">
        <ele>647</ele>
        <time>2011-03-19T16:24:09.000Z</time>
      </trkpt>
      <trkpt lat="45.2904" lon="1.9187">
        <ele>645</ele>
        <time>2011-03-19T16:24:15.000Z</time>
      </trkpt>
      <trkpt lat="45.2901" lon="1.91856">
        <ele>645</ele>
        <time>2011-03-19T16:24:20.000Z</time>
      </trkpt>
      <trkpt lat="45.2898" lon="1.91846">
        <ele>644</ele>
        <time>2011-03-19T16:24:25.000Z</time>
      </trkpt>
      <trkpt lat="45.2894" lon="1.91833">
        <ele>644</ele>
        <time>2011-03-19T16:24:30.000Z</time>
      </trkpt>
      <trkpt lat="45.2892" lon="1.91822">
        <ele>644</ele>
        <time>2011-03-19T16:24:36.000Z</time>
      </trkpt>
      <trkpt lat="45.2889" lon="1.91808">
        <ele>644</ele>
        <time>2011-03-19T16:24:41.000Z</time>
      </trkpt>
      <trkpt lat="45.2885" lon="1.91781">
        <ele>645</ele>
        <time>2011-03-19T16:24:47.000Z</time>
      </trkpt>
      <trkpt lat="45.2882" lon="1.91755">
        <ele>647</ele>
        <time>2011-03-19T16:24:52.000Z</time>
      </trkpt>
      <trkpt lat="45.288" lon="1.9173">
        <ele>648</ele>
        <time>2011-03-19T16:24:57.000Z</time>
      </trkpt>
      <trkpt lat="45.2877" lon="1.91708">
        <ele>647</ele>
        <time>2011-03-19T16:25:02.000Z</time>
      </trkpt>
      <trkpt lat="45.2874" lon="1.91683">
        <ele>648</ele>
        <time>2011-03-19T16:25:07.000Z</time>
      </trkpt>
      <trkpt lat="45.2873" lon="1.91653">
        <ele>645</ele>
        <time>2011-03-19T16:25:12.000Z</time>
      </trkpt>
      <trkpt lat="45.2871" lon="1.91625">
        <ele>645</ele>
        <time>2011-03-19T16:25:17.000Z</time>
      </trkpt>
      <trkpt lat="45.287" lon="1.91591">
        <ele>647</ele>
        <time>2011-03-19T16:25:23.000Z</time>
      </trkpt>
      <trkpt lat="45.2869" lon="1.91553">
        <ele>645</ele>
        <time>2011-03-19T16:25:28.000Z</time>
      </trkpt>
      <trkpt lat="45.2868" lon="1.91517">
        <ele>644</ele>
        <time>2011-03-19T16:25:33.000Z</time>
      </trkpt>
      <trkpt lat="45.2867" lon="1.91482">
        <ele>646</ele>
        <time>2011-03-19T16:25:39.000Z</time>
      </trkpt>
      <trkpt lat="45.2867" lon="1.9145">
        <ele>645</ele>
        <time>2011-03-19T16:25:44.000Z</time>
      </trkpt>
      <trkpt lat="45.2864" lon="1.91427">
        <ele>647</ele>
        <time>2011-03-19T16:25:49.000Z</time>
      </trkpt>
      <trkpt lat="45.2862" lon="1.91393">
        <ele>646</ele>
        <time>2011-03-19T16:25:55.000Z</time>
      </trkpt>
      <trkpt lat="45.286" lon="1.91384">
        <ele>646</ele>
        <time>2011-03-19T16:26:00.000Z</time>
      </trkpt>
      <trkpt lat="45.2856" lon="1.91376">
        <ele>647</ele>
        <time>2011-03-19T16:26:05.000Z</time>
      </trkpt>
      <trkpt lat="45.2851" lon="1.91368">
        <ele>647</ele>
        <time>2011-03-19T16:26:11.000Z</time>
      </trkpt>
      <trkpt lat="45.2849" lon="1.91356">
        <ele>640</ele>
        <time>2011-03-19T16:26:16.000Z</time>
      </trkpt>
      <trkpt lat="45.2847" lon="1.91336">
        <ele>641</ele>
        <time>2011-03-19T16:26:21.000Z</time>
      </trkpt>
      <trkpt lat="45.2845" lon="1.91305">
        <ele>639</ele>
        <time>2011-03-19T16:26:27.000Z</time>
      </trkpt>
      <trkpt lat="45.2844" lon="1.91289">
        <ele>644</ele>
        <time>2011-03-19T16:26:32.000Z</time>
      </trkpt>
      <trkpt lat="45.2843" lon="1.91272">
        <ele>649</ele>
        <time>2011-03-19T16:26:37.000Z</time>
      </trkpt>
      <trkpt lat="45.284" lon="1.91252">
        <ele>654</ele>
        <time>2011-03-19T16:26:43.000Z</time>
      </trkpt>
      <trkpt lat="45.2839" lon="1.91223">
        <ele>657</ele>
        <time>2011-03-19T16:26:48.000Z</time>
      </trkpt>
      <trkpt lat="45.2837" lon="1.91194">
        <ele>655</ele>
        <time>2011-03-19T16:26:53.000Z</time>
      </trkpt>
      <trkpt lat="45.2836" lon="1.91167">
        <ele>652</ele>
        <time>2011-03-19T16:26:59.000Z</time>
      </trkpt>
      <trkpt lat="45.2836" lon="1.91141">
        <ele>644</ele>
        <time>2011-03-19T16:27:04.000Z</time>
      </trkpt>
      <trkpt lat="45.2834" lon="1.91154">
        <ele>644</ele>
        <time>2011-03-19T16:27:09.000Z</time>
      </trkpt>
      <trkpt lat="45.2832" lon="1.91181">
        <ele>639</ele>
        <time>2011-03-19T16:27:15.000Z</time>
      </trkpt>
      <trkpt lat="45.2831" lon="1.91214">
        <ele>639</ele>
        <time>2011-03-19T16:27:20.000Z</time>
      </trkpt>
      <trkpt lat="45.283" lon="1.91253">
        <ele>639</ele>
        <time>2011-03-19T16:27:25.000Z</time>
      </trkpt>
      <trkpt lat="45.283" lon="1.91316">
        <ele>637</ele>
        <time>2011-03-19T16:27:31.000Z</time>
      </trkpt>
      <trkpt lat="45.283" lon="1.91367">
        <ele>637</ele>
        <time>2011-03-19T16:27:36.000Z</time>
      </trkpt>
      <trkpt lat="45.2829" lon="1.9142">
        <ele>636</ele>
        <time>2011-03-19T16:27:41.000Z</time>
      </trkpt>
      <trkpt lat="45.283" lon="1.91476">
        <ele>635</ele>
        <time>2011-03-19T16:27:47.000Z</time>
      </trkpt>
      <trkpt lat="45.2832" lon="1.91528">
        <ele>635</ele>
        <time>2011-03-19T16:27:52.000Z</time>
      </trkpt>
      <trkpt lat="45.2834" lon="1.91569">
        <ele>633</ele>
        <time>2011-03-19T16:27:57.000Z</time>
      </trkpt>
      <trkpt lat="45.2836" lon="1.91622">
        <ele>632</ele>
        <time>2011-03-19T16:28:03.000Z</time>
      </trkpt>
      <trkpt lat="45.2837" lon="1.91679">
        <ele>632</ele>
        <time>2011-03-19T16:28:08.000Z</time>
      </trkpt>
      <trkpt lat="45.2836" lon="1.91725">
        <ele>631</ele>
        <time>2011-03-19T16:28:13.000Z</time>
      </trkpt>
      <trkpt lat="45.2836" lon="1.9179">
        <ele>624</ele>
        <time>2011-03-19T16:28:19.000Z</time>
      </trkpt>
      <trkpt lat="45.2835" lon="1.91843">
        <ele>623</ele>
        <time>2011-03-19T16:28:24.000Z</time>
      </trkpt>
      <trkpt lat="45.2835" lon="1.91891">
        <ele>620</ele>
        <time>2011-03-19T16:28:29.000Z</time>
      </trkpt>
      <trkpt lat="45.2835" lon="1.91952">
        <ele>619</ele>
        <time>2011-03-19T16:28:35.000Z</time>
      </trkpt>
      <trkpt lat="45.2835" lon="1.91999">
        <ele>618</ele>
        <time>2011-03-19T16:28:40.000Z</time>
      </trkpt>
      <trkpt lat="45.2835" lon="1.92048">
        <ele>617</ele>
        <time>2011-03-19T16:28:45.000Z</time>
      </trkpt>
      <trkpt lat="45.2835" lon="1.92104">
        <ele>617</ele>
        <time>2011-03-19T16:28:51.000Z</time>
      </trkpt>
      <trkpt lat="45.2834" lon="1.92151">
        <ele>616</ele>
        <time>2011-03-19T16:28:56.000Z</time>
      </trkpt>
      <trkpt lat="45.2831" lon="1.92176">
        <ele>614</ele>
        <time>2011-03-19T16:29:01.000Z</time>
      </trkpt>
      <trkpt lat="45.2828" lon="1.92213">
        <ele>613</ele>
        <time>2011-03-19T16:29:07.000Z</time>
      </trkpt>
      <trkpt lat="45.2826" lon="1.92252">
        <ele>611</ele>
        <time>2011-03-19T16:29:12.000Z</time>
      </trkpt>
      <trkpt lat="45.2823" lon="1.92283">
        <ele>611</ele>
        <time>2011-03-19T16:29:17.000Z</time>
      </trkpt>
      <trkpt lat="45.2819" lon="1.92312">
        <ele>611</ele>
        <time>2011-03-19T16:29:22.000Z</time>
      </trkpt>
      <trkpt lat="45.2816" lon="1.92341">
        <ele>613</ele>
        <time>2011-03-19T16:29:27.000Z</time>
      </trkpt>
      <trkpt lat="45.2813" lon="1.92385">
        <ele>613</ele>
        <time>2011-03-19T16:29:33.000Z</time>
      </trkpt>
      <trkpt lat="45.2811" lon="1.92431">
        <ele>608</ele>
        <time>2011-03-19T16:29:38.000Z</time>
      </trkpt>
      <trkpt lat="45.2809" lon="1.92464">
        <ele>607</ele>
        <time>2011-03-19T16:29:43.000Z</time>
      </trkpt>
      <trkpt lat="45.2808" lon="1.92513">
        <ele>606</ele>
        <time>2011-03-19T16:29:49.000Z</time>
      </trkpt>
      <trkpt lat="45.2807" lon="1.92565">
        <ele>607</ele>
        <time>2011-03-19T16:29:54.000Z</time>
      </trkpt>
      <trkpt lat="45.2807" lon="1.92621">
        <ele>605</ele>
        <time>2011-03-19T16:29:59.000Z</time>
      </trkpt>
      <trkpt lat="45.2807" lon="1.92683">
        <ele>606</ele>
        <time>2011-03-19T16:30:05.000Z</time>
      </trkpt>
      <trkpt lat="45.2807" lon="1.92731">
        <ele>607</ele>
        <time>2011-03-19T16:30:10.000Z</time>
      </trkpt>
      <trkpt lat="45.2808" lon="1.92776">
        <ele>608</ele>
        <time>2011-03-19T16:30:15.000Z</time>
      </trkpt>
      <trkpt lat="45.2808" lon="1.92829">
        <ele>609</ele>
        <time>2011-03-19T16:30:21.000Z</time>
      </trkpt>
      <trkpt lat="45.2808" lon="1.92872">
        <ele>609</ele>
        <time>2011-03-19T16:30:26.000Z</time>
      </trkpt>
      <trkpt lat="45.2808" lon="1.92913">
        <ele>610</ele>
        <time>2011-03-19T16:30:31.000Z</time>
      </trkpt>
      <trkpt lat="45.2807" lon="1.9295">
        <ele>612</ele>
        <time>2011-03-19T16:30:36.000Z</time>
      </trkpt>
      <trkpt lat="45.2806" lon="1.92987">
        <ele>612</ele>
        <time>2011-03-19T16:30:41.000Z</time>
      </trkpt>
      <trkpt lat="45.2805" lon="1.93022">
        <ele>612</ele>
        <time>2011-03-19T16:30:46.000Z</time>
      </trkpt>
      <trkpt lat="45.2805" lon="1.9306">
        <ele>615</ele>
        <time>2011-03-19T16:30:51.000Z</time>
      </trkpt>
      <trkpt lat="45.2804" lon="1.931">
        <ele>615</ele>
        <time>2011-03-19T16:30:56.000Z</time>
      </trkpt>
      <trkpt lat="45.2803" lon="1.93145">
        <ele>616</ele>
        <time>2011-03-19T16:31:02.000Z</time>
      </trkpt>
      <trkpt lat="45.2803" lon="1.9318">
        <ele>617</ele>
        <time>2011-03-19T16:31:07.000Z</time>
      </trkpt>
      <trkpt lat="45.2802" lon="1.93224">
        <ele>617</ele>
        <time>2011-03-19T16:31:12.000Z</time>
      </trkpt>
      <trkpt lat="45.2803" lon="1.93269">
        <ele>617</ele>
        <time>2011-03-19T16:31:18.000Z</time>
      </trkpt>
      <trkpt lat="45.2802" lon="1.93317">
        <ele>616</ele>
        <time>2011-03-19T16:31:23.000Z</time>
      </trkpt>
      <trkpt lat="45.2802" lon="1.9337">
        <ele>614</ele>
        <time>2011-03-19T16:31:29.000Z</time>
      </trkpt>
      <trkpt lat="45.2801" lon="1.93412">
        <ele>612</ele>
        <time>2011-03-19T16:31:34.000Z</time>
      </trkpt>
      <trkpt lat="45.2801" lon="1.93456">
        <ele>609</ele>
        <time>2011-03-19T16:31:39.000Z</time>
      </trkpt>
      <trkpt lat="45.2801" lon="1.93498">
        <ele>609</ele>
        <time>2011-03-19T16:31:45.000Z</time>
      </trkpt>
      <trkpt lat="45.28" lon="1.93527">
        <ele>610</ele>
        <time>2011-03-19T16:31:50.000Z</time>
      </trkpt>
      <trkpt lat="45.28" lon="1.93571">
        <ele>611</ele>
        <time>2011-03-19T16:31:56.000Z</time>
      </trkpt>
      <trkpt lat="45.2799" lon="1.93599">
        <ele>613</ele>
        <time>2011-03-19T16:32:01.000Z</time>
      </trkpt>
      <trkpt lat="45.2798" lon="1.93625">
        <ele>613</ele>
        <time>2011-03-19T16:32:06.000Z</time>
      </trkpt>
      <trkpt lat="45.2798" lon="1.93669">
        <ele>614</ele>
        <time>2011-03-19T16:32:12.000Z</time>
      </trkpt>
      <trkpt lat="45.2797" lon="1.93699">
        <ele>614</ele>
        <time>2011-03-19T16:32:17.000Z</time>
      </trkpt>
      <trkpt lat="45.2796" lon="1.93734">
        <ele>614</ele>
        <time>2011-03-19T16:32:22.000Z</time>
      </trkpt>
      <trkpt lat="45.2796" lon="1.93772">
        <ele>615</ele>
        <time>2011-03-19T16:32:28.000Z</time>
      </trkpt>
      <trkpt lat="45.2795" lon="1.93799">
        <ele>614</ele>
        <time>2011-03-19T16:32:33.000Z</time>
      </trkpt>
      <trkpt lat="45.2794" lon="1.93831">
        <ele>613</ele>
        <time>2011-03-19T16:32:38.000Z</time>
      </trkpt>
      <trkpt lat="45.2794" lon="1.93873">
        <ele>611</ele>
        <time>2011-03-19T16:32:44.000Z</time>
      </trkpt>
      <trkpt lat="45.2794" lon="1.93909">
        <ele>610</ele>
        <time>2011-03-19T16:32:49.000Z</time>
      </trkpt>
      <trkpt lat="45.2795" lon="1.9394">
        <ele>610</ele>
        <time>2011-03-19T16:32:54.000Z</time>
      </trkpt>
      <trkpt lat="45.2796" lon="1.9398">
        <ele>609</ele>
        <time>2011-03-19T16:33:00.000Z</time>
      </trkpt>
      <trkpt lat="45.2796" lon="1.94012">
        <ele>610</ele>
        <time>2011-03-19T16:33:05.000Z</time>
      </trkpt>
      <trkpt lat="45.2797" lon="1.94043">
        <ele>610</ele>
        <time>2011-03-19T16:33:10.000Z</time>
      </trkpt>
      <trkpt lat="45.2797" lon="1.94073">
        <ele>613</ele>
        <time>2011-03-19T16:33:16.000Z</time>
      </trkpt>
      <trkpt lat="45.2798" lon="1.94102">
        <ele>615</ele>
        <time>2011-03-19T16:33:21.000Z</time>
      </trkpt>
      <trkpt lat="45.2798" lon="1.94136">
        <ele>617</ele>
        <time>2011-03-19T16:33:26.000Z</time>
      </trkpt>
      <trkpt lat="45.2799" lon="1.94179">
        <ele>617</ele>
        <time>2011-03-19T16:33:32.000Z</time>
      </trkpt>
      <trkpt lat="45.2799" lon="1.94212">
        <ele>619</ele>
        <time>2011-03-19T16:33:37.000Z</time>
      </trkpt>
      <trkpt lat="45.2799" lon="1.94241">
        <ele>617</ele>
        <time>2011-03-19T16:33:42.000Z</time>
      </trkpt>
      <trkpt lat="45.2799" lon="1.94288">
        <ele>617</ele>
        <time>2011-03-19T16:33:48.000Z</time>
      </trkpt>
      <trkpt lat="45.2799" lon="1.94335">
        <ele>616</ele>
        <time>2011-03-19T16:33:53.000Z</time>
      </trkpt>
      <trkpt lat="45.2799" lon="1.94372">
        <ele>615</ele>
        <time>2011-03-19T16:33:58.000Z</time>
      </trkpt>
      <trkpt lat="45.2799" lon="1.94394">
        <ele>617</ele>
        <time>2011-03-19T16:34:04.000Z</time>
      </trkpt>
      <trkpt lat="45.2799" lon="1.94421">
        <ele>618</ele>
        <time>2011-03-19T16:34:09.000Z</time>
      </trkpt>
      <trkpt lat="45.2798" lon="1.94456">
        <ele>618</ele>
        <time>2011-03-19T16:34:14.000Z</time>
      </trkpt>
      <trkpt lat="45.2798" lon="1.94502">
        <ele>619</ele>
        <time>2011-03-19T16:34:20.000Z</time>
      </trkpt>
      <trkpt lat="45.2798" lon="1.94546">
        <ele>620</ele>
        <time>2011-03-19T16:34:25.000Z</time>
      </trkpt>
      <trkpt lat="45.2798" lon="1.94588">
        <ele>621</ele>
        <time>2011-03-19T16:34:30.000Z</time>
      </trkpt>
      <trkpt lat="45.2797" lon="1.94643">
        <ele>621</ele>
        <time>2011-03-19T16:34:36.000Z</time>
      </trkpt>
      <trkpt lat="45.2797" lon="1.94687">
        <ele>619</ele>
        <time>2011-03-19T16:34:41.000Z</time>
      </trkpt>
      <trkpt lat="45.2797" lon="1.94733">
        <ele>619</ele>
        <time>2011-03-19T16:34:46.000Z</time>
      </trkpt>
      <trkpt lat="45.2797" lon="1.94791">
        <ele>618</ele>
        <time>2011-03-19T16:34:52.000Z</time>
      </trkpt>
      <trkpt lat="45.2796" lon="1.94832">
        <ele>620</ele>
        <time>2011-03-19T16:34:57.000Z</time>
      </trkpt>
      <trkpt lat="45.2795" lon="1.94872">
        <ele>618</ele>
        <time>2011-03-19T16:35:02.000Z</time>
      </trkpt>
      <trkpt lat="45.2793" lon="1.94924">
        <ele>618</ele>
        <time>2011-03-19T16:35:08.000Z</time>
      </trkpt>
      <trkpt lat="45.2792" lon="1.94958">
        <ele>618</ele>
        <time>2011-03-19T16:35:13.000Z</time>
      </trkpt>
      <trkpt lat="45.2791" lon="1.95">
        <ele>619</ele>
        <time>2011-03-19T16:35:18.000Z</time>
      </trkpt>
      <trkpt lat="45.2789" lon="1.95046">
        <ele>618</ele>
        <time>2011-03-19T16:35:24.000Z</time>
      </trkpt>
      <trkpt lat="45.2787" lon="1.95083">
        <ele>618</ele>
        <time>2011-03-19T16:35:29.000Z</time>
      </trkpt>
      <trkpt lat="45.2785" lon="1.95112">
        <ele>618</ele>
        <time>2011-03-19T16:35:34.000Z</time>
      </trkpt>
      <trkpt lat="45.2783" lon="1.95159">
        <ele>618</ele>
        <time>2011-03-19T16:35:40.000Z</time>
      </trkpt>
      <trkpt lat="45.2781" lon="1.95198">
        <ele>617</ele>
        <time>2011-03-19T16:35:45.000Z</time>
      </trkpt>
      <trkpt lat="45.2779" lon="1.95231">
        <ele>616</ele>
        <time>2011-03-19T16:35:50.000Z</time>
      </trkpt>
      <trkpt lat="45.2777" lon="1.9528">
        <ele>614</ele>
        <time>2011-03-19T16:35:56.000Z</time>
      </trkpt>
      <trkpt lat="45.2776" lon="1.95324">
        <ele>616</ele>
        <time>2011-03-19T16:36:01.000Z</time>
      </trkpt>
      <trkpt lat="45.2775" lon="1.95376">
        <ele>615</ele>
        <time>2011-03-19T16:36:06.000Z</time>
      </trkpt>
      <trkpt lat="45.2775" lon="1.95439">
        <ele>614</ele>
        <time>2011-03-19T16:36:12.000Z</time>
      </trkpt>
      <trkpt lat="45.2775" lon="1.95493">
        <ele>612</ele>
        <time>2011-03-19T16:36:17.000Z</time>
      </trkpt>
      <trkpt lat="45.2776" lon="1.95541">
        <ele>610</ele>
        <time>2011-03-19T16:36:22.000Z</time>
      </trkpt>
      <trkpt lat="45.2778" lon="1.95589">
        <ele>607</ele>
        <time>2011-03-19T16:36:28.000Z</time>
      </trkpt>
      <trkpt lat="45.2779" lon="1.9563">
        <ele>605</ele>
        <time>2011-03-19T16:36:33.000Z</time>
      </trkpt>
      <trkpt lat="45.2782" lon="1.95666">
        <ele>605</ele>
        <time>2011-03-19T16:36:38.000Z</time>
      </trkpt>
      <trkpt lat="45.2785" lon="1.95698">
        <ele>605</ele>
        <time>2011-03-19T16:36:44.000Z</time>
      </trkpt>
      <trkpt lat="45.2788" lon="1.95726">
        <ele>604</ele>
        <time>2011-03-19T16:36:49.000Z</time>
      </trkpt>
      <trkpt lat="45.2791" lon="1.95748">
        <ele>604</ele>
        <time>2011-03-19T16:36:54.000Z</time>
      </trkpt>
      <trkpt lat="45.2794" lon="1.95774">
        <ele>604</ele>
        <time>2011-03-19T16:37:00.000Z</time>
      </trkpt>
      <trkpt lat="45.2796" lon="1.95807">
        <ele>604</ele>
        <time>2011-03-19T16:37:05.000Z</time>
      </trkpt>
      <trkpt lat="45.2798" lon="1.95843">
        <ele>605</ele>
        <time>2011-03-19T16:37:10.000Z</time>
      </trkpt>
      <trkpt lat="45.2801" lon="1.95889">
        <ele>606</ele>
        <time>2011-03-19T16:37:16.000Z</time>
      </trkpt>
      <trkpt lat="45.2802" lon="1.95936">
        <ele>607</ele>
        <time>2011-03-19T16:37:21.000Z</time>
      </trkpt>
      <trkpt lat="45.2801" lon="1.95982">
        <ele>607</ele>
        <time>2011-03-19T16:37:26.000Z</time>
      </trkpt>
      <trkpt lat="45.2798" lon="1.96036">
        <ele>606</ele>
        <time>2011-03-19T16:37:32.000Z</time>
      </trkpt>
      <trkpt lat="45.2797" lon="1.96086">
        <ele>607</ele>
        <time>2011-03-19T16:37:37.000Z</time>
      </trkpt>
      <trkpt lat="45.2797" lon="1.96148">
        <ele>606</ele>
        <time>2011-03-19T16:37:42.000Z</time>
      </trkpt>
      <trkpt lat="45.2796" lon="1.96221">
        <ele>606</ele>
        <time>2011-03-19T16:37:48.000Z</time>
      </trkpt>
      <trkpt lat="45.2794" lon="1.96273">
        <ele>604</ele>
        <time>2011-03-19T16:37:53.000Z</time>
      </trkpt>
      <trkpt lat="45.2792" lon="1.96324">
        <ele>603</ele>
        <time>2011-03-19T16:37:58.000Z</time>
      </trkpt>
      <trkpt lat="45.279" lon="1.96407">
        <ele>600</ele>
        <time>2011-03-19T16:38:04.000Z</time>
      </trkpt>
      <trkpt lat="45.2789" lon="1.96468">
        <ele>597</ele>
        <time>2011-03-19T16:38:09.000Z</time>
      </trkpt>
      <trkpt lat="45.2788" lon="1.96503">
        <ele>596</ele>
        <time>2011-03-19T16:38:14.000Z</time>
      </trkpt>
      <trkpt lat="45.2787" lon="1.96534">
        <ele>599</ele>
        <time>2011-03-19T16:38:20.000Z</time>
      </trkpt>
      <trkpt lat="45.2786" lon="1.96566">
        <ele>599</ele>
        <time>2011-03-19T16:38:25.000Z</time>
      </trkpt>
      <trkpt lat="45.2786" lon="1.96594">
        <ele>600</ele>
        <time>2011-03-19T16:38:30.000Z</time>
      </trkpt>
      <trkpt lat="45.2784" lon="1.96629">
        <ele>602</ele>
        <time>2011-03-19T16:38:36.000Z</time>
      </trkpt>
      <trkpt lat="45.2784" lon="1.9666">
        <ele>602</ele>
        <time>2011-03-19T16:38:41.000Z</time>
      </trkpt>
      <trkpt lat="45.2784" lon="1.96696">
        <ele>602</ele>
        <time>2011-03-19T16:38:46.000Z</time>
      </trkpt>
      <trkpt lat="45.2785" lon="1.96735">
        <ele>602</ele>
        <time>2011-03-19T16:38:52.000Z</time>
      </trkpt>
      <trkpt lat="45.2785" lon="1.96777">
        <ele>599</ele>
        <time>2011-03-19T16:38:57.000Z</time>
      </trkpt>
      <trkpt lat="45.2785" lon="1.96816">
        <ele>601</ele>
        <time>2011-03-19T16:39:02.000Z</time>
      </trkpt>
      <trkpt lat="45.2785" lon="1.96854">
        <ele>601</ele>
        <time>2011-03-19T16:39:08.000Z</time>
      </trkpt>
      <trkpt lat="45.2785" lon="1.96884">
        <ele>601</ele>
        <time>2011-03-19T16:39:13.000Z</time>
      </trkpt>
      <trkpt lat="45.2786" lon="1.96911">
        <ele>601</ele>
        <time>2011-03-19T16:39:18.000Z</time>
      </trkpt>
      <trkpt lat="45.2786" lon="1.96945">
        <ele>601</ele>
        <time>2011-03-19T16:39:24.000Z</time>
      </trkpt>
      <trkpt lat="45.2787" lon="1.96975">
        <ele>601</ele>
        <time>2011-03-19T16:39:29.000Z</time>
      </trkpt>
      <trkpt lat="45.2788" lon="1.97001">
        <ele>601</ele>
        <time>2011-03-19T16:39:34.000Z</time>
      </trkpt>
      <trkpt lat="45.2789" lon="1.97033">
        <ele>600</ele>
        <time>2011-03-19T16:39:40.000Z</time>
      </trkpt>
      <trkpt lat="45.2789" lon="1.97055">
        <ele>599</ele>
        <time>2011-03-19T16:39:45.000Z</time>
      </trkpt>
      <trkpt lat="45.2789" lon="1.97065">
        <ele>600</ele>
        <time>2011-03-19T16:39:50.000Z</time>
      </trkpt>
      <trkpt lat="45.279" lon="1.97064">
        <ele>601</ele>
        <time>2011-03-19T16:39:56.000Z</time>
      </trkpt>
      <trkpt lat="45.2792" lon="1.9706">
        <ele>602</ele>
        <time>2011-03-19T16:40:01.000Z</time>
      </trkpt>
      <trkpt lat="45.2793" lon="1.97061">
        <ele>603</ele>
        <time>2011-03-19T16:40:06.000Z</time>
      </trkpt>
      <trkpt lat="45.2794" lon="1.97062">
        <ele>606</ele>
        <time>2011-03-19T16:40:12.000Z</time>
      </trkpt>
      <trkpt lat="45.2795" lon="1.97066">
        <ele>608</ele>
        <time>2011-03-19T16:40:17.000Z</time>
      </trkpt>
      <trkpt lat="45.2796" lon="1.97067">
        <ele>608</ele>
        <time>2011-03-19T16:40:22.000Z</time>
      </trkpt>
      <trkpt lat="45.2797" lon="1.97068">
        <ele>610</ele>
        <time>2011-03-19T16:40:28.000Z</time>
      </trkpt>
      <trkpt lat="45.2799" lon="1.97062">
        <ele>611</ele>
        <time>2011-03-19T16:40:33.000Z</time>
      </trkpt>
      <trkpt lat="45.28" lon="1.97058">
        <ele>612</ele>
        <time>2011-03-19T16:40:38.000Z</time>
      </trkpt>
      <trkpt lat="45.2801" lon="1.97056">
        <ele>614</ele>
        <time>2011-03-19T16:40:44.000Z</time>
      </trkpt>
      <trkpt lat="45.2803" lon="1.97051">
        <ele>615</ele>
        <time>2011-03-19T16:40:49.000Z</time>
      </trkpt>
      <trkpt lat="45.2806" lon="1.97044">
        <ele>615</ele>
        <time>2011-03-19T16:40:54.000Z</time>
      </trkpt>
      <trkpt lat="45.2809" lon="1.97042">
        <ele>615</ele>
        <time>2011-03-19T16:40:59.000Z</time>
      </trkpt>
      <trkpt lat="45.2811" lon="1.97043">
        <ele>615</ele>
        <time>2011-03-19T16:41:04.000Z</time>
      </trkpt>
      <trkpt lat="45.2813" lon="1.97043">
        <ele>614</ele>
        <time>2011-03-19T16:41:09.000Z</time>
      </trkpt>
      <trkpt lat="45.2816" lon="1.97045">
        <ele>615</ele>
        <time>2011-03-19T16:41:15.000Z</time>
      </trkpt>
      <trkpt lat="45.2819" lon="1.97047">
        <ele>614</ele>
        <time>2011-03-19T16:41:20.000Z</time>
      </trkpt>
      <trkpt lat="45.282" lon="1.97051">
        <ele>618</ele>
        <time>2011-03-19T16:41:25.000Z</time>
      </trkpt>
      <trkpt lat="45.2823" lon="1.97054">
        <ele>618</ele>
        <time>2011-03-19T16:41:31.000Z</time>
      </trkpt>
      <trkpt lat="45.2825" lon="1.97053">
        <ele>620</ele>
        <time>2011-03-19T16:41:36.000Z</time>
      </trkpt>
      <trkpt lat="45.2827" lon="1.97046">
        <ele>620</ele>
        <time>2011-03-19T16:41:41.000Z</time>
      </trkpt>
      <trkpt lat="45.2829" lon="1.97032">
        <ele>622</ele>
        <time>2011-03-19T16:41:47.000Z</time>
      </trkpt>
      <trkpt lat="45.2828" lon="1.97028">
        <ele>621</ele>
        <time>2011-03-19T16:41:52.000Z</time>
      </trkpt>
      <trkpt lat="45.2828" lon="1.97028">
        <ele>621</ele>
        <time>2011-03-19T16:41:57.000Z</time>
      </trkpt>
      <trkpt lat="45.2828" lon="1.97028">
        <ele>620</ele>
        <time>2011-03-19T16:42:03.000Z</time>
      </trkpt>
      <trkpt lat="45.2828" lon="1.97028">
        <ele>620</ele>
        <time>2011-03-19T16:42:08.000Z</time>
      </trkpt>
      <trkpt lat="45.2828" lon="1.97028">
        <ele>620</ele>
        <time>2011-03-19T16:42:13.000Z</time>
      </trkpt>
      <trkpt lat="45.2828" lon="1.97028">
        <ele>620</ele>
        <time>2011-03-19T16:42:19.000Z</time>
      </trkpt>
      <trkpt lat="45.2828" lon="1.97028">
        <ele>620</ele>
        <time>2011-03-19T16:42:24.000Z</time>
      </trkpt>
      <trkpt lat="45.2828" lon="1.97028">
        <ele>620</ele>
        <time>2011-03-19T16:42:29.000Z</time>
      </trkpt>
      <trkpt lat="45.2828" lon="1.97028">
        <ele>620</ele>
        <time>2011-03-19T16:42:35.000Z</time>
      </trkpt>
      <trkpt lat="45.2828" lon="1.97029">
        <ele>620</ele>
        <time>2011-03-19T16:42:40.000Z</time>
      </trkpt>
      <trkpt lat="45.2828" lon="1.97029">
        <ele>620</ele>
        <time>2011-03-19T16:42:45.000Z</time>
      </trkpt>
      <trkpt lat="45.2828" lon="1.97031">
        <ele>621</ele>
        <time>2011-03-19T16:42:51.000Z</time>
      </trkpt>
      <trkpt lat="45.2827" lon="1.97033">
        <ele>624</ele>
        <time>2011-03-19T16:42:56.000Z</time>
      </trkpt>
      <trkpt lat="45.2828" lon="1.97035">
        <ele>622</ele>
        <time>2011-03-19T16:43:01.000Z</time>
      </trkpt>
      <trkpt lat="45.2828" lon="1.97035">
        <ele>622</ele>
        <time>2011-03-19T16:43:07.000Z</time>
      </trkpt>
      <trkpt lat="45.2828" lon="1.97035">
        <ele>622</ele>
        <time>2011-03-19T16:43:12.000Z</time>
      </trkpt>
      <trkpt lat="45.2828" lon="1.97035">
        <ele>622</ele>
        <time>2011-03-19T16:43:17.000Z</time>
      </trkpt>
      <trkpt lat="45.2828" lon="1.97035">
        <ele>622</ele>
        <time>2011-03-19T16:43:23.000Z</time>
      </trkpt>
      <trkpt lat="45.2828" lon="1.97034">
        <ele>622</ele>
        <time>2011-03-19T16:43:28.000Z</time>
      </trkpt>
      <trkpt lat="45.2828" lon="1.97034">
        <ele>622</ele>
        <time>2011-03-19T16:43:33.000Z</time>
      </trkpt>
    </trkseg>
  </trk>
</gpx>